<?xml version="1.0" encoding="UTF-8" standalone="no" ?>
<gpx xmlns="http://www.topografix.com/GPX/1/1" xmlns:xsi="http://www.w3.org/2001/XMLSchema-instance" xsi:schemaLocation="http://www.topografix.com/GPX/1/1 http://www.topografix.com/GPX/1/1/gpx.xsd" version="1.1" creator="VisuGPX - https://www.visugpx.com">
  <metadata>
    <name>VTT ENDURO Rocher des vierges</name>
    <desc><![CDATA[Sortie typée enduro du coté du rocher des vierges. on démarre par une première petite descente qui nous conduit dans les ruffes. Que l'on traverse avec toujours autant de plaisir, c'est ludique. on remonte par un single puis chemin qui nous mène au départ de la deuxième partie des toboggans. C'est pentu par moments avec des marches (à sauter ou pas) pour atterrir dans un petit ruisseau que l'on traverse. une petite zone de portage pour aboutir au chemin de la dernière ascension. retour par le single qui contourne le rocher puis dernière descente avec petits sauts. Une petite sortie pour travailler le cardio si on monte les pistes à bon rythme, et les descentes pour travailler le technique.]]></desc>
  </metadata>
  <trk>
    <name><![CDATA[VTT ENDURO Rocher des vierges_1]]></name>
    <trkseg>
      <trkpt lat="43.70696" lon="3.46764">
        <ele>340.4</ele>
        <time>2017-03-22T07:26:51Z</time>
      </trkpt>
      <trkpt lat="43.70696" lon="3.46764">
        <ele>340.4</ele>
        <time>2017-03-22T07:27:00Z</time>
      </trkpt>
      <trkpt lat="43.707" lon="3.46774">
        <ele>345.9</ele>
        <time>2017-03-22T07:27:05Z</time>
      </trkpt>
      <trkpt lat="43.70695" lon="3.46769">
        <ele>347.8</ele>
        <time>2017-03-22T07:27:20Z</time>
      </trkpt>
      <trkpt lat="43.70696" lon="3.46776">
        <ele>347.1</ele>
        <time>2017-03-22T07:31:59Z</time>
      </trkpt>
      <trkpt lat="43.70694" lon="3.46781">
        <ele>346.4</ele>
        <time>2017-03-22T07:32:06Z</time>
      </trkpt>
      <trkpt lat="43.70694" lon="3.46776">
        <ele>342.9</ele>
        <time>2017-03-22T07:32:56Z</time>
      </trkpt>
      <trkpt lat="43.70696" lon="3.46771">
        <ele>341.6</ele>
        <time>2017-03-22T07:32:27Z</time>
      </trkpt>
      <trkpt lat="43.707" lon="3.46765">
        <ele>341.2</ele>
        <time>2017-03-22T07:32:46Z</time>
      </trkpt>
      <trkpt lat="43.70703" lon="3.46771">
        <ele>341.5</ele>
        <time>2017-03-22T07:33:58Z</time>
      </trkpt>
      <trkpt lat="43.70707" lon="3.46773">
        <ele>341.4</ele>
        <time>2017-03-22T07:34:05Z</time>
      </trkpt>
      <trkpt lat="43.707" lon="3.46768">
        <ele>341.5</ele>
        <time>2017-03-22T07:34:12Z</time>
      </trkpt>
      <trkpt lat="43.70693" lon="3.46761">
        <ele>341.4</ele>
        <time>2017-03-22T07:34:19Z</time>
      </trkpt>
      <trkpt lat="43.70687" lon="3.46755">
        <ele>341.4</ele>
        <time>2017-03-22T07:34:23Z</time>
      </trkpt>
      <trkpt lat="43.70682" lon="3.46745">
        <ele>341.2</ele>
        <time>2017-03-22T07:34:27Z</time>
      </trkpt>
      <trkpt lat="43.7068" lon="3.46735">
        <ele>340.9</ele>
        <time>2017-03-22T07:34:30Z</time>
      </trkpt>
      <trkpt lat="43.70679" lon="3.46723">
        <ele>340.8</ele>
        <time>2017-03-22T07:34:33Z</time>
      </trkpt>
      <trkpt lat="43.70677" lon="3.46711">
        <ele>340.7</ele>
        <time>2017-03-22T07:34:36Z</time>
      </trkpt>
      <trkpt lat="43.70673" lon="3.46702">
        <ele>340.2</ele>
        <time>2017-03-22T07:34:38Z</time>
      </trkpt>
      <trkpt lat="43.70667" lon="3.46696">
        <ele>339.4</ele>
        <time>2017-03-22T07:34:40Z</time>
      </trkpt>
      <trkpt lat="43.70658" lon="3.46691">
        <ele>339</ele>
        <time>2017-03-22T07:34:42Z</time>
      </trkpt>
      <trkpt lat="43.70649" lon="3.46687">
        <ele>338.9</ele>
        <time>2017-03-22T07:34:44Z</time>
      </trkpt>
      <trkpt lat="43.70639" lon="3.46683">
        <ele>338.9</ele>
        <time>2017-03-22T07:34:46Z</time>
      </trkpt>
      <trkpt lat="43.70629" lon="3.46678">
        <ele>338.5</ele>
        <time>2017-03-22T07:34:48Z</time>
      </trkpt>
      <trkpt lat="43.7062" lon="3.46674">
        <ele>337.9</ele>
        <time>2017-03-22T07:34:50Z</time>
      </trkpt>
      <trkpt lat="43.7061" lon="3.4667">
        <ele>337.4</ele>
        <time>2017-03-22T07:34:52Z</time>
      </trkpt>
      <trkpt lat="43.706" lon="3.46666">
        <ele>337.6</ele>
        <time>2017-03-22T07:34:54Z</time>
      </trkpt>
      <trkpt lat="43.70591" lon="3.46664">
        <ele>338</ele>
        <time>2017-03-22T07:34:56Z</time>
      </trkpt>
      <trkpt lat="43.70581" lon="3.46663">
        <ele>338.2</ele>
        <time>2017-03-22T07:34:58Z</time>
      </trkpt>
      <trkpt lat="43.7057" lon="3.46662">
        <ele>338.1</ele>
        <time>2017-03-22T07:35:00Z</time>
      </trkpt>
      <trkpt lat="43.70561" lon="3.4666">
        <ele>338.1</ele>
        <time>2017-03-22T07:35:02Z</time>
      </trkpt>
      <trkpt lat="43.70551" lon="3.46657">
        <ele>337.9</ele>
        <time>2017-03-22T07:35:04Z</time>
      </trkpt>
      <trkpt lat="43.70543" lon="3.46655">
        <ele>337.5</ele>
        <time>2017-03-22T07:35:06Z</time>
      </trkpt>
      <trkpt lat="43.70535" lon="3.46655">
        <ele>337.1</ele>
        <time>2017-03-22T07:35:08Z</time>
      </trkpt>
      <trkpt lat="43.70523" lon="3.46656">
        <ele>336.8</ele>
        <time>2017-03-22T07:35:11Z</time>
      </trkpt>
      <trkpt lat="43.70514" lon="3.46653">
        <ele>336.8</ele>
        <time>2017-03-22T07:35:13Z</time>
      </trkpt>
      <trkpt lat="43.70506" lon="3.46649">
        <ele>336.7</ele>
        <time>2017-03-22T07:35:15Z</time>
      </trkpt>
      <trkpt lat="43.70504" lon="3.46639">
        <ele>336.7</ele>
        <time>2017-03-22T07:35:19Z</time>
      </trkpt>
      <trkpt lat="43.70499" lon="3.46629">
        <ele>336.5</ele>
        <time>2017-03-22T07:35:23Z</time>
      </trkpt>
      <trkpt lat="43.70495" lon="3.46622">
        <ele>336.5</ele>
        <time>2017-03-22T07:35:26Z</time>
      </trkpt>
      <trkpt lat="43.70489" lon="3.46614">
        <ele>336.6</ele>
        <time>2017-03-22T07:35:30Z</time>
      </trkpt>
      <trkpt lat="43.70482" lon="3.46606">
        <ele>336.8</ele>
        <time>2017-03-22T07:35:34Z</time>
      </trkpt>
      <trkpt lat="43.70476" lon="3.46598">
        <ele>337</ele>
        <time>2017-03-22T07:35:38Z</time>
      </trkpt>
      <trkpt lat="43.7047" lon="3.46592">
        <ele>337.3</ele>
        <time>2017-03-22T07:35:42Z</time>
      </trkpt>
      <trkpt lat="43.70466" lon="3.46583">
        <ele>337.6</ele>
        <time>2017-03-22T07:35:46Z</time>
      </trkpt>
      <trkpt lat="43.70463" lon="3.46574">
        <ele>338</ele>
        <time>2017-03-22T07:35:51Z</time>
      </trkpt>
      <trkpt lat="43.70458" lon="3.46563">
        <ele>338.3</ele>
        <time>2017-03-22T07:35:55Z</time>
      </trkpt>
      <trkpt lat="43.70452" lon="3.46555">
        <ele>338.5</ele>
        <time>2017-03-22T07:35:58Z</time>
      </trkpt>
      <trkpt lat="43.70446" lon="3.46547">
        <ele>338.6</ele>
        <time>2017-03-22T07:36:01Z</time>
      </trkpt>
      <trkpt lat="43.7044" lon="3.46539">
        <ele>338.7</ele>
        <time>2017-03-22T07:36:04Z</time>
      </trkpt>
      <trkpt lat="43.70433" lon="3.46532">
        <ele>338.7</ele>
        <time>2017-03-22T07:36:07Z</time>
      </trkpt>
      <trkpt lat="43.70426" lon="3.46526">
        <ele>338.7</ele>
        <time>2017-03-22T07:36:10Z</time>
      </trkpt>
      <trkpt lat="43.70423" lon="3.46525">
        <ele>338.7</ele>
        <time>2017-03-22T07:36:17Z</time>
      </trkpt>
      <trkpt lat="43.70426" lon="3.4652">
        <ele>339.3</ele>
        <time>2017-03-22T07:36:54Z</time>
      </trkpt>
      <trkpt lat="43.70429" lon="3.46517">
        <ele>339.6</ele>
        <time>2017-03-22T07:37:04Z</time>
      </trkpt>
      <trkpt lat="43.70433" lon="3.46512">
        <ele>339.8</ele>
        <time>2017-03-22T07:37:11Z</time>
      </trkpt>
      <trkpt lat="43.70435" lon="3.4651">
        <ele>340.1</ele>
        <time>2017-03-22T07:37:18Z</time>
      </trkpt>
      <trkpt lat="43.70438" lon="3.46508">
        <ele>340</ele>
        <time>2017-03-22T07:37:52Z</time>
      </trkpt>
      <trkpt lat="43.70441" lon="3.46514">
        <ele>339.8</ele>
        <time>2017-03-22T07:38:02Z</time>
      </trkpt>
      <trkpt lat="43.70441" lon="3.46511">
        <ele>339.3</ele>
        <time>2017-03-22T07:38:09Z</time>
      </trkpt>
      <trkpt lat="43.70441" lon="3.4651">
        <ele>338.9</ele>
        <time>2017-03-22T07:38:24Z</time>
      </trkpt>
      <trkpt lat="43.70437" lon="3.46508">
        <ele>338.6</ele>
        <time>2017-03-22T07:38:31Z</time>
      </trkpt>
      <trkpt lat="43.7044" lon="3.46509">
        <ele>338.4</ele>
        <time>2017-03-22T07:38:38Z</time>
      </trkpt>
      <trkpt lat="43.70436" lon="3.46515">
        <ele>337.1</ele>
        <time>2017-03-22T07:38:45Z</time>
      </trkpt>
      <trkpt lat="43.7043" lon="3.4652">
        <ele>337.4</ele>
        <time>2017-03-22T07:38:52Z</time>
      </trkpt>
      <trkpt lat="43.70429" lon="3.46528">
        <ele>337.6</ele>
        <time>2017-03-22T07:38:59Z</time>
      </trkpt>
      <trkpt lat="43.70424" lon="3.46524">
        <ele>337.4</ele>
        <time>2017-03-22T07:39:06Z</time>
      </trkpt>
      <trkpt lat="43.70422" lon="3.46522">
        <ele>337.7</ele>
        <time>2017-03-22T07:39:13Z</time>
      </trkpt>
      <trkpt lat="43.70413" lon="3.46519">
        <ele>337.7</ele>
        <time>2017-03-22T07:39:17Z</time>
      </trkpt>
      <trkpt lat="43.70406" lon="3.46519">
        <ele>337.4</ele>
        <time>2017-03-22T07:39:19Z</time>
      </trkpt>
      <trkpt lat="43.70397" lon="3.46519">
        <ele>337.5</ele>
        <time>2017-03-22T07:39:21Z</time>
      </trkpt>
      <trkpt lat="43.70387" lon="3.46514">
        <ele>338.6</ele>
        <time>2017-03-22T07:39:23Z</time>
      </trkpt>
      <trkpt lat="43.70378" lon="3.4651">
        <ele>340</ele>
        <time>2017-03-22T07:39:25Z</time>
      </trkpt>
      <trkpt lat="43.70369" lon="3.46507">
        <ele>340.6</ele>
        <time>2017-03-22T07:39:27Z</time>
      </trkpt>
      <trkpt lat="43.70359" lon="3.46503">
        <ele>340.7</ele>
        <time>2017-03-22T07:39:29Z</time>
      </trkpt>
      <trkpt lat="43.7035" lon="3.465">
        <ele>340.6</ele>
        <time>2017-03-22T07:39:31Z</time>
      </trkpt>
      <trkpt lat="43.70341" lon="3.46498">
        <ele>340.2</ele>
        <time>2017-03-22T07:39:33Z</time>
      </trkpt>
      <trkpt lat="43.70331" lon="3.46495">
        <ele>339.4</ele>
        <time>2017-03-22T07:39:35Z</time>
      </trkpt>
      <trkpt lat="43.70322" lon="3.46494">
        <ele>337.9</ele>
        <time>2017-03-22T07:39:37Z</time>
      </trkpt>
      <trkpt lat="43.70315" lon="3.46494">
        <ele>336.9</ele>
        <time>2017-03-22T07:39:39Z</time>
      </trkpt>
      <trkpt lat="43.70303" lon="3.46493">
        <ele>336.9</ele>
        <time>2017-03-22T07:39:42Z</time>
      </trkpt>
      <trkpt lat="43.70295" lon="3.46493">
        <ele>337.6</ele>
        <time>2017-03-22T07:39:44Z</time>
      </trkpt>
      <trkpt lat="43.70288" lon="3.46494">
        <ele>337.6</ele>
        <time>2017-03-22T07:39:46Z</time>
      </trkpt>
      <trkpt lat="43.70278" lon="3.46496">
        <ele>337.7</ele>
        <time>2017-03-22T07:39:49Z</time>
      </trkpt>
      <trkpt lat="43.7027" lon="3.46497">
        <ele>337.8</ele>
        <time>2017-03-22T07:39:51Z</time>
      </trkpt>
      <trkpt lat="43.70263" lon="3.46499">
        <ele>337.8</ele>
        <time>2017-03-22T07:39:53Z</time>
      </trkpt>
      <trkpt lat="43.70256" lon="3.465">
        <ele>337.9</ele>
        <time>2017-03-22T07:39:55Z</time>
      </trkpt>
      <trkpt lat="43.70245" lon="3.465">
        <ele>338</ele>
        <time>2017-03-22T07:39:58Z</time>
      </trkpt>
      <trkpt lat="43.70237" lon="3.46499">
        <ele>338.2</ele>
        <time>2017-03-22T07:40:00Z</time>
      </trkpt>
      <trkpt lat="43.70227" lon="3.46499">
        <ele>338.2</ele>
        <time>2017-03-22T07:40:03Z</time>
      </trkpt>
      <trkpt lat="43.70217" lon="3.46498">
        <ele>338.2</ele>
        <time>2017-03-22T07:40:06Z</time>
      </trkpt>
      <trkpt lat="43.70207" lon="3.46498">
        <ele>338.2</ele>
        <time>2017-03-22T07:40:09Z</time>
      </trkpt>
      <trkpt lat="43.70198" lon="3.46498">
        <ele>338.2</ele>
        <time>2017-03-22T07:40:12Z</time>
      </trkpt>
      <trkpt lat="43.70188" lon="3.46498">
        <ele>338.2</ele>
        <time>2017-03-22T07:40:15Z</time>
      </trkpt>
      <trkpt lat="43.70178" lon="3.46498">
        <ele>338.3</ele>
        <time>2017-03-22T07:40:18Z</time>
      </trkpt>
      <trkpt lat="43.70168" lon="3.46497">
        <ele>338.3</ele>
        <time>2017-03-22T07:40:21Z</time>
      </trkpt>
      <trkpt lat="43.70157" lon="3.46495">
        <ele>338.5</ele>
        <time>2017-03-22T07:40:24Z</time>
      </trkpt>
      <trkpt lat="43.70148" lon="3.46494">
        <ele>338.7</ele>
        <time>2017-03-22T07:40:27Z</time>
      </trkpt>
      <trkpt lat="43.70139" lon="3.46491">
        <ele>339.1</ele>
        <time>2017-03-22T07:40:30Z</time>
      </trkpt>
      <trkpt lat="43.70129" lon="3.46487">
        <ele>339.4</ele>
        <time>2017-03-22T07:40:33Z</time>
      </trkpt>
      <trkpt lat="43.7012" lon="3.46483">
        <ele>339.9</ele>
        <time>2017-03-22T07:40:36Z</time>
      </trkpt>
      <trkpt lat="43.70112" lon="3.46477">
        <ele>340.5</ele>
        <time>2017-03-22T07:40:39Z</time>
      </trkpt>
      <trkpt lat="43.70102" lon="3.46471">
        <ele>340.9</ele>
        <time>2017-03-22T07:40:42Z</time>
      </trkpt>
      <trkpt lat="43.70094" lon="3.46465">
        <ele>341.4</ele>
        <time>2017-03-22T07:40:45Z</time>
      </trkpt>
      <trkpt lat="43.70086" lon="3.46459">
        <ele>341.9</ele>
        <time>2017-03-22T07:40:48Z</time>
      </trkpt>
      <trkpt lat="43.70079" lon="3.46449">
        <ele>342.3</ele>
        <time>2017-03-22T07:40:51Z</time>
      </trkpt>
      <trkpt lat="43.70076" lon="3.46436">
        <ele>342.7</ele>
        <time>2017-03-22T07:40:54Z</time>
      </trkpt>
      <trkpt lat="43.70076" lon="3.46421">
        <ele>344.4</ele>
        <time>2017-03-22T07:40:57Z</time>
      </trkpt>
      <trkpt lat="43.70077" lon="3.4641">
        <ele>346.6</ele>
        <time>2017-03-22T07:40:59Z</time>
      </trkpt>
      <trkpt lat="43.70078" lon="3.46398">
        <ele>347.9</ele>
        <time>2017-03-22T07:41:01Z</time>
      </trkpt>
      <trkpt lat="43.70079" lon="3.46387">
        <ele>348.9</ele>
        <time>2017-03-22T07:41:03Z</time>
      </trkpt>
      <trkpt lat="43.7008" lon="3.46376">
        <ele>349.4</ele>
        <time>2017-03-22T07:41:05Z</time>
      </trkpt>
      <trkpt lat="43.70079" lon="3.46364">
        <ele>349.6</ele>
        <time>2017-03-22T07:41:07Z</time>
      </trkpt>
      <trkpt lat="43.70077" lon="3.46351">
        <ele>349.8</ele>
        <time>2017-03-22T07:41:09Z</time>
      </trkpt>
      <trkpt lat="43.70073" lon="3.46338">
        <ele>349.6</ele>
        <time>2017-03-22T07:41:11Z</time>
      </trkpt>
      <trkpt lat="43.70067" lon="3.46325">
        <ele>349</ele>
        <time>2017-03-22T07:41:13Z</time>
      </trkpt>
      <trkpt lat="43.70061" lon="3.46311">
        <ele>348.3</ele>
        <time>2017-03-22T07:41:15Z</time>
      </trkpt>
      <trkpt lat="43.70055" lon="3.46298">
        <ele>346.9</ele>
        <time>2017-03-22T07:41:17Z</time>
      </trkpt>
      <trkpt lat="43.70051" lon="3.46286">
        <ele>344.7</ele>
        <time>2017-03-22T07:41:19Z</time>
      </trkpt>
      <trkpt lat="43.7005" lon="3.46276">
        <ele>343.8</ele>
        <time>2017-03-22T07:41:21Z</time>
      </trkpt>
      <trkpt lat="43.70046" lon="3.46265">
        <ele>342.6</ele>
        <time>2017-03-22T07:41:40Z</time>
      </trkpt>
      <trkpt lat="43.70043" lon="3.46265">
        <ele>341.6</ele>
        <time>2017-03-22T07:41:47Z</time>
      </trkpt>
      <trkpt lat="43.70045" lon="3.46265">
        <ele>341.2</ele>
        <time>2017-03-22T07:41:54Z</time>
      </trkpt>
      <trkpt lat="43.70044" lon="3.46264">
        <ele>338.8</ele>
        <time>2017-03-22T07:42:41Z</time>
      </trkpt>
      <trkpt lat="43.70056" lon="3.46258">
        <ele>335.4</ele>
        <time>2017-03-22T07:45:28Z</time>
      </trkpt>
      <trkpt lat="43.70058" lon="3.46261">
        <ele>335.3</ele>
        <time>2017-03-22T07:45:35Z</time>
      </trkpt>
      <trkpt lat="43.70054" lon="3.46261">
        <ele>335.7</ele>
        <time>2017-03-22T07:45:42Z</time>
      </trkpt>
      <trkpt lat="43.70047" lon="3.46265">
        <ele>336</ele>
        <time>2017-03-22T07:45:48Z</time>
      </trkpt>
      <trkpt lat="43.70046" lon="3.46269">
        <ele>336</ele>
        <time>2017-03-22T07:45:55Z</time>
      </trkpt>
      <trkpt lat="43.70046" lon="3.46266">
        <ele>335.5</ele>
        <time>2017-03-22T07:46:02Z</time>
      </trkpt>
      <trkpt lat="43.70049" lon="3.46256">
        <ele>335.1</ele>
        <time>2017-03-22T07:46:06Z</time>
      </trkpt>
      <trkpt lat="43.7005" lon="3.46251">
        <ele>334.5</ele>
        <time>2017-03-22T07:46:13Z</time>
      </trkpt>
      <trkpt lat="43.70058" lon="3.46252">
        <ele>334.1</ele>
        <time>2017-03-22T07:46:19Z</time>
      </trkpt>
      <trkpt lat="43.70062" lon="3.46257">
        <ele>334.1</ele>
        <time>2017-03-22T07:46:26Z</time>
      </trkpt>
      <trkpt lat="43.70058" lon="3.46266">
        <ele>334</ele>
        <time>2017-03-22T07:46:32Z</time>
      </trkpt>
      <trkpt lat="43.7005" lon="3.46266">
        <ele>333.9</ele>
        <time>2017-03-22T07:46:37Z</time>
      </trkpt>
      <trkpt lat="43.70042" lon="3.46266">
        <ele>333.9</ele>
        <time>2017-03-22T07:46:40Z</time>
      </trkpt>
      <trkpt lat="43.70034" lon="3.46265">
        <ele>333.9</ele>
        <time>2017-03-22T07:46:43Z</time>
      </trkpt>
      <trkpt lat="43.70026" lon="3.46265">
        <ele>333.9</ele>
        <time>2017-03-22T07:46:46Z</time>
      </trkpt>
      <trkpt lat="43.70017" lon="3.46267">
        <ele>333.9</ele>
        <time>2017-03-22T07:46:49Z</time>
      </trkpt>
      <trkpt lat="43.70007" lon="3.46269">
        <ele>333.8</ele>
        <time>2017-03-22T07:46:52Z</time>
      </trkpt>
      <trkpt lat="43.69998" lon="3.4627">
        <ele>333.8</ele>
        <time>2017-03-22T07:46:55Z</time>
      </trkpt>
      <trkpt lat="43.6999" lon="3.4627">
        <ele>333.8</ele>
        <time>2017-03-22T07:46:58Z</time>
      </trkpt>
      <trkpt lat="43.69981" lon="3.4627">
        <ele>333.7</ele>
        <time>2017-03-22T07:47:01Z</time>
      </trkpt>
      <trkpt lat="43.6997" lon="3.46268">
        <ele>333.7</ele>
        <time>2017-03-22T07:47:04Z</time>
      </trkpt>
      <trkpt lat="43.6996" lon="3.46264">
        <ele>333.6</ele>
        <time>2017-03-22T07:47:07Z</time>
      </trkpt>
      <trkpt lat="43.6995" lon="3.4626">
        <ele>333.7</ele>
        <time>2017-03-22T07:47:10Z</time>
      </trkpt>
      <trkpt lat="43.69941" lon="3.46255">
        <ele>333.9</ele>
        <time>2017-03-22T07:47:13Z</time>
      </trkpt>
      <trkpt lat="43.69931" lon="3.4625">
        <ele>334</ele>
        <time>2017-03-22T07:47:16Z</time>
      </trkpt>
      <trkpt lat="43.69924" lon="3.46246">
        <ele>334.3</ele>
        <time>2017-03-22T07:47:18Z</time>
      </trkpt>
      <trkpt lat="43.69917" lon="3.46242">
        <ele>334</ele>
        <time>2017-03-22T07:47:20Z</time>
      </trkpt>
      <trkpt lat="43.6991" lon="3.46238">
        <ele>333.5</ele>
        <time>2017-03-22T07:47:22Z</time>
      </trkpt>
      <trkpt lat="43.69902" lon="3.46232">
        <ele>333</ele>
        <time>2017-03-22T07:47:24Z</time>
      </trkpt>
      <trkpt lat="43.69894" lon="3.46225">
        <ele>332.3</ele>
        <time>2017-03-22T07:47:26Z</time>
      </trkpt>
      <trkpt lat="43.69888" lon="3.46218">
        <ele>332.2</ele>
        <time>2017-03-22T07:47:28Z</time>
      </trkpt>
      <trkpt lat="43.69882" lon="3.46208">
        <ele>331.7</ele>
        <time>2017-03-22T07:47:30Z</time>
      </trkpt>
      <trkpt lat="43.69877" lon="3.46195">
        <ele>331.6</ele>
        <time>2017-03-22T07:47:32Z</time>
      </trkpt>
      <trkpt lat="43.69872" lon="3.4618">
        <ele>330.8</ele>
        <time>2017-03-22T07:47:34Z</time>
      </trkpt>
      <trkpt lat="43.69867" lon="3.46164">
        <ele>329.8</ele>
        <time>2017-03-22T07:47:36Z</time>
      </trkpt>
      <trkpt lat="43.69862" lon="3.46146">
        <ele>329.5</ele>
        <time>2017-03-22T07:47:38Z</time>
      </trkpt>
      <trkpt lat="43.6986" lon="3.46136">
        <ele>329.8</ele>
        <time>2017-03-22T07:47:39Z</time>
      </trkpt>
      <trkpt lat="43.69858" lon="3.46127">
        <ele>330.1</ele>
        <time>2017-03-22T07:47:40Z</time>
      </trkpt>
      <trkpt lat="43.69855" lon="3.46118">
        <ele>330.4</ele>
        <time>2017-03-22T07:47:41Z</time>
      </trkpt>
      <trkpt lat="43.69849" lon="3.461">
        <ele>330.6</ele>
        <time>2017-03-22T07:47:43Z</time>
      </trkpt>
      <trkpt lat="43.69844" lon="3.46092">
        <ele>330.6</ele>
        <time>2017-03-22T07:47:44Z</time>
      </trkpt>
      <trkpt lat="43.69838" lon="3.46085">
        <ele>330.2</ele>
        <time>2017-03-22T07:47:45Z</time>
      </trkpt>
      <trkpt lat="43.69831" lon="3.46079">
        <ele>330</ele>
        <time>2017-03-22T07:47:46Z</time>
      </trkpt>
      <trkpt lat="43.69824" lon="3.46072">
        <ele>329.4</ele>
        <time>2017-03-22T07:47:47Z</time>
      </trkpt>
      <trkpt lat="43.69816" lon="3.46066">
        <ele>328.5</ele>
        <time>2017-03-22T07:47:48Z</time>
      </trkpt>
      <trkpt lat="43.69809" lon="3.4606">
        <ele>327.4</ele>
        <time>2017-03-22T07:47:49Z</time>
      </trkpt>
      <trkpt lat="43.69804" lon="3.46054">
        <ele>326.2</ele>
        <time>2017-03-22T07:47:50Z</time>
      </trkpt>
      <trkpt lat="43.69794" lon="3.46043">
        <ele>323.9</ele>
        <time>2017-03-22T07:47:52Z</time>
      </trkpt>
      <trkpt lat="43.69789" lon="3.46036">
        <ele>323.1</ele>
        <time>2017-03-22T07:47:54Z</time>
      </trkpt>
      <trkpt lat="43.69787" lon="3.46028">
        <ele>322.8</ele>
        <time>2017-03-22T07:48:01Z</time>
      </trkpt>
      <trkpt lat="43.6979" lon="3.46008">
        <ele>321</ele>
        <time>2017-03-22T07:48:24Z</time>
      </trkpt>
      <trkpt lat="43.6979" lon="3.46006">
        <ele>320.6</ele>
        <time>2017-03-22T07:48:31Z</time>
      </trkpt>
      <trkpt lat="43.69796" lon="3.46">
        <ele>319.4</ele>
        <time>2017-03-22T07:48:47Z</time>
      </trkpt>
      <trkpt lat="43.69801" lon="3.45993">
        <ele>318.2</ele>
        <time>2017-03-22T07:48:52Z</time>
      </trkpt>
      <trkpt lat="43.69801" lon="3.45982">
        <ele>317.3</ele>
        <time>2017-03-22T07:48:55Z</time>
      </trkpt>
      <trkpt lat="43.69801" lon="3.45971">
        <ele>313.5</ele>
        <time>2017-03-22T07:48:58Z</time>
      </trkpt>
      <trkpt lat="43.69811" lon="3.45963">
        <ele>310</ele>
        <time>2017-03-22T07:49:02Z</time>
      </trkpt>
      <trkpt lat="43.69816" lon="3.45953">
        <ele>306</ele>
        <time>2017-03-22T07:49:04Z</time>
      </trkpt>
      <trkpt lat="43.6982" lon="3.45941">
        <ele>305.6</ele>
        <time>2017-03-22T07:49:07Z</time>
      </trkpt>
      <trkpt lat="43.69821" lon="3.45931">
        <ele>305</ele>
        <time>2017-03-22T07:49:10Z</time>
      </trkpt>
      <trkpt lat="43.69824" lon="3.4592">
        <ele>304</ele>
        <time>2017-03-22T07:49:15Z</time>
      </trkpt>
      <trkpt lat="43.69832" lon="3.45913">
        <ele>303.2</ele>
        <time>2017-03-22T07:49:19Z</time>
      </trkpt>
      <trkpt lat="43.69839" lon="3.45907">
        <ele>302.2</ele>
        <time>2017-03-22T07:49:23Z</time>
      </trkpt>
      <trkpt lat="43.69846" lon="3.459">
        <ele>300.4</ele>
        <time>2017-03-22T07:49:28Z</time>
      </trkpt>
      <trkpt lat="43.6985" lon="3.45891">
        <ele>298.4</ele>
        <time>2017-03-22T07:49:33Z</time>
      </trkpt>
      <trkpt lat="43.69857" lon="3.45873">
        <ele>290.4</ele>
        <time>2017-03-22T07:50:14Z</time>
      </trkpt>
      <trkpt lat="43.69865" lon="3.45874">
        <ele>288.6</ele>
        <time>2017-03-22T07:50:19Z</time>
      </trkpt>
      <trkpt lat="43.69871" lon="3.4588">
        <ele>287.6</ele>
        <time>2017-03-22T07:50:22Z</time>
      </trkpt>
      <trkpt lat="43.69877" lon="3.45887">
        <ele>286.5</ele>
        <time>2017-03-22T07:50:26Z</time>
      </trkpt>
      <trkpt lat="43.69885" lon="3.4589">
        <ele>279.3</ele>
        <time>2017-03-22T07:50:30Z</time>
      </trkpt>
      <trkpt lat="43.69894" lon="3.4589">
        <ele>278.5</ele>
        <time>2017-03-22T07:50:33Z</time>
      </trkpt>
      <trkpt lat="43.69903" lon="3.45886">
        <ele>273.5</ele>
        <time>2017-03-22T07:50:35Z</time>
      </trkpt>
      <trkpt lat="43.69911" lon="3.45875">
        <ele>271.5</ele>
        <time>2017-03-22T07:50:37Z</time>
      </trkpt>
      <trkpt lat="43.69916" lon="3.45866">
        <ele>271.4</ele>
        <time>2017-03-22T07:50:40Z</time>
      </trkpt>
      <trkpt lat="43.69926" lon="3.45871">
        <ele>271.1</ele>
        <time>2017-03-22T07:50:45Z</time>
      </trkpt>
      <trkpt lat="43.69931" lon="3.45878">
        <ele>268.9</ele>
        <time>2017-03-22T07:50:47Z</time>
      </trkpt>
      <trkpt lat="43.69938" lon="3.45883">
        <ele>267.2</ele>
        <time>2017-03-22T07:50:49Z</time>
      </trkpt>
      <trkpt lat="43.69947" lon="3.45882">
        <ele>266.5</ele>
        <time>2017-03-22T07:50:52Z</time>
      </trkpt>
      <trkpt lat="43.69954" lon="3.45881">
        <ele>264.1</ele>
        <time>2017-03-22T07:50:54Z</time>
      </trkpt>
      <trkpt lat="43.69963" lon="3.45875">
        <ele>263.3</ele>
        <time>2017-03-22T07:50:58Z</time>
      </trkpt>
      <trkpt lat="43.69968" lon="3.45868">
        <ele>262.8</ele>
        <time>2017-03-22T07:51:01Z</time>
      </trkpt>
      <trkpt lat="43.69969" lon="3.45856">
        <ele>262.1</ele>
        <time>2017-03-22T07:51:04Z</time>
      </trkpt>
      <trkpt lat="43.69972" lon="3.45845">
        <ele>261</ele>
        <time>2017-03-22T07:51:08Z</time>
      </trkpt>
      <trkpt lat="43.69976" lon="3.45834">
        <ele>260.3</ele>
        <time>2017-03-22T07:51:11Z</time>
      </trkpt>
      <trkpt lat="43.69977" lon="3.45824">
        <ele>259.4</ele>
        <time>2017-03-22T07:51:14Z</time>
      </trkpt>
      <trkpt lat="43.69983" lon="3.45814">
        <ele>258.4</ele>
        <time>2017-03-22T07:51:17Z</time>
      </trkpt>
      <trkpt lat="43.69986" lon="3.45805">
        <ele>254.5</ele>
        <time>2017-03-22T07:51:19Z</time>
      </trkpt>
      <trkpt lat="43.69996" lon="3.458">
        <ele>252.9</ele>
        <time>2017-03-22T07:51:24Z</time>
      </trkpt>
      <trkpt lat="43.70004" lon="3.45798">
        <ele>252</ele>
        <time>2017-03-22T07:51:27Z</time>
      </trkpt>
      <trkpt lat="43.7001" lon="3.45803">
        <ele>251.1</ele>
        <time>2017-03-22T07:51:30Z</time>
      </trkpt>
      <trkpt lat="43.70017" lon="3.4581">
        <ele>249.9</ele>
        <time>2017-03-22T07:51:34Z</time>
      </trkpt>
      <trkpt lat="43.70026" lon="3.45812">
        <ele>248.6</ele>
        <time>2017-03-22T07:51:39Z</time>
      </trkpt>
      <trkpt lat="43.70034" lon="3.4581">
        <ele>246.4</ele>
        <time>2017-03-22T07:51:41Z</time>
      </trkpt>
      <trkpt lat="43.70043" lon="3.45812">
        <ele>245.9</ele>
        <time>2017-03-22T07:51:44Z</time>
      </trkpt>
      <trkpt lat="43.70052" lon="3.45815">
        <ele>245.2</ele>
        <time>2017-03-22T07:51:48Z</time>
      </trkpt>
      <trkpt lat="43.7006" lon="3.45816">
        <ele>244.6</ele>
        <time>2017-03-22T07:51:53Z</time>
      </trkpt>
      <trkpt lat="43.70067" lon="3.45815">
        <ele>243.5</ele>
        <time>2017-03-22T07:51:55Z</time>
      </trkpt>
      <trkpt lat="43.70069" lon="3.45812">
        <ele>243</ele>
        <time>2017-03-22T07:52:02Z</time>
      </trkpt>
      <trkpt lat="43.70062" lon="3.45814">
        <ele>244.4</ele>
        <time>2017-03-22T07:51:50Z</time>
      </trkpt>
      <trkpt lat="43.70054" lon="3.45814">
        <ele>244.3</ele>
        <time>2017-03-22T07:52:59Z</time>
      </trkpt>
      <trkpt lat="43.70054" lon="3.45812">
        <ele>244.3</ele>
        <time>2017-03-22T07:53:06Z</time>
      </trkpt>
      <trkpt lat="43.70056" lon="3.45807">
        <ele>243.5</ele>
        <time>2017-03-22T07:53:18Z</time>
      </trkpt>
      <trkpt lat="43.70057" lon="3.45806">
        <ele>243</ele>
        <time>2017-03-22T07:53:25Z</time>
      </trkpt>
      <trkpt lat="43.70051" lon="3.45791">
        <ele>242.4</ele>
        <time>2017-03-22T07:53:39Z</time>
      </trkpt>
      <trkpt lat="43.70048" lon="3.4578">
        <ele>242.3</ele>
        <time>2017-03-22T07:53:42Z</time>
      </trkpt>
      <trkpt lat="43.70046" lon="3.45774">
        <ele>242</ele>
        <time>2017-03-22T07:53:49Z</time>
      </trkpt>
      <trkpt lat="43.70044" lon="3.45773">
        <ele>241.7</ele>
        <time>2017-03-22T07:53:56Z</time>
      </trkpt>
      <trkpt lat="43.7004" lon="3.45773">
        <ele>241.2</ele>
        <time>2017-03-22T07:54:03Z</time>
      </trkpt>
      <trkpt lat="43.70033" lon="3.45773">
        <ele>240.5</ele>
        <time>2017-03-22T07:54:10Z</time>
      </trkpt>
      <trkpt lat="43.70032" lon="3.45775">
        <ele>240</ele>
        <time>2017-03-22T07:54:17Z</time>
      </trkpt>
      <trkpt lat="43.70024" lon="3.45783">
        <ele>239.8</ele>
        <time>2017-03-22T07:54:23Z</time>
      </trkpt>
      <trkpt lat="43.7002" lon="3.45791">
        <ele>239.4</ele>
        <time>2017-03-22T07:54:27Z</time>
      </trkpt>
      <trkpt lat="43.70013" lon="3.45801">
        <ele>236.6</ele>
        <time>2017-03-22T07:54:31Z</time>
      </trkpt>
      <trkpt lat="43.70008" lon="3.45809">
        <ele>236.4</ele>
        <time>2017-03-22T07:54:33Z</time>
      </trkpt>
      <trkpt lat="43.70001" lon="3.45801">
        <ele>236.2</ele>
        <time>2017-03-22T07:54:38Z</time>
      </trkpt>
      <trkpt lat="43.69997" lon="3.4579">
        <ele>235.8</ele>
        <time>2017-03-22T07:54:41Z</time>
      </trkpt>
      <trkpt lat="43.69998" lon="3.4578">
        <ele>236.2</ele>
        <time>2017-03-22T07:54:44Z</time>
      </trkpt>
      <trkpt lat="43.69998" lon="3.45769">
        <ele>235.7</ele>
        <time>2017-03-22T07:54:47Z</time>
      </trkpt>
      <trkpt lat="43.69997" lon="3.45759">
        <ele>234.8</ele>
        <time>2017-03-22T07:54:49Z</time>
      </trkpt>
      <trkpt lat="43.69989" lon="3.45756">
        <ele>234.6</ele>
        <time>2017-03-22T07:54:54Z</time>
      </trkpt>
      <trkpt lat="43.69988" lon="3.45745">
        <ele>234.5</ele>
        <time>2017-03-22T07:55:01Z</time>
      </trkpt>
      <trkpt lat="43.69988" lon="3.45742">
        <ele>234</ele>
        <time>2017-03-22T07:55:16Z</time>
      </trkpt>
      <trkpt lat="43.69985" lon="3.45744">
        <ele>234</ele>
        <time>2017-03-22T07:55:23Z</time>
      </trkpt>
      <trkpt lat="43.69985" lon="3.45745">
        <ele>233.9</ele>
        <time>2017-03-22T07:55:30Z</time>
      </trkpt>
      <trkpt lat="43.69992" lon="3.45739">
        <ele>234.5</ele>
        <time>2017-03-22T07:55:36Z</time>
      </trkpt>
      <trkpt lat="43.69994" lon="3.45724">
        <ele>236.1</ele>
        <time>2017-03-22T07:55:39Z</time>
      </trkpt>
      <trkpt lat="43.7" lon="3.45718">
        <ele>235.8</ele>
        <time>2017-03-22T07:55:43Z</time>
      </trkpt>
      <trkpt lat="43.70005" lon="3.4571">
        <ele>235.4</ele>
        <time>2017-03-22T07:55:46Z</time>
      </trkpt>
      <trkpt lat="43.70011" lon="3.45699">
        <ele>233</ele>
        <time>2017-03-22T07:55:49Z</time>
      </trkpt>
      <trkpt lat="43.70015" lon="3.4569">
        <ele>232.3</ele>
        <time>2017-03-22T07:55:53Z</time>
      </trkpt>
      <trkpt lat="43.70015" lon="3.45678">
        <ele>231</ele>
        <time>2017-03-22T07:56:00Z</time>
      </trkpt>
      <trkpt lat="43.70012" lon="3.45672">
        <ele>229.9</ele>
        <time>2017-03-22T07:56:07Z</time>
      </trkpt>
      <trkpt lat="43.70008" lon="3.45663">
        <ele>229.6</ele>
        <time>2017-03-22T07:56:12Z</time>
      </trkpt>
      <trkpt lat="43.70006" lon="3.45651">
        <ele>229.9</ele>
        <time>2017-03-22T07:56:17Z</time>
      </trkpt>
      <trkpt lat="43.70003" lon="3.45638">
        <ele>231.1</ele>
        <time>2017-03-22T07:56:23Z</time>
      </trkpt>
      <trkpt lat="43.69998" lon="3.45631">
        <ele>230.5</ele>
        <time>2017-03-22T07:56:30Z</time>
      </trkpt>
      <trkpt lat="43.69997" lon="3.45633">
        <ele>229.9</ele>
        <time>2017-03-22T07:56:37Z</time>
      </trkpt>
      <trkpt lat="43.69998" lon="3.45631">
        <ele>230.5</ele>
        <time>2017-03-22T07:56:56Z</time>
      </trkpt>
      <trkpt lat="43.69998" lon="3.45632">
        <ele>230.3</ele>
        <time>2017-03-22T07:57:03Z</time>
      </trkpt>
      <trkpt lat="43.70002" lon="3.45636">
        <ele>229.4</ele>
        <time>2017-03-22T07:57:12Z</time>
      </trkpt>
      <trkpt lat="43.70002" lon="3.45631">
        <ele>228.5</ele>
        <time>2017-03-22T07:57:23Z</time>
      </trkpt>
      <trkpt lat="43.69995" lon="3.45632">
        <ele>229.4</ele>
        <time>2017-03-22T07:57:42Z</time>
      </trkpt>
      <trkpt lat="43.69996" lon="3.45631">
        <ele>229.9</ele>
        <time>2017-03-22T07:57:49Z</time>
      </trkpt>
      <trkpt lat="43.69996" lon="3.45633">
        <ele>230.2</ele>
        <time>2017-03-22T07:57:56Z</time>
      </trkpt>
      <trkpt lat="43.69992" lon="3.45633">
        <ele>229.9</ele>
        <time>2017-03-22T07:58:03Z</time>
      </trkpt>
      <trkpt lat="43.69989" lon="3.45641">
        <ele>228.7</ele>
        <time>2017-03-22T07:58:10Z</time>
      </trkpt>
      <trkpt lat="43.69981" lon="3.45639">
        <ele>228.1</ele>
        <time>2017-03-22T07:58:14Z</time>
      </trkpt>
      <trkpt lat="43.69973" lon="3.45642">
        <ele>227.8</ele>
        <time>2017-03-22T07:58:16Z</time>
      </trkpt>
      <trkpt lat="43.69965" lon="3.45647">
        <ele>227.1</ele>
        <time>2017-03-22T07:58:20Z</time>
      </trkpt>
      <trkpt lat="43.69955" lon="3.45649">
        <ele>226</ele>
        <time>2017-03-22T07:58:23Z</time>
      </trkpt>
      <trkpt lat="43.69945" lon="3.45647">
        <ele>225</ele>
        <time>2017-03-22T07:58:26Z</time>
      </trkpt>
      <trkpt lat="43.69945" lon="3.45642">
        <ele>224.7</ele>
        <time>2017-03-22T07:58:33Z</time>
      </trkpt>
      <trkpt lat="43.69944" lon="3.45637">
        <ele>225</ele>
        <time>2017-03-22T07:58:47Z</time>
      </trkpt>
      <trkpt lat="43.69946" lon="3.45636">
        <ele>225.1</ele>
        <time>2017-03-22T07:58:54Z</time>
      </trkpt>
      <trkpt lat="43.69942" lon="3.45637">
        <ele>225.7</ele>
        <time>2017-03-22T07:59:01Z</time>
      </trkpt>
      <trkpt lat="43.69941" lon="3.45624">
        <ele>223.4</ele>
        <time>2017-03-22T07:59:07Z</time>
      </trkpt>
      <trkpt lat="43.69939" lon="3.45613">
        <ele>220.9</ele>
        <time>2017-03-22T07:59:09Z</time>
      </trkpt>
      <trkpt lat="43.69941" lon="3.45603">
        <ele>220</ele>
        <time>2017-03-22T07:59:13Z</time>
      </trkpt>
      <trkpt lat="43.69943" lon="3.45603">
        <ele>219.2</ele>
        <time>2017-03-22T07:59:20Z</time>
      </trkpt>
      <trkpt lat="43.69946" lon="3.45598">
        <ele>218.7</ele>
        <time>2017-03-22T07:59:35Z</time>
      </trkpt>
      <trkpt lat="43.69944" lon="3.456">
        <ele>218.8</ele>
        <time>2017-03-22T07:59:42Z</time>
      </trkpt>
      <trkpt lat="43.69941" lon="3.45604">
        <ele>219.1</ele>
        <time>2017-03-22T07:59:49Z</time>
      </trkpt>
      <trkpt lat="43.69939" lon="3.4561">
        <ele>219.5</ele>
        <time>2017-03-22T08:00:10Z</time>
      </trkpt>
      <trkpt lat="43.69939" lon="3.4562">
        <ele>219.2</ele>
        <time>2017-03-22T08:00:17Z</time>
      </trkpt>
      <trkpt lat="43.69938" lon="3.45631">
        <ele>218.7</ele>
        <time>2017-03-22T08:00:23Z</time>
      </trkpt>
      <trkpt lat="43.69943" lon="3.45634">
        <ele>218.4</ele>
        <time>2017-03-22T08:00:30Z</time>
      </trkpt>
      <trkpt lat="43.69945" lon="3.45639">
        <ele>218.9</ele>
        <time>2017-03-22T08:00:37Z</time>
      </trkpt>
      <trkpt lat="43.69945" lon="3.45644">
        <ele>220.1</ele>
        <time>2017-03-22T08:00:44Z</time>
      </trkpt>
      <trkpt lat="43.69948" lon="3.45646">
        <ele>220.5</ele>
        <time>2017-03-22T08:00:51Z</time>
      </trkpt>
      <trkpt lat="43.69958" lon="3.45648">
        <ele>220.4</ele>
        <time>2017-03-22T08:01:00Z</time>
      </trkpt>
      <trkpt lat="43.69963" lon="3.45647">
        <ele>221.2</ele>
        <time>2017-03-22T08:01:07Z</time>
      </trkpt>
      <trkpt lat="43.69968" lon="3.4564">
        <ele>221.6</ele>
        <time>2017-03-22T08:01:10Z</time>
      </trkpt>
      <trkpt lat="43.69976" lon="3.45636">
        <ele>222.3</ele>
        <time>2017-03-22T08:01:16Z</time>
      </trkpt>
      <trkpt lat="43.69984" lon="3.45635">
        <ele>222.7</ele>
        <time>2017-03-22T08:01:21Z</time>
      </trkpt>
      <trkpt lat="43.69991" lon="3.45638">
        <ele>223</ele>
        <time>2017-03-22T08:01:26Z</time>
      </trkpt>
      <trkpt lat="43.69987" lon="3.45633">
        <ele>222.9</ele>
        <time>2017-03-22T08:01:40Z</time>
      </trkpt>
      <trkpt lat="43.69989" lon="3.45636">
        <ele>226</ele>
        <time>2017-03-22T08:01:47Z</time>
      </trkpt>
      <trkpt lat="43.69995" lon="3.45642">
        <ele>227.3</ele>
        <time>2017-03-22T08:01:54Z</time>
      </trkpt>
      <trkpt lat="43.69999" lon="3.4565">
        <ele>227.6</ele>
        <time>2017-03-22T08:01:59Z</time>
      </trkpt>
      <trkpt lat="43.70002" lon="3.45661">
        <ele>227.7</ele>
        <time>2017-03-22T08:02:03Z</time>
      </trkpt>
      <trkpt lat="43.70006" lon="3.45669">
        <ele>227.8</ele>
        <time>2017-03-22T08:02:09Z</time>
      </trkpt>
      <trkpt lat="43.70013" lon="3.45675">
        <ele>227.6</ele>
        <time>2017-03-22T08:02:12Z</time>
      </trkpt>
      <trkpt lat="43.70019" lon="3.45681">
        <ele>226.8</ele>
        <time>2017-03-22T08:02:19Z</time>
      </trkpt>
      <trkpt lat="43.7002" lon="3.45686">
        <ele>226.8</ele>
        <time>2017-03-22T08:02:26Z</time>
      </trkpt>
      <trkpt lat="43.70023" lon="3.45697">
        <ele>226.7</ele>
        <time>2017-03-22T08:02:33Z</time>
      </trkpt>
      <trkpt lat="43.70029" lon="3.45703">
        <ele>226.7</ele>
        <time>2017-03-22T08:02:36Z</time>
      </trkpt>
      <trkpt lat="43.70037" lon="3.4571">
        <ele>226.7</ele>
        <time>2017-03-22T08:02:39Z</time>
      </trkpt>
      <trkpt lat="43.70045" lon="3.45715">
        <ele>226.7</ele>
        <time>2017-03-22T08:02:42Z</time>
      </trkpt>
      <trkpt lat="43.70051" lon="3.45713">
        <ele>226.8</ele>
        <time>2017-03-22T08:02:49Z</time>
      </trkpt>
      <trkpt lat="43.70056" lon="3.45703">
        <ele>225.3</ele>
        <time>2017-03-22T08:02:53Z</time>
      </trkpt>
      <trkpt lat="43.70059" lon="3.45691">
        <ele>224.4</ele>
        <time>2017-03-22T08:02:55Z</time>
      </trkpt>
      <trkpt lat="43.70059" lon="3.45679">
        <ele>224.3</ele>
        <time>2017-03-22T08:02:58Z</time>
      </trkpt>
      <trkpt lat="43.7006" lon="3.45679">
        <ele>224.1</ele>
        <time>2017-03-22T08:03:05Z</time>
      </trkpt>
      <trkpt lat="43.7006" lon="3.45678">
        <ele>224.6</ele>
        <time>2017-03-22T08:03:15Z</time>
      </trkpt>
      <trkpt lat="43.70058" lon="3.45671">
        <ele>224.6</ele>
        <time>2017-03-22T08:03:22Z</time>
      </trkpt>
      <trkpt lat="43.70057" lon="3.45659">
        <ele>224.1</ele>
        <time>2017-03-22T08:03:27Z</time>
      </trkpt>
      <trkpt lat="43.70058" lon="3.45654">
        <ele>223.2</ele>
        <time>2017-03-22T08:03:34Z</time>
      </trkpt>
      <trkpt lat="43.70066" lon="3.4566">
        <ele>221.9</ele>
        <time>2017-03-22T08:03:40Z</time>
      </trkpt>
      <trkpt lat="43.70073" lon="3.45652">
        <ele>221.2</ele>
        <time>2017-03-22T08:03:45Z</time>
      </trkpt>
      <trkpt lat="43.70071" lon="3.45642">
        <ele>220.7</ele>
        <time>2017-03-22T08:03:49Z</time>
      </trkpt>
      <trkpt lat="43.70067" lon="3.45631">
        <ele>220.3</ele>
        <time>2017-03-22T08:03:52Z</time>
      </trkpt>
      <trkpt lat="43.70066" lon="3.45618">
        <ele>220.3</ele>
        <time>2017-03-22T08:03:55Z</time>
      </trkpt>
      <trkpt lat="43.7007" lon="3.45608">
        <ele>220.7</ele>
        <time>2017-03-22T08:03:59Z</time>
      </trkpt>
      <trkpt lat="43.70073" lon="3.45598">
        <ele>221.1</ele>
        <time>2017-03-22T08:04:04Z</time>
      </trkpt>
      <trkpt lat="43.70073" lon="3.45587">
        <ele>221.6</ele>
        <time>2017-03-22T08:04:09Z</time>
      </trkpt>
      <trkpt lat="43.70074" lon="3.45583">
        <ele>222.8</ele>
        <time>2017-03-22T08:04:16Z</time>
      </trkpt>
      <trkpt lat="43.70071" lon="3.45569">
        <ele>222.2</ele>
        <time>2017-03-22T08:04:42Z</time>
      </trkpt>
      <trkpt lat="43.70074" lon="3.45558">
        <ele>219.9</ele>
        <time>2017-03-22T08:04:44Z</time>
      </trkpt>
      <trkpt lat="43.70074" lon="3.45547">
        <ele>219</ele>
        <time>2017-03-22T08:04:46Z</time>
      </trkpt>
      <trkpt lat="43.70072" lon="3.45537">
        <ele>217.7</ele>
        <time>2017-03-22T08:04:48Z</time>
      </trkpt>
      <trkpt lat="43.70068" lon="3.45526">
        <ele>216.6</ele>
        <time>2017-03-22T08:04:50Z</time>
      </trkpt>
      <trkpt lat="43.70063" lon="3.45514">
        <ele>215.4</ele>
        <time>2017-03-22T08:04:53Z</time>
      </trkpt>
      <trkpt lat="43.70057" lon="3.45505">
        <ele>215.3</ele>
        <time>2017-03-22T08:04:56Z</time>
      </trkpt>
      <trkpt lat="43.70052" lon="3.45495">
        <ele>215.5</ele>
        <time>2017-03-22T08:04:59Z</time>
      </trkpt>
      <trkpt lat="43.70054" lon="3.45485">
        <ele>215.9</ele>
        <time>2017-03-22T08:05:03Z</time>
      </trkpt>
      <trkpt lat="43.70056" lon="3.45475">
        <ele>216.5</ele>
        <time>2017-03-22T08:05:06Z</time>
      </trkpt>
      <trkpt lat="43.70057" lon="3.45464">
        <ele>217.5</ele>
        <time>2017-03-22T08:05:12Z</time>
      </trkpt>
      <trkpt lat="43.70061" lon="3.45464">
        <ele>218.4</ele>
        <time>2017-03-22T08:05:19Z</time>
      </trkpt>
      <trkpt lat="43.7006" lon="3.4546">
        <ele>219.2</ele>
        <time>2017-03-22T08:05:26Z</time>
      </trkpt>
      <trkpt lat="43.70059" lon="3.45449">
        <ele>219.2</ele>
        <time>2017-03-22T08:05:30Z</time>
      </trkpt>
      <trkpt lat="43.7006" lon="3.45436">
        <ele>219.2</ele>
        <time>2017-03-22T08:05:34Z</time>
      </trkpt>
      <trkpt lat="43.70053" lon="3.45429">
        <ele>219.3</ele>
        <time>2017-03-22T08:05:39Z</time>
      </trkpt>
      <trkpt lat="43.70046" lon="3.45433">
        <ele>218.3</ele>
        <time>2017-03-22T08:05:42Z</time>
      </trkpt>
      <trkpt lat="43.70038" lon="3.45432">
        <ele>215.3</ele>
        <time>2017-03-22T08:05:44Z</time>
      </trkpt>
      <trkpt lat="43.70029" lon="3.45432">
        <ele>212.9</ele>
        <time>2017-03-22T08:05:46Z</time>
      </trkpt>
      <trkpt lat="43.70022" lon="3.45436">
        <ele>212.3</ele>
        <time>2017-03-22T08:05:49Z</time>
      </trkpt>
      <trkpt lat="43.70014" lon="3.45434">
        <ele>211.8</ele>
        <time>2017-03-22T08:05:52Z</time>
      </trkpt>
      <trkpt lat="43.70004" lon="3.45429">
        <ele>210.3</ele>
        <time>2017-03-22T08:05:55Z</time>
      </trkpt>
      <trkpt lat="43.69998" lon="3.4542">
        <ele>207.1</ele>
        <time>2017-03-22T08:05:57Z</time>
      </trkpt>
      <trkpt lat="43.69989" lon="3.45408">
        <ele>204</ele>
        <time>2017-03-22T08:05:59Z</time>
      </trkpt>
      <trkpt lat="43.69978" lon="3.45397">
        <ele>201</ele>
        <time>2017-03-22T08:06:01Z</time>
      </trkpt>
      <trkpt lat="43.69967" lon="3.45393">
        <ele>200.2</ele>
        <time>2017-03-22T08:06:03Z</time>
      </trkpt>
      <trkpt lat="43.69965" lon="3.45391">
        <ele>200.1</ele>
        <time>2017-03-22T08:06:10Z</time>
      </trkpt>
      <trkpt lat="43.69961" lon="3.45385">
        <ele>200.2</ele>
        <time>2017-03-22T08:06:17Z</time>
      </trkpt>
      <trkpt lat="43.69962" lon="3.4538">
        <ele>201.1</ele>
        <time>2017-03-22T08:06:24Z</time>
      </trkpt>
      <trkpt lat="43.69965" lon="3.45379">
        <ele>201.8</ele>
        <time>2017-03-22T08:06:41Z</time>
      </trkpt>
      <trkpt lat="43.69966" lon="3.45379">
        <ele>201.7</ele>
        <time>2017-03-22T08:06:48Z</time>
      </trkpt>
      <trkpt lat="43.6997" lon="3.45376">
        <ele>201.6</ele>
        <time>2017-03-22T08:07:01Z</time>
      </trkpt>
      <trkpt lat="43.69971" lon="3.45375">
        <ele>201.5</ele>
        <time>2017-03-22T08:07:08Z</time>
      </trkpt>
      <trkpt lat="43.69964" lon="3.45369">
        <ele>201.2</ele>
        <time>2017-03-22T08:07:29Z</time>
      </trkpt>
      <trkpt lat="43.69962" lon="3.45354">
        <ele>200.4</ele>
        <time>2017-03-22T08:07:31Z</time>
      </trkpt>
      <trkpt lat="43.6996" lon="3.45344">
        <ele>199.7</ele>
        <time>2017-03-22T08:07:32Z</time>
      </trkpt>
      <trkpt lat="43.6996" lon="3.45333">
        <ele>199.3</ele>
        <time>2017-03-22T08:07:34Z</time>
      </trkpt>
      <trkpt lat="43.69954" lon="3.45322">
        <ele>199.1</ele>
        <time>2017-03-22T08:07:37Z</time>
      </trkpt>
      <trkpt lat="43.69946" lon="3.4532">
        <ele>197.8</ele>
        <time>2017-03-22T08:07:39Z</time>
      </trkpt>
      <trkpt lat="43.69935" lon="3.4531">
        <ele>195.7</ele>
        <time>2017-03-22T08:07:42Z</time>
      </trkpt>
      <trkpt lat="43.69928" lon="3.45303">
        <ele>193.8</ele>
        <time>2017-03-22T08:07:44Z</time>
      </trkpt>
      <trkpt lat="43.69922" lon="3.45294">
        <ele>194.1</ele>
        <time>2017-03-22T08:07:49Z</time>
      </trkpt>
      <trkpt lat="43.69919" lon="3.45286">
        <ele>194.5</ele>
        <time>2017-03-22T08:07:51Z</time>
      </trkpt>
      <trkpt lat="43.69921" lon="3.45274">
        <ele>194.5</ele>
        <time>2017-03-22T08:07:58Z</time>
      </trkpt>
      <trkpt lat="43.69921" lon="3.45263">
        <ele>194.4</ele>
        <time>2017-03-22T08:08:02Z</time>
      </trkpt>
      <trkpt lat="43.69917" lon="3.45252">
        <ele>194.5</ele>
        <time>2017-03-22T08:08:05Z</time>
      </trkpt>
      <trkpt lat="43.6991" lon="3.45242">
        <ele>194.5</ele>
        <time>2017-03-22T08:08:08Z</time>
      </trkpt>
      <trkpt lat="43.69901" lon="3.45235">
        <ele>194.9</ele>
        <time>2017-03-22T08:08:10Z</time>
      </trkpt>
      <trkpt lat="43.69893" lon="3.4523">
        <ele>194.9</ele>
        <time>2017-03-22T08:08:12Z</time>
      </trkpt>
      <trkpt lat="43.69886" lon="3.45224">
        <ele>194.4</ele>
        <time>2017-03-22T08:08:14Z</time>
      </trkpt>
      <trkpt lat="43.69876" lon="3.45221">
        <ele>194.2</ele>
        <time>2017-03-22T08:08:17Z</time>
      </trkpt>
      <trkpt lat="43.6987" lon="3.45214">
        <ele>194</ele>
        <time>2017-03-22T08:08:21Z</time>
      </trkpt>
      <trkpt lat="43.69869" lon="3.45204">
        <ele>194.2</ele>
        <time>2017-03-22T08:08:25Z</time>
      </trkpt>
      <trkpt lat="43.69866" lon="3.45192">
        <ele>194.7</ele>
        <time>2017-03-22T08:08:32Z</time>
      </trkpt>
      <trkpt lat="43.69865" lon="3.45184">
        <ele>194.7</ele>
        <time>2017-03-22T08:08:39Z</time>
      </trkpt>
      <trkpt lat="43.6987" lon="3.45176">
        <ele>194.6</ele>
        <time>2017-03-22T08:08:42Z</time>
      </trkpt>
      <trkpt lat="43.6987" lon="3.45184">
        <ele>194</ele>
        <time>2017-03-22T08:08:49Z</time>
      </trkpt>
      <trkpt lat="43.69869" lon="3.45194">
        <ele>193.6</ele>
        <time>2017-03-22T08:08:54Z</time>
      </trkpt>
      <trkpt lat="43.69862" lon="3.45191">
        <ele>193.5</ele>
        <time>2017-03-22T08:08:59Z</time>
      </trkpt>
      <trkpt lat="43.69859" lon="3.4518">
        <ele>193.1</ele>
        <time>2017-03-22T08:09:03Z</time>
      </trkpt>
      <trkpt lat="43.69854" lon="3.45171">
        <ele>193</ele>
        <time>2017-03-22T08:09:06Z</time>
      </trkpt>
      <trkpt lat="43.69861" lon="3.45158">
        <ele>193</ele>
        <time>2017-03-22T08:09:10Z</time>
      </trkpt>
      <trkpt lat="43.69867" lon="3.45152">
        <ele>193</ele>
        <time>2017-03-22T08:09:14Z</time>
      </trkpt>
      <trkpt lat="43.69875" lon="3.45149">
        <ele>193.1</ele>
        <time>2017-03-22T08:09:19Z</time>
      </trkpt>
      <trkpt lat="43.69881" lon="3.45145">
        <ele>193.5</ele>
        <time>2017-03-22T08:09:23Z</time>
      </trkpt>
      <trkpt lat="43.69882" lon="3.45147">
        <ele>194.1</ele>
        <time>2017-03-22T08:09:30Z</time>
      </trkpt>
      <trkpt lat="43.69875" lon="3.45153">
        <ele>193.9</ele>
        <time>2017-03-22T08:09:34Z</time>
      </trkpt>
      <trkpt lat="43.6987" lon="3.45153">
        <ele>193.6</ele>
        <time>2017-03-22T08:09:41Z</time>
      </trkpt>
      <trkpt lat="43.69873" lon="3.4515">
        <ele>193</ele>
        <time>2017-03-22T08:09:48Z</time>
      </trkpt>
      <trkpt lat="43.69881" lon="3.45142">
        <ele>192.5</ele>
        <time>2017-03-22T08:09:51Z</time>
      </trkpt>
      <trkpt lat="43.69887" lon="3.45134">
        <ele>192.5</ele>
        <time>2017-03-22T08:09:53Z</time>
      </trkpt>
      <trkpt lat="43.69893" lon="3.45125">
        <ele>190.6</ele>
        <time>2017-03-22T08:09:55Z</time>
      </trkpt>
      <trkpt lat="43.69896" lon="3.4511">
        <ele>187.9</ele>
        <time>2017-03-22T08:09:57Z</time>
      </trkpt>
      <trkpt lat="43.69892" lon="3.45096">
        <ele>186.1</ele>
        <time>2017-03-22T08:09:59Z</time>
      </trkpt>
      <trkpt lat="43.69895" lon="3.45084">
        <ele>184.9</ele>
        <time>2017-03-22T08:10:01Z</time>
      </trkpt>
      <trkpt lat="43.69894" lon="3.45072">
        <ele>184.1</ele>
        <time>2017-03-22T08:10:03Z</time>
      </trkpt>
      <trkpt lat="43.69895" lon="3.45061">
        <ele>183.8</ele>
        <time>2017-03-22T08:10:05Z</time>
      </trkpt>
      <trkpt lat="43.69894" lon="3.45049">
        <ele>184</ele>
        <time>2017-03-22T08:10:07Z</time>
      </trkpt>
      <trkpt lat="43.69894" lon="3.45038">
        <ele>184.5</ele>
        <time>2017-03-22T08:10:09Z</time>
      </trkpt>
      <trkpt lat="43.69897" lon="3.45027">
        <ele>185.2</ele>
        <time>2017-03-22T08:10:11Z</time>
      </trkpt>
      <trkpt lat="43.69899" lon="3.45015">
        <ele>185.1</ele>
        <time>2017-03-22T08:10:14Z</time>
      </trkpt>
      <trkpt lat="43.69897" lon="3.45001">
        <ele>185.7</ele>
        <time>2017-03-22T08:10:18Z</time>
      </trkpt>
      <trkpt lat="43.699" lon="3.44991">
        <ele>185.8</ele>
        <time>2017-03-22T08:10:21Z</time>
      </trkpt>
      <trkpt lat="43.69891" lon="3.44987">
        <ele>186.2</ele>
        <time>2017-03-22T08:10:25Z</time>
      </trkpt>
      <trkpt lat="43.69883" lon="3.44991">
        <ele>186.3</ele>
        <time>2017-03-22T08:10:28Z</time>
      </trkpt>
      <trkpt lat="43.6988" lon="3.45002">
        <ele>186.3</ele>
        <time>2017-03-22T08:10:31Z</time>
      </trkpt>
      <trkpt lat="43.69872" lon="3.45003">
        <ele>185.9</ele>
        <time>2017-03-22T08:10:34Z</time>
      </trkpt>
      <trkpt lat="43.69863" lon="3.44999">
        <ele>184</ele>
        <time>2017-03-22T08:10:36Z</time>
      </trkpt>
      <trkpt lat="43.69856" lon="3.44988">
        <ele>182.8</ele>
        <time>2017-03-22T08:10:38Z</time>
      </trkpt>
      <trkpt lat="43.69851" lon="3.44974">
        <ele>182.2</ele>
        <time>2017-03-22T08:10:40Z</time>
      </trkpt>
      <trkpt lat="43.69849" lon="3.4496">
        <ele>182.2</ele>
        <time>2017-03-22T08:10:42Z</time>
      </trkpt>
      <trkpt lat="43.69848" lon="3.44949">
        <ele>182.4</ele>
        <time>2017-03-22T08:10:45Z</time>
      </trkpt>
      <trkpt lat="43.69851" lon="3.44935">
        <ele>181.8</ele>
        <time>2017-03-22T08:10:50Z</time>
      </trkpt>
      <trkpt lat="43.69853" lon="3.44918">
        <ele>179.7</ele>
        <time>2017-03-22T08:10:52Z</time>
      </trkpt>
      <trkpt lat="43.69852" lon="3.44906">
        <ele>178.5</ele>
        <time>2017-03-22T08:10:53Z</time>
      </trkpt>
      <trkpt lat="43.69849" lon="3.44895">
        <ele>177.3</ele>
        <time>2017-03-22T08:10:55Z</time>
      </trkpt>
      <trkpt lat="43.69845" lon="3.44882">
        <ele>176.8</ele>
        <time>2017-03-22T08:10:58Z</time>
      </trkpt>
      <trkpt lat="43.69842" lon="3.44873">
        <ele>176.2</ele>
        <time>2017-03-22T08:11:00Z</time>
      </trkpt>
      <trkpt lat="43.69843" lon="3.44872">
        <ele>175.3</ele>
        <time>2017-03-22T08:11:07Z</time>
      </trkpt>
      <trkpt lat="43.69845" lon="3.4488">
        <ele>174.1</ele>
        <time>2017-03-22T08:11:14Z</time>
      </trkpt>
      <trkpt lat="43.69849" lon="3.44888">
        <ele>173.1</ele>
        <time>2017-03-22T08:11:21Z</time>
      </trkpt>
      <trkpt lat="43.69857" lon="3.44888">
        <ele>172.7</ele>
        <time>2017-03-22T08:11:28Z</time>
      </trkpt>
      <trkpt lat="43.6986" lon="3.44879">
        <ele>172.6</ele>
        <time>2017-03-22T08:11:35Z</time>
      </trkpt>
      <trkpt lat="43.69861" lon="3.44868">
        <ele>172.6</ele>
        <time>2017-03-22T08:11:40Z</time>
      </trkpt>
      <trkpt lat="43.6987" lon="3.44869">
        <ele>172.1</ele>
        <time>2017-03-22T08:11:45Z</time>
      </trkpt>
      <trkpt lat="43.69877" lon="3.44871">
        <ele>172</ele>
        <time>2017-03-22T08:11:48Z</time>
      </trkpt>
      <trkpt lat="43.69887" lon="3.44871">
        <ele>172</ele>
        <time>2017-03-22T08:11:52Z</time>
      </trkpt>
      <trkpt lat="43.69894" lon="3.44868">
        <ele>171.9</ele>
        <time>2017-03-22T08:11:56Z</time>
      </trkpt>
      <trkpt lat="43.69902" lon="3.44867">
        <ele>171.9</ele>
        <time>2017-03-22T08:12:00Z</time>
      </trkpt>
      <trkpt lat="43.69909" lon="3.44862">
        <ele>172.1</ele>
        <time>2017-03-22T08:12:04Z</time>
      </trkpt>
      <trkpt lat="43.69917" lon="3.44864">
        <ele>172.3</ele>
        <time>2017-03-22T08:12:08Z</time>
      </trkpt>
      <trkpt lat="43.69919" lon="3.44869">
        <ele>172.8</ele>
        <time>2017-03-22T08:12:22Z</time>
      </trkpt>
      <trkpt lat="43.69923" lon="3.44876">
        <ele>173.6</ele>
        <time>2017-03-22T08:12:29Z</time>
      </trkpt>
      <trkpt lat="43.6993" lon="3.4488">
        <ele>173.9</ele>
        <time>2017-03-22T08:12:32Z</time>
      </trkpt>
      <trkpt lat="43.69937" lon="3.44883">
        <ele>174.1</ele>
        <time>2017-03-22T08:12:36Z</time>
      </trkpt>
      <trkpt lat="43.69943" lon="3.4489">
        <ele>174.3</ele>
        <time>2017-03-22T08:12:40Z</time>
      </trkpt>
      <trkpt lat="43.69948" lon="3.44898">
        <ele>174.4</ele>
        <time>2017-03-22T08:12:44Z</time>
      </trkpt>
      <trkpt lat="43.69956" lon="3.44906">
        <ele>174.7</ele>
        <time>2017-03-22T08:12:48Z</time>
      </trkpt>
      <trkpt lat="43.69962" lon="3.44912">
        <ele>174.9</ele>
        <time>2017-03-22T08:12:52Z</time>
      </trkpt>
      <trkpt lat="43.6997" lon="3.44916">
        <ele>175.3</ele>
        <time>2017-03-22T08:12:57Z</time>
      </trkpt>
      <trkpt lat="43.69978" lon="3.44914">
        <ele>175.6</ele>
        <time>2017-03-22T08:13:02Z</time>
      </trkpt>
      <trkpt lat="43.69987" lon="3.4491">
        <ele>175.9</ele>
        <time>2017-03-22T08:13:05Z</time>
      </trkpt>
      <trkpt lat="43.69995" lon="3.44906">
        <ele>176.2</ele>
        <time>2017-03-22T08:13:08Z</time>
      </trkpt>
      <trkpt lat="43.70001" lon="3.44902">
        <ele>176.5</ele>
        <time>2017-03-22T08:13:13Z</time>
      </trkpt>
      <trkpt lat="43.70009" lon="3.44897">
        <ele>176.8</ele>
        <time>2017-03-22T08:13:18Z</time>
      </trkpt>
      <trkpt lat="43.70017" lon="3.44894">
        <ele>177.2</ele>
        <time>2017-03-22T08:13:22Z</time>
      </trkpt>
      <trkpt lat="43.70024" lon="3.44891">
        <ele>177.7</ele>
        <time>2017-03-22T08:13:26Z</time>
      </trkpt>
      <trkpt lat="43.70032" lon="3.44887">
        <ele>178.6</ele>
        <time>2017-03-22T08:13:32Z</time>
      </trkpt>
      <trkpt lat="43.7004" lon="3.44885">
        <ele>179.3</ele>
        <time>2017-03-22T08:13:37Z</time>
      </trkpt>
      <trkpt lat="43.70047" lon="3.44882">
        <ele>179.9</ele>
        <time>2017-03-22T08:13:41Z</time>
      </trkpt>
      <trkpt lat="43.70053" lon="3.44876">
        <ele>180.6</ele>
        <time>2017-03-22T08:13:45Z</time>
      </trkpt>
      <trkpt lat="43.70059" lon="3.4487">
        <ele>181.4</ele>
        <time>2017-03-22T08:13:49Z</time>
      </trkpt>
      <trkpt lat="43.70066" lon="3.44865">
        <ele>182.8</ele>
        <time>2017-03-22T08:13:54Z</time>
      </trkpt>
      <trkpt lat="43.70072" lon="3.44859">
        <ele>183.6</ele>
        <time>2017-03-22T08:13:58Z</time>
      </trkpt>
      <trkpt lat="43.70079" lon="3.44852">
        <ele>184.1</ele>
        <time>2017-03-22T08:14:02Z</time>
      </trkpt>
      <trkpt lat="43.70086" lon="3.44847">
        <ele>184.7</ele>
        <time>2017-03-22T08:14:06Z</time>
      </trkpt>
      <trkpt lat="43.70092" lon="3.44842">
        <ele>185.2</ele>
        <time>2017-03-22T08:14:09Z</time>
      </trkpt>
      <trkpt lat="43.70099" lon="3.44836">
        <ele>185.7</ele>
        <time>2017-03-22T08:14:12Z</time>
      </trkpt>
      <trkpt lat="43.70107" lon="3.4483">
        <ele>186.2</ele>
        <time>2017-03-22T08:14:16Z</time>
      </trkpt>
      <trkpt lat="43.70116" lon="3.44826">
        <ele>186.6</ele>
        <time>2017-03-22T08:14:20Z</time>
      </trkpt>
      <trkpt lat="43.70125" lon="3.44822">
        <ele>187.4</ele>
        <time>2017-03-22T08:14:25Z</time>
      </trkpt>
      <trkpt lat="43.70133" lon="3.44815">
        <ele>188</ele>
        <time>2017-03-22T08:14:29Z</time>
      </trkpt>
      <trkpt lat="43.70142" lon="3.4481">
        <ele>188.3</ele>
        <time>2017-03-22T08:14:32Z</time>
      </trkpt>
      <trkpt lat="43.7015" lon="3.44802">
        <ele>188.7</ele>
        <time>2017-03-22T08:14:35Z</time>
      </trkpt>
      <trkpt lat="43.70155" lon="3.44794">
        <ele>188.8</ele>
        <time>2017-03-22T08:14:38Z</time>
      </trkpt>
      <trkpt lat="43.7016" lon="3.44786">
        <ele>188.9</ele>
        <time>2017-03-22T08:14:41Z</time>
      </trkpt>
      <trkpt lat="43.70167" lon="3.44776">
        <ele>189.2</ele>
        <time>2017-03-22T08:14:45Z</time>
      </trkpt>
      <trkpt lat="43.70172" lon="3.44769">
        <ele>189.5</ele>
        <time>2017-03-22T08:14:49Z</time>
      </trkpt>
      <trkpt lat="43.70179" lon="3.44761">
        <ele>190.4</ele>
        <time>2017-03-22T08:14:54Z</time>
      </trkpt>
      <trkpt lat="43.70187" lon="3.44752">
        <ele>191.2</ele>
        <time>2017-03-22T08:14:58Z</time>
      </trkpt>
      <trkpt lat="43.70194" lon="3.44745">
        <ele>191.8</ele>
        <time>2017-03-22T08:15:02Z</time>
      </trkpt>
      <trkpt lat="43.70201" lon="3.44736">
        <ele>192.3</ele>
        <time>2017-03-22T08:15:06Z</time>
      </trkpt>
      <trkpt lat="43.70206" lon="3.44727">
        <ele>192.7</ele>
        <time>2017-03-22T08:15:09Z</time>
      </trkpt>
      <trkpt lat="43.7021" lon="3.44719">
        <ele>193.1</ele>
        <time>2017-03-22T08:15:12Z</time>
      </trkpt>
      <trkpt lat="43.70216" lon="3.4471">
        <ele>193.6</ele>
        <time>2017-03-22T08:15:16Z</time>
      </trkpt>
      <trkpt lat="43.70222" lon="3.447">
        <ele>194.1</ele>
        <time>2017-03-22T08:15:20Z</time>
      </trkpt>
      <trkpt lat="43.70226" lon="3.4469">
        <ele>194.5</ele>
        <time>2017-03-22T08:15:23Z</time>
      </trkpt>
      <trkpt lat="43.70231" lon="3.44683">
        <ele>194.9</ele>
        <time>2017-03-22T08:15:26Z</time>
      </trkpt>
      <trkpt lat="43.70239" lon="3.44677">
        <ele>195.6</ele>
        <time>2017-03-22T08:15:30Z</time>
      </trkpt>
      <trkpt lat="43.70247" lon="3.4467">
        <ele>196.2</ele>
        <time>2017-03-22T08:15:34Z</time>
      </trkpt>
      <trkpt lat="43.70253" lon="3.44662">
        <ele>196.6</ele>
        <time>2017-03-22T08:15:37Z</time>
      </trkpt>
      <trkpt lat="43.7026" lon="3.44655">
        <ele>197.1</ele>
        <time>2017-03-22T08:15:40Z</time>
      </trkpt>
      <trkpt lat="43.70268" lon="3.44646">
        <ele>197.6</ele>
        <time>2017-03-22T08:15:43Z</time>
      </trkpt>
      <trkpt lat="43.70274" lon="3.4464">
        <ele>199</ele>
        <time>2017-03-22T08:15:45Z</time>
      </trkpt>
      <trkpt lat="43.7028" lon="3.44634">
        <ele>200.1</ele>
        <time>2017-03-22T08:15:47Z</time>
      </trkpt>
      <trkpt lat="43.70288" lon="3.44628">
        <ele>200.4</ele>
        <time>2017-03-22T08:15:51Z</time>
      </trkpt>
      <trkpt lat="43.70295" lon="3.44623">
        <ele>200.8</ele>
        <time>2017-03-22T08:15:54Z</time>
      </trkpt>
      <trkpt lat="43.70302" lon="3.44618">
        <ele>201.2</ele>
        <time>2017-03-22T08:15:57Z</time>
      </trkpt>
      <trkpt lat="43.70309" lon="3.44613">
        <ele>201.4</ele>
        <time>2017-03-22T08:16:00Z</time>
      </trkpt>
      <trkpt lat="43.70317" lon="3.44608">
        <ele>201.7</ele>
        <time>2017-03-22T08:16:03Z</time>
      </trkpt>
      <trkpt lat="43.70325" lon="3.44602">
        <ele>202</ele>
        <time>2017-03-22T08:16:06Z</time>
      </trkpt>
      <trkpt lat="43.70332" lon="3.44596">
        <ele>202.3</ele>
        <time>2017-03-22T08:16:09Z</time>
      </trkpt>
      <trkpt lat="43.70338" lon="3.44592">
        <ele>202.7</ele>
        <time>2017-03-22T08:16:13Z</time>
      </trkpt>
      <trkpt lat="43.70346" lon="3.44586">
        <ele>203.1</ele>
        <time>2017-03-22T08:16:16Z</time>
      </trkpt>
      <trkpt lat="43.70354" lon="3.44579">
        <ele>203.6</ele>
        <time>2017-03-22T08:16:19Z</time>
      </trkpt>
      <trkpt lat="43.70363" lon="3.44575">
        <ele>204</ele>
        <time>2017-03-22T08:16:22Z</time>
      </trkpt>
      <trkpt lat="43.7037" lon="3.44572">
        <ele>204.4</ele>
        <time>2017-03-22T08:16:25Z</time>
      </trkpt>
      <trkpt lat="43.70377" lon="3.44565">
        <ele>204.8</ele>
        <time>2017-03-22T08:16:28Z</time>
      </trkpt>
      <trkpt lat="43.70384" lon="3.44556">
        <ele>205.1</ele>
        <time>2017-03-22T08:16:31Z</time>
      </trkpt>
      <trkpt lat="43.7039" lon="3.4455">
        <ele>205.6</ele>
        <time>2017-03-22T08:16:35Z</time>
      </trkpt>
      <trkpt lat="43.70397" lon="3.44546">
        <ele>206.3</ele>
        <time>2017-03-22T08:16:38Z</time>
      </trkpt>
      <trkpt lat="43.70404" lon="3.44542">
        <ele>207</ele>
        <time>2017-03-22T08:16:41Z</time>
      </trkpt>
      <trkpt lat="43.70413" lon="3.44539">
        <ele>207.6</ele>
        <time>2017-03-22T08:16:44Z</time>
      </trkpt>
      <trkpt lat="43.7042" lon="3.44537">
        <ele>208.2</ele>
        <time>2017-03-22T08:16:47Z</time>
      </trkpt>
      <trkpt lat="43.70425" lon="3.44528">
        <ele>209</ele>
        <time>2017-03-22T08:16:52Z</time>
      </trkpt>
      <trkpt lat="43.70427" lon="3.44518">
        <ele>209.4</ele>
        <time>2017-03-22T08:16:55Z</time>
      </trkpt>
      <trkpt lat="43.70432" lon="3.44511">
        <ele>209.8</ele>
        <time>2017-03-22T08:16:58Z</time>
      </trkpt>
      <trkpt lat="43.7044" lon="3.44509">
        <ele>210.4</ele>
        <time>2017-03-22T08:17:02Z</time>
      </trkpt>
      <trkpt lat="43.70449" lon="3.44506">
        <ele>211.3</ele>
        <time>2017-03-22T08:17:06Z</time>
      </trkpt>
      <trkpt lat="43.70457" lon="3.44503">
        <ele>212.1</ele>
        <time>2017-03-22T08:17:11Z</time>
      </trkpt>
      <trkpt lat="43.70464" lon="3.44501">
        <ele>212.5</ele>
        <time>2017-03-22T08:17:15Z</time>
      </trkpt>
      <trkpt lat="43.70473" lon="3.44498">
        <ele>212.9</ele>
        <time>2017-03-22T08:17:19Z</time>
      </trkpt>
      <trkpt lat="43.70482" lon="3.44495">
        <ele>213.5</ele>
        <time>2017-03-22T08:17:23Z</time>
      </trkpt>
      <trkpt lat="43.7049" lon="3.44494">
        <ele>214.2</ele>
        <time>2017-03-22T08:17:27Z</time>
      </trkpt>
      <trkpt lat="43.70497" lon="3.44491">
        <ele>215.2</ele>
        <time>2017-03-22T08:17:32Z</time>
      </trkpt>
      <trkpt lat="43.70506" lon="3.44489">
        <ele>215.8</ele>
        <time>2017-03-22T08:17:37Z</time>
      </trkpt>
      <trkpt lat="43.70514" lon="3.44486">
        <ele>216.4</ele>
        <time>2017-03-22T08:17:41Z</time>
      </trkpt>
      <trkpt lat="43.70522" lon="3.44483">
        <ele>217.3</ele>
        <time>2017-03-22T08:17:45Z</time>
      </trkpt>
      <trkpt lat="43.7053" lon="3.44481">
        <ele>218.1</ele>
        <time>2017-03-22T08:17:49Z</time>
      </trkpt>
      <trkpt lat="43.70537" lon="3.44479">
        <ele>218.9</ele>
        <time>2017-03-22T08:17:53Z</time>
      </trkpt>
      <trkpt lat="43.70546" lon="3.44479">
        <ele>220.2</ele>
        <time>2017-03-22T08:17:59Z</time>
      </trkpt>
      <trkpt lat="43.70549" lon="3.44476">
        <ele>221.8</ele>
        <time>2017-03-22T08:18:06Z</time>
      </trkpt>
      <trkpt lat="43.70539" lon="3.44478">
        <ele>222.5</ele>
        <time>2017-03-22T08:18:11Z</time>
      </trkpt>
      <trkpt lat="43.70533" lon="3.44473">
        <ele>223</ele>
        <time>2017-03-22T08:18:16Z</time>
      </trkpt>
      <trkpt lat="43.70534" lon="3.44462">
        <ele>223.7</ele>
        <time>2017-03-22T08:18:21Z</time>
      </trkpt>
      <trkpt lat="43.70538" lon="3.44451">
        <ele>224.2</ele>
        <time>2017-03-22T08:18:26Z</time>
      </trkpt>
      <trkpt lat="43.70542" lon="3.44443">
        <ele>224.9</ele>
        <time>2017-03-22T08:18:30Z</time>
      </trkpt>
      <trkpt lat="43.70547" lon="3.44435">
        <ele>225.4</ele>
        <time>2017-03-22T08:18:34Z</time>
      </trkpt>
      <trkpt lat="43.70552" lon="3.44426">
        <ele>226</ele>
        <time>2017-03-22T08:18:39Z</time>
      </trkpt>
      <trkpt lat="43.70558" lon="3.44418">
        <ele>226.2</ele>
        <time>2017-03-22T08:18:43Z</time>
      </trkpt>
      <trkpt lat="43.70563" lon="3.44408">
        <ele>226.4</ele>
        <time>2017-03-22T08:18:47Z</time>
      </trkpt>
      <trkpt lat="43.70566" lon="3.44398">
        <ele>227.2</ele>
        <time>2017-03-22T08:18:52Z</time>
      </trkpt>
      <trkpt lat="43.70571" lon="3.44388">
        <ele>227.7</ele>
        <time>2017-03-22T08:18:56Z</time>
      </trkpt>
      <trkpt lat="43.70575" lon="3.4438">
        <ele>228.4</ele>
        <time>2017-03-22T08:19:00Z</time>
      </trkpt>
      <trkpt lat="43.70582" lon="3.44371">
        <ele>228.7</ele>
        <time>2017-03-22T08:19:03Z</time>
      </trkpt>
      <trkpt lat="43.70588" lon="3.44364">
        <ele>229.1</ele>
        <time>2017-03-22T08:19:06Z</time>
      </trkpt>
      <trkpt lat="43.70592" lon="3.44354">
        <ele>230</ele>
        <time>2017-03-22T08:19:12Z</time>
      </trkpt>
      <trkpt lat="43.70591" lon="3.44341">
        <ele>230.7</ele>
        <time>2017-03-22T08:19:17Z</time>
      </trkpt>
      <trkpt lat="43.7059" lon="3.44328">
        <ele>231.1</ele>
        <time>2017-03-22T08:19:21Z</time>
      </trkpt>
      <trkpt lat="43.70589" lon="3.44316">
        <ele>231.7</ele>
        <time>2017-03-22T08:19:25Z</time>
      </trkpt>
      <trkpt lat="43.70588" lon="3.44306">
        <ele>232.4</ele>
        <time>2017-03-22T08:19:28Z</time>
      </trkpt>
      <trkpt lat="43.70588" lon="3.44296">
        <ele>233</ele>
        <time>2017-03-22T08:19:31Z</time>
      </trkpt>
      <trkpt lat="43.70593" lon="3.44284">
        <ele>233.5</ele>
        <time>2017-03-22T08:19:34Z</time>
      </trkpt>
      <trkpt lat="43.70602" lon="3.44277">
        <ele>236.6</ele>
        <time>2017-03-22T08:19:37Z</time>
      </trkpt>
      <trkpt lat="43.7061" lon="3.44271">
        <ele>238.1</ele>
        <time>2017-03-22T08:19:39Z</time>
      </trkpt>
      <trkpt lat="43.70618" lon="3.44266">
        <ele>239.1</ele>
        <time>2017-03-22T08:19:41Z</time>
      </trkpt>
      <trkpt lat="43.70626" lon="3.44264">
        <ele>239.3</ele>
        <time>2017-03-22T08:19:43Z</time>
      </trkpt>
      <trkpt lat="43.70633" lon="3.44265">
        <ele>239.3</ele>
        <time>2017-03-22T08:19:45Z</time>
      </trkpt>
      <trkpt lat="43.70642" lon="3.44268">
        <ele>239.3</ele>
        <time>2017-03-22T08:19:48Z</time>
      </trkpt>
      <trkpt lat="43.70652" lon="3.44273">
        <ele>239.2</ele>
        <time>2017-03-22T08:19:51Z</time>
      </trkpt>
      <trkpt lat="43.70658" lon="3.4428">
        <ele>239.2</ele>
        <time>2017-03-22T08:19:54Z</time>
      </trkpt>
      <trkpt lat="43.70665" lon="3.44287">
        <ele>239.3</ele>
        <time>2017-03-22T08:19:57Z</time>
      </trkpt>
      <trkpt lat="43.70672" lon="3.44293">
        <ele>239.3</ele>
        <time>2017-03-22T08:20:00Z</time>
      </trkpt>
      <trkpt lat="43.70681" lon="3.44303">
        <ele>239.4</ele>
        <time>2017-03-22T08:20:03Z</time>
      </trkpt>
      <trkpt lat="43.70687" lon="3.44308">
        <ele>239.5</ele>
        <time>2017-03-22T08:20:06Z</time>
      </trkpt>
      <trkpt lat="43.70694" lon="3.44308">
        <ele>239.5</ele>
        <time>2017-03-22T08:20:09Z</time>
      </trkpt>
      <trkpt lat="43.70702" lon="3.44305">
        <ele>239.6</ele>
        <time>2017-03-22T08:20:12Z</time>
      </trkpt>
      <trkpt lat="43.7071" lon="3.44299">
        <ele>239.7</ele>
        <time>2017-03-22T08:20:15Z</time>
      </trkpt>
      <trkpt lat="43.70717" lon="3.44295">
        <ele>239.9</ele>
        <time>2017-03-22T08:20:18Z</time>
      </trkpt>
      <trkpt lat="43.70725" lon="3.44292">
        <ele>240.1</ele>
        <time>2017-03-22T08:20:21Z</time>
      </trkpt>
      <trkpt lat="43.70733" lon="3.44288">
        <ele>240.4</ele>
        <time>2017-03-22T08:20:25Z</time>
      </trkpt>
      <trkpt lat="43.7074" lon="3.44284">
        <ele>240.6</ele>
        <time>2017-03-22T08:20:29Z</time>
      </trkpt>
      <trkpt lat="43.70748" lon="3.44283">
        <ele>240.9</ele>
        <time>2017-03-22T08:20:33Z</time>
      </trkpt>
      <trkpt lat="43.70742" lon="3.44279">
        <ele>241.3</ele>
        <time>2017-03-22T08:20:40Z</time>
      </trkpt>
      <trkpt lat="43.70738" lon="3.44287">
        <ele>241.5</ele>
        <time>2017-03-22T08:20:45Z</time>
      </trkpt>
      <trkpt lat="43.70739" lon="3.44281">
        <ele>241.8</ele>
        <time>2017-03-22T08:20:52Z</time>
      </trkpt>
      <trkpt lat="43.70746" lon="3.44284">
        <ele>241.8</ele>
        <time>2017-03-22T08:20:57Z</time>
      </trkpt>
      <trkpt lat="43.70743" lon="3.44279">
        <ele>241.8</ele>
        <time>2017-03-22T08:21:04Z</time>
      </trkpt>
      <trkpt lat="43.7074" lon="3.44285">
        <ele>241.6</ele>
        <time>2017-03-22T08:21:11Z</time>
      </trkpt>
      <trkpt lat="43.70748" lon="3.44281">
        <ele>241.9</ele>
        <time>2017-03-22T08:21:16Z</time>
      </trkpt>
      <trkpt lat="43.70746" lon="3.44273">
        <ele>242</ele>
        <time>2017-03-22T08:21:23Z</time>
      </trkpt>
      <trkpt lat="43.7074" lon="3.44278">
        <ele>242</ele>
        <time>2017-03-22T08:21:28Z</time>
      </trkpt>
      <trkpt lat="43.70742" lon="3.44285">
        <ele>242</ele>
        <time>2017-03-22T08:21:35Z</time>
      </trkpt>
      <trkpt lat="43.70746" lon="3.44277">
        <ele>241.9</ele>
        <time>2017-03-22T08:21:42Z</time>
      </trkpt>
      <trkpt lat="43.70739" lon="3.44279">
        <ele>242.2</ele>
        <time>2017-03-22T08:21:47Z</time>
      </trkpt>
      <trkpt lat="43.70744" lon="3.44286">
        <ele>242.3</ele>
        <time>2017-03-22T08:21:54Z</time>
      </trkpt>
      <trkpt lat="43.70749" lon="3.44278">
        <ele>242.1</ele>
        <time>2017-03-22T08:22:00Z</time>
      </trkpt>
      <trkpt lat="43.70743" lon="3.44284">
        <ele>242</ele>
        <time>2017-03-22T08:22:07Z</time>
      </trkpt>
      <trkpt lat="43.70743" lon="3.44279">
        <ele>242.3</ele>
        <time>2017-03-22T08:22:14Z</time>
      </trkpt>
      <trkpt lat="43.7074" lon="3.44281">
        <ele>242.6</ele>
        <time>2017-03-22T08:22:21Z</time>
      </trkpt>
      <trkpt lat="43.70746" lon="3.44281">
        <ele>243.2</ele>
        <time>2017-03-22T08:22:28Z</time>
      </trkpt>
      <trkpt lat="43.70738" lon="3.44282">
        <ele>243.4</ele>
        <time>2017-03-22T08:22:35Z</time>
      </trkpt>
      <trkpt lat="43.70741" lon="3.44279">
        <ele>244.4</ele>
        <time>2017-03-22T08:22:42Z</time>
      </trkpt>
      <trkpt lat="43.70745" lon="3.44282">
        <ele>244.7</ele>
        <time>2017-03-22T08:22:49Z</time>
      </trkpt>
      <trkpt lat="43.70742" lon="3.4428">
        <ele>244.9</ele>
        <time>2017-03-22T08:22:56Z</time>
      </trkpt>
      <trkpt lat="43.70745" lon="3.44277">
        <ele>245</ele>
        <time>2017-03-22T08:23:03Z</time>
      </trkpt>
      <trkpt lat="43.70745" lon="3.44275">
        <ele>244.4</ele>
        <time>2017-03-22T08:23:10Z</time>
      </trkpt>
      <trkpt lat="43.70751" lon="3.44266">
        <ele>244.2</ele>
        <time>2017-03-22T08:23:13Z</time>
      </trkpt>
      <trkpt lat="43.70755" lon="3.44256">
        <ele>243.9</ele>
        <time>2017-03-22T08:23:16Z</time>
      </trkpt>
      <trkpt lat="43.70761" lon="3.4425">
        <ele>243.7</ele>
        <time>2017-03-22T08:23:20Z</time>
      </trkpt>
      <trkpt lat="43.7077" lon="3.44245">
        <ele>243.7</ele>
        <time>2017-03-22T08:23:23Z</time>
      </trkpt>
      <trkpt lat="43.70777" lon="3.44241">
        <ele>244</ele>
        <time>2017-03-22T08:23:25Z</time>
      </trkpt>
      <trkpt lat="43.70785" lon="3.44236">
        <ele>243.2</ele>
        <time>2017-03-22T08:23:27Z</time>
      </trkpt>
      <trkpt lat="43.70794" lon="3.44231">
        <ele>242.5</ele>
        <time>2017-03-22T08:23:29Z</time>
      </trkpt>
      <trkpt lat="43.70801" lon="3.44226">
        <ele>242.3</ele>
        <time>2017-03-22T08:23:31Z</time>
      </trkpt>
      <trkpt lat="43.70808" lon="3.44221">
        <ele>242.3</ele>
        <time>2017-03-22T08:23:33Z</time>
      </trkpt>
      <trkpt lat="43.70817" lon="3.44215">
        <ele>242.2</ele>
        <time>2017-03-22T08:23:36Z</time>
      </trkpt>
      <trkpt lat="43.70824" lon="3.4421">
        <ele>242.2</ele>
        <time>2017-03-22T08:23:38Z</time>
      </trkpt>
      <trkpt lat="43.70832" lon="3.44204">
        <ele>242.4</ele>
        <time>2017-03-22T08:23:42Z</time>
      </trkpt>
      <trkpt lat="43.70839" lon="3.44195">
        <ele>242.6</ele>
        <time>2017-03-22T08:23:46Z</time>
      </trkpt>
      <trkpt lat="43.70845" lon="3.4419">
        <ele>242.8</ele>
        <time>2017-03-22T08:23:49Z</time>
      </trkpt>
      <trkpt lat="43.70853" lon="3.44184">
        <ele>243.2</ele>
        <time>2017-03-22T08:23:53Z</time>
      </trkpt>
      <trkpt lat="43.70861" lon="3.44178">
        <ele>243.5</ele>
        <time>2017-03-22T08:23:57Z</time>
      </trkpt>
      <trkpt lat="43.70868" lon="3.44172">
        <ele>243.9</ele>
        <time>2017-03-22T08:24:01Z</time>
      </trkpt>
      <trkpt lat="43.70875" lon="3.44163">
        <ele>244.2</ele>
        <time>2017-03-22T08:24:06Z</time>
      </trkpt>
      <trkpt lat="43.70882" lon="3.44156">
        <ele>244.4</ele>
        <time>2017-03-22T08:24:10Z</time>
      </trkpt>
      <trkpt lat="43.70888" lon="3.44147">
        <ele>244.6</ele>
        <time>2017-03-22T08:24:14Z</time>
      </trkpt>
      <trkpt lat="43.70895" lon="3.44139">
        <ele>245</ele>
        <time>2017-03-22T08:24:19Z</time>
      </trkpt>
      <trkpt lat="43.709" lon="3.4413">
        <ele>245.2</ele>
        <time>2017-03-22T08:24:22Z</time>
      </trkpt>
      <trkpt lat="43.70907" lon="3.44121">
        <ele>245.3</ele>
        <time>2017-03-22T08:24:25Z</time>
      </trkpt>
      <trkpt lat="43.70912" lon="3.44113">
        <ele>245.4</ele>
        <time>2017-03-22T08:24:28Z</time>
      </trkpt>
      <trkpt lat="43.70917" lon="3.44103">
        <ele>245.4</ele>
        <time>2017-03-22T08:24:31Z</time>
      </trkpt>
      <trkpt lat="43.70923" lon="3.44092">
        <ele>245.5</ele>
        <time>2017-03-22T08:24:34Z</time>
      </trkpt>
      <trkpt lat="43.70928" lon="3.4408">
        <ele>245.5</ele>
        <time>2017-03-22T08:24:37Z</time>
      </trkpt>
      <trkpt lat="43.70934" lon="3.44073">
        <ele>245.5</ele>
        <time>2017-03-22T08:24:39Z</time>
      </trkpt>
      <trkpt lat="43.70938" lon="3.44065">
        <ele>244.7</ele>
        <time>2017-03-22T08:24:41Z</time>
      </trkpt>
      <trkpt lat="43.7094" lon="3.4405">
        <ele>244.2</ele>
        <time>2017-03-22T08:24:44Z</time>
      </trkpt>
      <trkpt lat="43.70945" lon="3.44041">
        <ele>243.8</ele>
        <time>2017-03-22T08:24:46Z</time>
      </trkpt>
      <trkpt lat="43.70953" lon="3.44031">
        <ele>242.7</ele>
        <time>2017-03-22T08:24:49Z</time>
      </trkpt>
      <trkpt lat="43.70957" lon="3.44022">
        <ele>242.2</ele>
        <time>2017-03-22T08:24:51Z</time>
      </trkpt>
      <trkpt lat="43.70963" lon="3.44012">
        <ele>242.1</ele>
        <time>2017-03-22T08:24:54Z</time>
      </trkpt>
      <trkpt lat="43.70969" lon="3.44004">
        <ele>241.9</ele>
        <time>2017-03-22T08:24:58Z</time>
      </trkpt>
      <trkpt lat="43.70975" lon="3.43995">
        <ele>241.8</ele>
        <time>2017-03-22T08:25:01Z</time>
      </trkpt>
      <trkpt lat="43.70981" lon="3.43989">
        <ele>241.7</ele>
        <time>2017-03-22T08:25:04Z</time>
      </trkpt>
      <trkpt lat="43.70988" lon="3.43981">
        <ele>241.6</ele>
        <time>2017-03-22T08:25:09Z</time>
      </trkpt>
      <trkpt lat="43.70994" lon="3.43971">
        <ele>241.6</ele>
        <time>2017-03-22T08:25:14Z</time>
      </trkpt>
      <trkpt lat="43.70998" lon="3.43962">
        <ele>241.6</ele>
        <time>2017-03-22T08:25:17Z</time>
      </trkpt>
      <trkpt lat="43.71004" lon="3.43954">
        <ele>241.6</ele>
        <time>2017-03-22T08:25:20Z</time>
      </trkpt>
      <trkpt lat="43.71007" lon="3.43945">
        <ele>241.6</ele>
        <time>2017-03-22T08:25:23Z</time>
      </trkpt>
      <trkpt lat="43.71009" lon="3.43934">
        <ele>241.9</ele>
        <time>2017-03-22T08:25:27Z</time>
      </trkpt>
      <trkpt lat="43.71007" lon="3.43923">
        <ele>242.1</ele>
        <time>2017-03-22T08:25:31Z</time>
      </trkpt>
      <trkpt lat="43.71001" lon="3.43913">
        <ele>242.1</ele>
        <time>2017-03-22T08:25:35Z</time>
      </trkpt>
      <trkpt lat="43.70994" lon="3.43908">
        <ele>241.9</ele>
        <time>2017-03-22T08:25:39Z</time>
      </trkpt>
      <trkpt lat="43.70989" lon="3.439">
        <ele>241.7</ele>
        <time>2017-03-22T08:25:43Z</time>
      </trkpt>
      <trkpt lat="43.70986" lon="3.43891">
        <ele>241.1</ele>
        <time>2017-03-22T08:25:48Z</time>
      </trkpt>
      <trkpt lat="43.70983" lon="3.43882">
        <ele>240.9</ele>
        <time>2017-03-22T08:25:55Z</time>
      </trkpt>
      <trkpt lat="43.70984" lon="3.43884">
        <ele>240.6</ele>
        <time>2017-03-22T08:26:02Z</time>
      </trkpt>
      <trkpt lat="43.70983" lon="3.43888">
        <ele>240</ele>
        <time>2017-03-22T08:26:09Z</time>
      </trkpt>
      <trkpt lat="43.70988" lon="3.43895">
        <ele>239.4</ele>
        <time>2017-03-22T08:26:16Z</time>
      </trkpt>
      <trkpt lat="43.70989" lon="3.43897">
        <ele>239.2</ele>
        <time>2017-03-22T08:26:23Z</time>
      </trkpt>
      <trkpt lat="43.7099" lon="3.4389">
        <ele>239</ele>
        <time>2017-03-22T08:26:41Z</time>
      </trkpt>
      <trkpt lat="43.7099" lon="3.43886">
        <ele>239</ele>
        <time>2017-03-22T08:26:48Z</time>
      </trkpt>
      <trkpt lat="43.70992" lon="3.43876">
        <ele>239.1</ele>
        <time>2017-03-22T08:26:55Z</time>
      </trkpt>
      <trkpt lat="43.70993" lon="3.43872">
        <ele>238.5</ele>
        <time>2017-03-22T08:27:02Z</time>
      </trkpt>
      <trkpt lat="43.71003" lon="3.43873">
        <ele>237.9</ele>
        <time>2017-03-22T08:27:08Z</time>
      </trkpt>
      <trkpt lat="43.7101" lon="3.43873">
        <ele>237.6</ele>
        <time>2017-03-22T08:27:11Z</time>
      </trkpt>
      <trkpt lat="43.7102" lon="3.43872">
        <ele>237.3</ele>
        <time>2017-03-22T08:27:14Z</time>
      </trkpt>
      <trkpt lat="43.7103" lon="3.43867">
        <ele>237</ele>
        <time>2017-03-22T08:27:17Z</time>
      </trkpt>
      <trkpt lat="43.71039" lon="3.43861">
        <ele>236.8</ele>
        <time>2017-03-22T08:27:20Z</time>
      </trkpt>
      <trkpt lat="43.71047" lon="3.43856">
        <ele>236.5</ele>
        <time>2017-03-22T08:27:23Z</time>
      </trkpt>
      <trkpt lat="43.71056" lon="3.4385">
        <ele>236.3</ele>
        <time>2017-03-22T08:27:26Z</time>
      </trkpt>
      <trkpt lat="43.71064" lon="3.43844">
        <ele>236.1</ele>
        <time>2017-03-22T08:27:29Z</time>
      </trkpt>
      <trkpt lat="43.71073" lon="3.43839">
        <ele>236</ele>
        <time>2017-03-22T08:27:32Z</time>
      </trkpt>
      <trkpt lat="43.71079" lon="3.43834">
        <ele>236</ele>
        <time>2017-03-22T08:27:35Z</time>
      </trkpt>
      <trkpt lat="43.71088" lon="3.43829">
        <ele>236.1</ele>
        <time>2017-03-22T08:27:38Z</time>
      </trkpt>
      <trkpt lat="43.71097" lon="3.43823">
        <ele>236.1</ele>
        <time>2017-03-22T08:27:41Z</time>
      </trkpt>
      <trkpt lat="43.71107" lon="3.43818">
        <ele>236.3</ele>
        <time>2017-03-22T08:27:44Z</time>
      </trkpt>
      <trkpt lat="43.71117" lon="3.43817">
        <ele>236.4</ele>
        <time>2017-03-22T08:27:47Z</time>
      </trkpt>
      <trkpt lat="43.71123" lon="3.43821">
        <ele>236.5</ele>
        <time>2017-03-22T08:27:50Z</time>
      </trkpt>
      <trkpt lat="43.71131" lon="3.43827">
        <ele>236.8</ele>
        <time>2017-03-22T08:27:53Z</time>
      </trkpt>
      <trkpt lat="43.71138" lon="3.4383">
        <ele>237.1</ele>
        <time>2017-03-22T08:27:56Z</time>
      </trkpt>
      <trkpt lat="43.71146" lon="3.43832">
        <ele>237.4</ele>
        <time>2017-03-22T08:27:59Z</time>
      </trkpt>
      <trkpt lat="43.71155" lon="3.43831">
        <ele>237.9</ele>
        <time>2017-03-22T08:28:03Z</time>
      </trkpt>
      <trkpt lat="43.71163" lon="3.43828">
        <ele>238.3</ele>
        <time>2017-03-22T08:28:07Z</time>
      </trkpt>
      <trkpt lat="43.7117" lon="3.43826">
        <ele>238.6</ele>
        <time>2017-03-22T08:28:10Z</time>
      </trkpt>
      <trkpt lat="43.71178" lon="3.43823">
        <ele>238.9</ele>
        <time>2017-03-22T08:28:13Z</time>
      </trkpt>
      <trkpt lat="43.71187" lon="3.43821">
        <ele>239.2</ele>
        <time>2017-03-22T08:28:16Z</time>
      </trkpt>
      <trkpt lat="43.71195" lon="3.43818">
        <ele>239.5</ele>
        <time>2017-03-22T08:28:19Z</time>
      </trkpt>
      <trkpt lat="43.71205" lon="3.43814">
        <ele>239.9</ele>
        <time>2017-03-22T08:28:23Z</time>
      </trkpt>
      <trkpt lat="43.71214" lon="3.43811">
        <ele>240.4</ele>
        <time>2017-03-22T08:28:27Z</time>
      </trkpt>
      <trkpt lat="43.71223" lon="3.43807">
        <ele>240.9</ele>
        <time>2017-03-22T08:28:31Z</time>
      </trkpt>
      <trkpt lat="43.7123" lon="3.43804">
        <ele>241.3</ele>
        <time>2017-03-22T08:28:34Z</time>
      </trkpt>
      <trkpt lat="43.71237" lon="3.43802">
        <ele>241.7</ele>
        <time>2017-03-22T08:28:37Z</time>
      </trkpt>
      <trkpt lat="43.71245" lon="3.43799">
        <ele>242.1</ele>
        <time>2017-03-22T08:28:40Z</time>
      </trkpt>
      <trkpt lat="43.71253" lon="3.43797">
        <ele>242.4</ele>
        <time>2017-03-22T08:28:43Z</time>
      </trkpt>
      <trkpt lat="43.71261" lon="3.43794">
        <ele>242.7</ele>
        <time>2017-03-22T08:28:46Z</time>
      </trkpt>
      <trkpt lat="43.7127" lon="3.43792">
        <ele>243</ele>
        <time>2017-03-22T08:28:49Z</time>
      </trkpt>
      <trkpt lat="43.71279" lon="3.43789">
        <ele>243.3</ele>
        <time>2017-03-22T08:28:52Z</time>
      </trkpt>
      <trkpt lat="43.71288" lon="3.43787">
        <ele>243.7</ele>
        <time>2017-03-22T08:28:55Z</time>
      </trkpt>
      <trkpt lat="43.71298" lon="3.43785">
        <ele>244.1</ele>
        <time>2017-03-22T08:28:58Z</time>
      </trkpt>
      <trkpt lat="43.71306" lon="3.43786">
        <ele>244.4</ele>
        <time>2017-03-22T08:29:00Z</time>
      </trkpt>
      <trkpt lat="43.71313" lon="3.43788">
        <ele>244.6</ele>
        <time>2017-03-22T08:29:02Z</time>
      </trkpt>
      <trkpt lat="43.7132" lon="3.4379">
        <ele>245.9</ele>
        <time>2017-03-22T08:29:04Z</time>
      </trkpt>
      <trkpt lat="43.71329" lon="3.43794">
        <ele>246.1</ele>
        <time>2017-03-22T08:29:07Z</time>
      </trkpt>
      <trkpt lat="43.71338" lon="3.43798">
        <ele>246.3</ele>
        <time>2017-03-22T08:29:10Z</time>
      </trkpt>
      <trkpt lat="43.71347" lon="3.43805">
        <ele>246.7</ele>
        <time>2017-03-22T08:29:14Z</time>
      </trkpt>
      <trkpt lat="43.71354" lon="3.43812">
        <ele>247</ele>
        <time>2017-03-22T08:29:17Z</time>
      </trkpt>
      <trkpt lat="43.71362" lon="3.43819">
        <ele>247.4</ele>
        <time>2017-03-22T08:29:20Z</time>
      </trkpt>
      <trkpt lat="43.7137" lon="3.43825">
        <ele>247.8</ele>
        <time>2017-03-22T08:29:23Z</time>
      </trkpt>
      <trkpt lat="43.71376" lon="3.4383">
        <ele>248.2</ele>
        <time>2017-03-22T08:29:26Z</time>
      </trkpt>
      <trkpt lat="43.71384" lon="3.43835">
        <ele>248.7</ele>
        <time>2017-03-22T08:29:29Z</time>
      </trkpt>
      <trkpt lat="43.71391" lon="3.43839">
        <ele>249.2</ele>
        <time>2017-03-22T08:29:32Z</time>
      </trkpt>
      <trkpt lat="43.71398" lon="3.43843">
        <ele>249.7</ele>
        <time>2017-03-22T08:29:35Z</time>
      </trkpt>
      <trkpt lat="43.71407" lon="3.43847">
        <ele>250.3</ele>
        <time>2017-03-22T08:29:39Z</time>
      </trkpt>
      <trkpt lat="43.71414" lon="3.4385">
        <ele>250.8</ele>
        <time>2017-03-22T08:29:42Z</time>
      </trkpt>
      <trkpt lat="43.71422" lon="3.43856">
        <ele>251.5</ele>
        <time>2017-03-22T08:29:46Z</time>
      </trkpt>
      <trkpt lat="43.71429" lon="3.43861">
        <ele>252.3</ele>
        <time>2017-03-22T08:29:50Z</time>
      </trkpt>
      <trkpt lat="43.71436" lon="3.43866">
        <ele>253</ele>
        <time>2017-03-22T08:29:54Z</time>
      </trkpt>
      <trkpt lat="43.71444" lon="3.43872">
        <ele>254</ele>
        <time>2017-03-22T08:29:59Z</time>
      </trkpt>
      <trkpt lat="43.71452" lon="3.43876">
        <ele>254.7</ele>
        <time>2017-03-22T08:30:03Z</time>
      </trkpt>
      <trkpt lat="43.71459" lon="3.4388">
        <ele>255.5</ele>
        <time>2017-03-22T08:30:07Z</time>
      </trkpt>
      <trkpt lat="43.71468" lon="3.43882">
        <ele>256.1</ele>
        <time>2017-03-22T08:30:11Z</time>
      </trkpt>
      <trkpt lat="43.71477" lon="3.43885">
        <ele>256.7</ele>
        <time>2017-03-22T08:30:15Z</time>
      </trkpt>
      <trkpt lat="43.71484" lon="3.43887">
        <ele>257.2</ele>
        <time>2017-03-22T08:30:18Z</time>
      </trkpt>
      <trkpt lat="43.71491" lon="3.4389">
        <ele>257.6</ele>
        <time>2017-03-22T08:30:21Z</time>
      </trkpt>
      <trkpt lat="43.71498" lon="3.43892">
        <ele>258.1</ele>
        <time>2017-03-22T08:30:24Z</time>
      </trkpt>
      <trkpt lat="43.71506" lon="3.43895">
        <ele>258.6</ele>
        <time>2017-03-22T08:30:27Z</time>
      </trkpt>
      <trkpt lat="43.71514" lon="3.43897">
        <ele>259.1</ele>
        <time>2017-03-22T08:30:30Z</time>
      </trkpt>
      <trkpt lat="43.71524" lon="3.439">
        <ele>259.5</ele>
        <time>2017-03-22T08:30:33Z</time>
      </trkpt>
      <trkpt lat="43.71534" lon="3.43898">
        <ele>259.9</ele>
        <time>2017-03-22T08:30:36Z</time>
      </trkpt>
      <trkpt lat="43.71541" lon="3.4389">
        <ele>260.1</ele>
        <time>2017-03-22T08:30:39Z</time>
      </trkpt>
      <trkpt lat="43.71549" lon="3.43883">
        <ele>260.3</ele>
        <time>2017-03-22T08:30:42Z</time>
      </trkpt>
      <trkpt lat="43.71556" lon="3.43884">
        <ele>260.4</ele>
        <time>2017-03-22T08:30:44Z</time>
      </trkpt>
      <trkpt lat="43.71565" lon="3.43889">
        <ele>260.8</ele>
        <time>2017-03-22T08:30:47Z</time>
      </trkpt>
      <trkpt lat="43.71573" lon="3.43895">
        <ele>261</ele>
        <time>2017-03-22T08:30:50Z</time>
      </trkpt>
      <trkpt lat="43.71581" lon="3.43901">
        <ele>261.4</ele>
        <time>2017-03-22T08:30:54Z</time>
      </trkpt>
      <trkpt lat="43.71588" lon="3.43907">
        <ele>261.8</ele>
        <time>2017-03-22T08:30:57Z</time>
      </trkpt>
      <trkpt lat="43.71595" lon="3.43911">
        <ele>262.4</ele>
        <time>2017-03-22T08:31:00Z</time>
      </trkpt>
      <trkpt lat="43.71604" lon="3.43916">
        <ele>263.1</ele>
        <time>2017-03-22T08:31:04Z</time>
      </trkpt>
      <trkpt lat="43.71611" lon="3.43917">
        <ele>263.6</ele>
        <time>2017-03-22T08:31:07Z</time>
      </trkpt>
      <trkpt lat="43.7162" lon="3.4392">
        <ele>264.1</ele>
        <time>2017-03-22T08:31:11Z</time>
      </trkpt>
      <trkpt lat="43.71626" lon="3.43926">
        <ele>264.6</ele>
        <time>2017-03-22T08:31:14Z</time>
      </trkpt>
      <trkpt lat="43.71635" lon="3.43932">
        <ele>265.2</ele>
        <time>2017-03-22T08:31:18Z</time>
      </trkpt>
      <trkpt lat="43.71642" lon="3.43939">
        <ele>265.9</ele>
        <time>2017-03-22T08:31:21Z</time>
      </trkpt>
      <trkpt lat="43.71649" lon="3.43944">
        <ele>266.7</ele>
        <time>2017-03-22T08:31:24Z</time>
      </trkpt>
      <trkpt lat="43.71656" lon="3.43949">
        <ele>267.4</ele>
        <time>2017-03-22T08:31:27Z</time>
      </trkpt>
      <trkpt lat="43.71664" lon="3.43956">
        <ele>268.2</ele>
        <time>2017-03-22T08:31:31Z</time>
      </trkpt>
      <trkpt lat="43.71669" lon="3.43962">
        <ele>268.8</ele>
        <time>2017-03-22T08:31:34Z</time>
      </trkpt>
      <trkpt lat="43.71676" lon="3.43968">
        <ele>269.3</ele>
        <time>2017-03-22T08:31:37Z</time>
      </trkpt>
      <trkpt lat="43.71683" lon="3.43975">
        <ele>269.8</ele>
        <time>2017-03-22T08:31:40Z</time>
      </trkpt>
      <trkpt lat="43.71692" lon="3.43982">
        <ele>270.5</ele>
        <time>2017-03-22T08:31:44Z</time>
      </trkpt>
      <trkpt lat="43.71698" lon="3.43987">
        <ele>271.4</ele>
        <time>2017-03-22T08:31:48Z</time>
      </trkpt>
      <trkpt lat="43.71706" lon="3.43993">
        <ele>272.3</ele>
        <time>2017-03-22T08:31:52Z</time>
      </trkpt>
      <trkpt lat="43.71712" lon="3.43999">
        <ele>273</ele>
        <time>2017-03-22T08:31:55Z</time>
      </trkpt>
      <trkpt lat="43.7172" lon="3.44005">
        <ele>273.8</ele>
        <time>2017-03-22T08:31:59Z</time>
      </trkpt>
      <trkpt lat="43.71728" lon="3.44013">
        <ele>274.6</ele>
        <time>2017-03-22T08:32:03Z</time>
      </trkpt>
      <trkpt lat="43.71733" lon="3.4402">
        <ele>275.4</ele>
        <time>2017-03-22T08:32:06Z</time>
      </trkpt>
      <trkpt lat="43.7174" lon="3.4403">
        <ele>276.4</ele>
        <time>2017-03-22T08:32:10Z</time>
      </trkpt>
      <trkpt lat="43.71746" lon="3.44038">
        <ele>277.3</ele>
        <time>2017-03-22T08:32:14Z</time>
      </trkpt>
      <trkpt lat="43.71754" lon="3.44046">
        <ele>278.4</ele>
        <time>2017-03-22T08:32:19Z</time>
      </trkpt>
      <trkpt lat="43.7176" lon="3.44052">
        <ele>279.4</ele>
        <time>2017-03-22T08:32:23Z</time>
      </trkpt>
      <trkpt lat="43.71768" lon="3.44057">
        <ele>280.3</ele>
        <time>2017-03-22T08:32:27Z</time>
      </trkpt>
      <trkpt lat="43.71776" lon="3.44059">
        <ele>281.2</ele>
        <time>2017-03-22T08:32:31Z</time>
      </trkpt>
      <trkpt lat="43.71783" lon="3.4406">
        <ele>281.9</ele>
        <time>2017-03-22T08:32:35Z</time>
      </trkpt>
      <trkpt lat="43.7179" lon="3.44063">
        <ele>282.6</ele>
        <time>2017-03-22T08:32:39Z</time>
      </trkpt>
      <trkpt lat="43.71795" lon="3.44071">
        <ele>283.4</ele>
        <time>2017-03-22T08:32:43Z</time>
      </trkpt>
      <trkpt lat="43.71789" lon="3.4408">
        <ele>284.4</ele>
        <time>2017-03-22T08:32:48Z</time>
      </trkpt>
      <trkpt lat="43.71781" lon="3.44082">
        <ele>284.8</ele>
        <time>2017-03-22T08:32:51Z</time>
      </trkpt>
      <trkpt lat="43.71773" lon="3.44081">
        <ele>285.2</ele>
        <time>2017-03-22T08:32:54Z</time>
      </trkpt>
      <trkpt lat="43.71764" lon="3.44083">
        <ele>285.8</ele>
        <time>2017-03-22T08:32:58Z</time>
      </trkpt>
      <trkpt lat="43.71756" lon="3.44088">
        <ele>286.3</ele>
        <time>2017-03-22T08:33:02Z</time>
      </trkpt>
      <trkpt lat="43.71747" lon="3.44092">
        <ele>286.8</ele>
        <time>2017-03-22T08:33:06Z</time>
      </trkpt>
      <trkpt lat="43.71738" lon="3.44097">
        <ele>287.3</ele>
        <time>2017-03-22T08:33:10Z</time>
      </trkpt>
      <trkpt lat="43.7173" lon="3.44103">
        <ele>287.7</ele>
        <time>2017-03-22T08:33:14Z</time>
      </trkpt>
      <trkpt lat="43.71723" lon="3.44107">
        <ele>288.1</ele>
        <time>2017-03-22T08:33:18Z</time>
      </trkpt>
      <trkpt lat="43.71714" lon="3.44109">
        <ele>288.8</ele>
        <time>2017-03-22T08:33:22Z</time>
      </trkpt>
      <trkpt lat="43.71706" lon="3.4411">
        <ele>289.4</ele>
        <time>2017-03-22T08:33:25Z</time>
      </trkpt>
      <trkpt lat="43.71697" lon="3.44113">
        <ele>290.3</ele>
        <time>2017-03-22T08:33:29Z</time>
      </trkpt>
      <trkpt lat="43.71688" lon="3.44118">
        <ele>291.1</ele>
        <time>2017-03-22T08:33:33Z</time>
      </trkpt>
      <trkpt lat="43.71681" lon="3.44126">
        <ele>291.9</ele>
        <time>2017-03-22T08:33:37Z</time>
      </trkpt>
      <trkpt lat="43.71674" lon="3.44131">
        <ele>292.5</ele>
        <time>2017-03-22T08:33:40Z</time>
      </trkpt>
      <trkpt lat="43.71667" lon="3.44135">
        <ele>293</ele>
        <time>2017-03-22T08:33:43Z</time>
      </trkpt>
      <trkpt lat="43.71658" lon="3.44137">
        <ele>293.7</ele>
        <time>2017-03-22T08:33:47Z</time>
      </trkpt>
      <trkpt lat="43.71649" lon="3.44142">
        <ele>294.5</ele>
        <time>2017-03-22T08:33:51Z</time>
      </trkpt>
      <trkpt lat="43.71652" lon="3.44151">
        <ele>295.8</ele>
        <time>2017-03-22T08:33:57Z</time>
      </trkpt>
      <trkpt lat="43.71661" lon="3.44151">
        <ele>296.4</ele>
        <time>2017-03-22T08:34:00Z</time>
      </trkpt>
      <trkpt lat="43.71668" lon="3.44151">
        <ele>297</ele>
        <time>2017-03-22T08:34:03Z</time>
      </trkpt>
      <trkpt lat="43.71676" lon="3.44151">
        <ele>297.5</ele>
        <time>2017-03-22T08:34:06Z</time>
      </trkpt>
      <trkpt lat="43.71683" lon="3.4415">
        <ele>298.1</ele>
        <time>2017-03-22T08:34:09Z</time>
      </trkpt>
      <trkpt lat="43.71691" lon="3.44148">
        <ele>298.7</ele>
        <time>2017-03-22T08:34:13Z</time>
      </trkpt>
      <trkpt lat="43.717" lon="3.44147">
        <ele>299.2</ele>
        <time>2017-03-22T08:34:17Z</time>
      </trkpt>
      <trkpt lat="43.71708" lon="3.44146">
        <ele>299.6</ele>
        <time>2017-03-22T08:34:20Z</time>
      </trkpt>
      <trkpt lat="43.71717" lon="3.44147">
        <ele>300</ele>
        <time>2017-03-22T08:34:24Z</time>
      </trkpt>
      <trkpt lat="43.71726" lon="3.44148">
        <ele>300.5</ele>
        <time>2017-03-22T08:34:27Z</time>
      </trkpt>
      <trkpt lat="43.71734" lon="3.44149">
        <ele>301.7</ele>
        <time>2017-03-22T08:34:32Z</time>
      </trkpt>
      <trkpt lat="43.71743" lon="3.44149">
        <ele>302.4</ele>
        <time>2017-03-22T08:34:36Z</time>
      </trkpt>
      <trkpt lat="43.7175" lon="3.4415">
        <ele>302.9</ele>
        <time>2017-03-22T08:34:39Z</time>
      </trkpt>
      <trkpt lat="43.71757" lon="3.44152">
        <ele>303.3</ele>
        <time>2017-03-22T08:34:42Z</time>
      </trkpt>
      <trkpt lat="43.71764" lon="3.44154">
        <ele>303.7</ele>
        <time>2017-03-22T08:34:45Z</time>
      </trkpt>
      <trkpt lat="43.71771" lon="3.44156">
        <ele>304.2</ele>
        <time>2017-03-22T08:34:48Z</time>
      </trkpt>
      <trkpt lat="43.7178" lon="3.44161">
        <ele>304.7</ele>
        <time>2017-03-22T08:34:52Z</time>
      </trkpt>
      <trkpt lat="43.71786" lon="3.44168">
        <ele>305</ele>
        <time>2017-03-22T08:34:55Z</time>
      </trkpt>
      <trkpt lat="43.71792" lon="3.44177">
        <ele>305.4</ele>
        <time>2017-03-22T08:34:59Z</time>
      </trkpt>
      <trkpt lat="43.71796" lon="3.44186">
        <ele>305.7</ele>
        <time>2017-03-22T08:35:02Z</time>
      </trkpt>
      <trkpt lat="43.71799" lon="3.44199">
        <ele>306.1</ele>
        <time>2017-03-22T08:35:06Z</time>
      </trkpt>
      <trkpt lat="43.71801" lon="3.44209">
        <ele>306.4</ele>
        <time>2017-03-22T08:35:09Z</time>
      </trkpt>
      <trkpt lat="43.71807" lon="3.44217">
        <ele>306.8</ele>
        <time>2017-03-22T08:35:13Z</time>
      </trkpt>
      <trkpt lat="43.71815" lon="3.44212">
        <ele>307.6</ele>
        <time>2017-03-22T08:35:17Z</time>
      </trkpt>
      <trkpt lat="43.7182" lon="3.44203">
        <ele>308.3</ele>
        <time>2017-03-22T08:35:20Z</time>
      </trkpt>
      <trkpt lat="43.71824" lon="3.44193">
        <ele>309.3</ele>
        <time>2017-03-22T08:35:24Z</time>
      </trkpt>
      <trkpt lat="43.7183" lon="3.44182">
        <ele>310.1</ele>
        <time>2017-03-22T08:35:28Z</time>
      </trkpt>
      <trkpt lat="43.71835" lon="3.44174">
        <ele>310.6</ele>
        <time>2017-03-22T08:35:31Z</time>
      </trkpt>
      <trkpt lat="43.71842" lon="3.44167">
        <ele>311.1</ele>
        <time>2017-03-22T08:35:35Z</time>
      </trkpt>
      <trkpt lat="43.7185" lon="3.44162">
        <ele>312</ele>
        <time>2017-03-22T08:35:39Z</time>
      </trkpt>
      <trkpt lat="43.71858" lon="3.44158">
        <ele>312.9</ele>
        <time>2017-03-22T08:35:43Z</time>
      </trkpt>
      <trkpt lat="43.71868" lon="3.44155">
        <ele>313.7</ele>
        <time>2017-03-22T08:35:47Z</time>
      </trkpt>
      <trkpt lat="43.71876" lon="3.44153">
        <ele>314.3</ele>
        <time>2017-03-22T08:35:50Z</time>
      </trkpt>
      <trkpt lat="43.71883" lon="3.44149">
        <ele>314.9</ele>
        <time>2017-03-22T08:35:54Z</time>
      </trkpt>
      <trkpt lat="43.71893" lon="3.44147">
        <ele>315.5</ele>
        <time>2017-03-22T08:35:58Z</time>
      </trkpt>
      <trkpt lat="43.71902" lon="3.44145">
        <ele>316.1</ele>
        <time>2017-03-22T08:36:02Z</time>
      </trkpt>
      <trkpt lat="43.71908" lon="3.44152">
        <ele>316.9</ele>
        <time>2017-03-22T08:36:06Z</time>
      </trkpt>
      <trkpt lat="43.71903" lon="3.44159">
        <ele>317.8</ele>
        <time>2017-03-22T08:36:11Z</time>
      </trkpt>
      <trkpt lat="43.71895" lon="3.4416">
        <ele>318.3</ele>
        <time>2017-03-22T08:36:14Z</time>
      </trkpt>
      <trkpt lat="43.71887" lon="3.44165">
        <ele>318.7</ele>
        <time>2017-03-22T08:36:17Z</time>
      </trkpt>
      <trkpt lat="43.7188" lon="3.44171">
        <ele>319.1</ele>
        <time>2017-03-22T08:36:20Z</time>
      </trkpt>
      <trkpt lat="43.71874" lon="3.44179">
        <ele>319.5</ele>
        <time>2017-03-22T08:36:23Z</time>
      </trkpt>
      <trkpt lat="43.71867" lon="3.44188">
        <ele>320.1</ele>
        <time>2017-03-22T08:36:27Z</time>
      </trkpt>
      <trkpt lat="43.7186" lon="3.44196">
        <ele>320.7</ele>
        <time>2017-03-22T08:36:30Z</time>
      </trkpt>
      <trkpt lat="43.71854" lon="3.44205">
        <ele>321.2</ele>
        <time>2017-03-22T08:36:33Z</time>
      </trkpt>
      <trkpt lat="43.7185" lon="3.44214">
        <ele>321.6</ele>
        <time>2017-03-22T08:36:35Z</time>
      </trkpt>
      <trkpt lat="43.71845" lon="3.44224">
        <ele>322.1</ele>
        <time>2017-03-22T08:36:38Z</time>
      </trkpt>
      <trkpt lat="43.71841" lon="3.44234">
        <ele>322.7</ele>
        <time>2017-03-22T08:36:41Z</time>
      </trkpt>
      <trkpt lat="43.71836" lon="3.44243">
        <ele>323.2</ele>
        <time>2017-03-22T08:36:44Z</time>
      </trkpt>
      <trkpt lat="43.7183" lon="3.44254">
        <ele>323.8</ele>
        <time>2017-03-22T08:36:47Z</time>
      </trkpt>
      <trkpt lat="43.71824" lon="3.44264">
        <ele>324.4</ele>
        <time>2017-03-22T08:36:50Z</time>
      </trkpt>
      <trkpt lat="43.71817" lon="3.44274">
        <ele>325</ele>
        <time>2017-03-22T08:36:54Z</time>
      </trkpt>
      <trkpt lat="43.71809" lon="3.44276">
        <ele>325.5</ele>
        <time>2017-03-22T08:36:57Z</time>
      </trkpt>
      <trkpt lat="43.718" lon="3.44276">
        <ele>326</ele>
        <time>2017-03-22T08:37:00Z</time>
      </trkpt>
      <trkpt lat="43.71791" lon="3.44275">
        <ele>326.6</ele>
        <time>2017-03-22T08:37:03Z</time>
      </trkpt>
      <trkpt lat="43.71783" lon="3.44274">
        <ele>327.2</ele>
        <time>2017-03-22T08:37:06Z</time>
      </trkpt>
      <trkpt lat="43.71773" lon="3.44273">
        <ele>327.8</ele>
        <time>2017-03-22T08:37:09Z</time>
      </trkpt>
      <trkpt lat="43.71765" lon="3.44273">
        <ele>328.3</ele>
        <time>2017-03-22T08:37:12Z</time>
      </trkpt>
      <trkpt lat="43.71757" lon="3.44274">
        <ele>328.8</ele>
        <time>2017-03-22T08:37:15Z</time>
      </trkpt>
      <trkpt lat="43.71749" lon="3.4428">
        <ele>329.4</ele>
        <time>2017-03-22T08:37:18Z</time>
      </trkpt>
      <trkpt lat="43.71743" lon="3.4429">
        <ele>329.9</ele>
        <time>2017-03-22T08:37:21Z</time>
      </trkpt>
      <trkpt lat="43.71739" lon="3.44298">
        <ele>330.2</ele>
        <time>2017-03-22T08:37:23Z</time>
      </trkpt>
      <trkpt lat="43.71735" lon="3.44309">
        <ele>330.8</ele>
        <time>2017-03-22T08:37:26Z</time>
      </trkpt>
      <trkpt lat="43.71732" lon="3.44319">
        <ele>331.3</ele>
        <time>2017-03-22T08:37:29Z</time>
      </trkpt>
      <trkpt lat="43.71726" lon="3.4433">
        <ele>331.8</ele>
        <time>2017-03-22T08:37:32Z</time>
      </trkpt>
      <trkpt lat="43.7172" lon="3.4434">
        <ele>332.4</ele>
        <time>2017-03-22T08:37:35Z</time>
      </trkpt>
      <trkpt lat="43.71716" lon="3.44349">
        <ele>332.9</ele>
        <time>2017-03-22T08:37:38Z</time>
      </trkpt>
      <trkpt lat="43.71712" lon="3.4436">
        <ele>333.5</ele>
        <time>2017-03-22T08:37:41Z</time>
      </trkpt>
      <trkpt lat="43.7171" lon="3.44371">
        <ele>334.1</ele>
        <time>2017-03-22T08:37:44Z</time>
      </trkpt>
      <trkpt lat="43.71707" lon="3.44382">
        <ele>334.8</ele>
        <time>2017-03-22T08:37:47Z</time>
      </trkpt>
      <trkpt lat="43.71703" lon="3.44393">
        <ele>335.3</ele>
        <time>2017-03-22T08:37:50Z</time>
      </trkpt>
      <trkpt lat="43.71698" lon="3.44402">
        <ele>335.9</ele>
        <time>2017-03-22T08:37:53Z</time>
      </trkpt>
      <trkpt lat="43.71692" lon="3.44411">
        <ele>336.4</ele>
        <time>2017-03-22T08:37:56Z</time>
      </trkpt>
      <trkpt lat="43.71688" lon="3.44422">
        <ele>336.9</ele>
        <time>2017-03-22T08:37:59Z</time>
      </trkpt>
      <trkpt lat="43.71695" lon="3.44425">
        <ele>337.8</ele>
        <time>2017-03-22T08:38:03Z</time>
      </trkpt>
      <trkpt lat="43.71703" lon="3.44421">
        <ele>338.5</ele>
        <time>2017-03-22T08:38:06Z</time>
      </trkpt>
      <trkpt lat="43.71711" lon="3.44414">
        <ele>339.1</ele>
        <time>2017-03-22T08:38:09Z</time>
      </trkpt>
      <trkpt lat="43.71718" lon="3.44408">
        <ele>340</ele>
        <time>2017-03-22T08:38:13Z</time>
      </trkpt>
      <trkpt lat="43.71725" lon="3.44401">
        <ele>340.6</ele>
        <time>2017-03-22T08:38:16Z</time>
      </trkpt>
      <trkpt lat="43.71731" lon="3.44393">
        <ele>341.2</ele>
        <time>2017-03-22T08:38:19Z</time>
      </trkpt>
      <trkpt lat="43.71739" lon="3.44387">
        <ele>341.7</ele>
        <time>2017-03-22T08:38:22Z</time>
      </trkpt>
      <trkpt lat="43.71748" lon="3.44384">
        <ele>342.2</ele>
        <time>2017-03-22T08:38:25Z</time>
      </trkpt>
      <trkpt lat="43.71756" lon="3.44382">
        <ele>342.7</ele>
        <time>2017-03-22T08:38:28Z</time>
      </trkpt>
      <trkpt lat="43.71764" lon="3.44379">
        <ele>343.3</ele>
        <time>2017-03-22T08:38:31Z</time>
      </trkpt>
      <trkpt lat="43.71774" lon="3.44373">
        <ele>343.9</ele>
        <time>2017-03-22T08:38:34Z</time>
      </trkpt>
      <trkpt lat="43.71781" lon="3.4437">
        <ele>344.1</ele>
        <time>2017-03-22T08:38:36Z</time>
      </trkpt>
      <trkpt lat="43.71788" lon="3.44368">
        <ele>344.4</ele>
        <time>2017-03-22T08:38:38Z</time>
      </trkpt>
      <trkpt lat="43.71797" lon="3.44365">
        <ele>344.9</ele>
        <time>2017-03-22T08:38:41Z</time>
      </trkpt>
      <trkpt lat="43.71806" lon="3.44362">
        <ele>345.5</ele>
        <time>2017-03-22T08:38:44Z</time>
      </trkpt>
      <trkpt lat="43.71813" lon="3.44358">
        <ele>346</ele>
        <time>2017-03-22T08:38:47Z</time>
      </trkpt>
      <trkpt lat="43.71822" lon="3.44355">
        <ele>346.6</ele>
        <time>2017-03-22T08:38:50Z</time>
      </trkpt>
      <trkpt lat="43.7183" lon="3.44354">
        <ele>347.1</ele>
        <time>2017-03-22T08:38:53Z</time>
      </trkpt>
      <trkpt lat="43.71839" lon="3.44355">
        <ele>347.6</ele>
        <time>2017-03-22T08:38:56Z</time>
      </trkpt>
      <trkpt lat="43.71845" lon="3.4435">
        <ele>348.2</ele>
        <time>2017-03-22T08:38:59Z</time>
      </trkpt>
      <trkpt lat="43.71852" lon="3.44342">
        <ele>348.8</ele>
        <time>2017-03-22T08:39:03Z</time>
      </trkpt>
      <trkpt lat="43.7186" lon="3.44335">
        <ele>349.6</ele>
        <time>2017-03-22T08:39:07Z</time>
      </trkpt>
      <trkpt lat="43.71867" lon="3.44331">
        <ele>350.2</ele>
        <time>2017-03-22T08:39:10Z</time>
      </trkpt>
      <trkpt lat="43.71875" lon="3.44327">
        <ele>350.7</ele>
        <time>2017-03-22T08:39:13Z</time>
      </trkpt>
      <trkpt lat="43.71883" lon="3.44324">
        <ele>351.4</ele>
        <time>2017-03-22T08:39:17Z</time>
      </trkpt>
      <trkpt lat="43.7189" lon="3.44321">
        <ele>352.5</ele>
        <time>2017-03-22T08:39:24Z</time>
      </trkpt>
      <trkpt lat="43.71897" lon="3.44324">
        <ele>353.7</ele>
        <time>2017-03-22T08:39:31Z</time>
      </trkpt>
      <trkpt lat="43.71904" lon="3.4432">
        <ele>354.6</ele>
        <time>2017-03-22T08:39:36Z</time>
      </trkpt>
      <trkpt lat="43.71913" lon="3.4432">
        <ele>355.3</ele>
        <time>2017-03-22T08:39:41Z</time>
      </trkpt>
      <trkpt lat="43.71921" lon="3.4432">
        <ele>355.9</ele>
        <time>2017-03-22T08:39:45Z</time>
      </trkpt>
      <trkpt lat="43.71929" lon="3.44319">
        <ele>356.5</ele>
        <time>2017-03-22T08:39:49Z</time>
      </trkpt>
      <trkpt lat="43.71937" lon="3.44318">
        <ele>357.2</ele>
        <time>2017-03-22T08:39:53Z</time>
      </trkpt>
      <trkpt lat="43.71945" lon="3.44318">
        <ele>357.9</ele>
        <time>2017-03-22T08:39:57Z</time>
      </trkpt>
      <trkpt lat="43.71953" lon="3.44319">
        <ele>358.4</ele>
        <time>2017-03-22T08:40:00Z</time>
      </trkpt>
      <trkpt lat="43.71961" lon="3.44321">
        <ele>358.8</ele>
        <time>2017-03-22T08:40:03Z</time>
      </trkpt>
      <trkpt lat="43.7197" lon="3.44324">
        <ele>359.3</ele>
        <time>2017-03-22T08:40:07Z</time>
      </trkpt>
      <trkpt lat="43.71977" lon="3.44328">
        <ele>359.7</ele>
        <time>2017-03-22T08:40:10Z</time>
      </trkpt>
      <trkpt lat="43.71987" lon="3.44331">
        <ele>360.3</ele>
        <time>2017-03-22T08:40:13Z</time>
      </trkpt>
      <trkpt lat="43.71995" lon="3.44334">
        <ele>361.1</ele>
        <time>2017-03-22T08:40:16Z</time>
      </trkpt>
      <trkpt lat="43.72004" lon="3.44333">
        <ele>361.9</ele>
        <time>2017-03-22T08:40:19Z</time>
      </trkpt>
      <trkpt lat="43.72012" lon="3.44327">
        <ele>363</ele>
        <time>2017-03-22T08:40:23Z</time>
      </trkpt>
      <trkpt lat="43.72018" lon="3.4432">
        <ele>363.8</ele>
        <time>2017-03-22T08:40:26Z</time>
      </trkpt>
      <trkpt lat="43.72023" lon="3.44314">
        <ele>364.6</ele>
        <time>2017-03-22T08:40:29Z</time>
      </trkpt>
      <trkpt lat="43.72031" lon="3.4431">
        <ele>365.4</ele>
        <time>2017-03-22T08:40:32Z</time>
      </trkpt>
      <trkpt lat="43.72038" lon="3.44307">
        <ele>366</ele>
        <time>2017-03-22T08:40:35Z</time>
      </trkpt>
      <trkpt lat="43.72046" lon="3.44305">
        <ele>366.6</ele>
        <time>2017-03-22T08:40:38Z</time>
      </trkpt>
      <trkpt lat="43.72055" lon="3.44302">
        <ele>367.3</ele>
        <time>2017-03-22T08:40:42Z</time>
      </trkpt>
      <trkpt lat="43.72063" lon="3.44298">
        <ele>367.8</ele>
        <time>2017-03-22T08:40:45Z</time>
      </trkpt>
      <trkpt lat="43.7207" lon="3.44294">
        <ele>368.2</ele>
        <time>2017-03-22T08:40:48Z</time>
      </trkpt>
      <trkpt lat="43.72077" lon="3.44289">
        <ele>368.8</ele>
        <time>2017-03-22T08:40:51Z</time>
      </trkpt>
      <trkpt lat="43.72084" lon="3.44283">
        <ele>369.3</ele>
        <time>2017-03-22T08:40:54Z</time>
      </trkpt>
      <trkpt lat="43.7209" lon="3.44276">
        <ele>369.7</ele>
        <time>2017-03-22T08:40:57Z</time>
      </trkpt>
      <trkpt lat="43.72096" lon="3.4427">
        <ele>370</ele>
        <time>2017-03-22T08:41:00Z</time>
      </trkpt>
      <trkpt lat="43.72102" lon="3.44263">
        <ele>370.3</ele>
        <time>2017-03-22T08:41:03Z</time>
      </trkpt>
      <trkpt lat="43.72109" lon="3.44254">
        <ele>370.7</ele>
        <time>2017-03-22T08:41:07Z</time>
      </trkpt>
      <trkpt lat="43.72116" lon="3.44246">
        <ele>371.4</ele>
        <time>2017-03-22T08:41:11Z</time>
      </trkpt>
      <trkpt lat="43.72122" lon="3.44237">
        <ele>371.8</ele>
        <time>2017-03-22T08:41:14Z</time>
      </trkpt>
      <trkpt lat="43.72128" lon="3.4423">
        <ele>372.3</ele>
        <time>2017-03-22T08:41:17Z</time>
      </trkpt>
      <trkpt lat="43.72135" lon="3.44221">
        <ele>373</ele>
        <time>2017-03-22T08:41:21Z</time>
      </trkpt>
      <trkpt lat="43.7214" lon="3.44214">
        <ele>373.6</ele>
        <time>2017-03-22T08:41:24Z</time>
      </trkpt>
      <trkpt lat="43.72145" lon="3.44206">
        <ele>374.1</ele>
        <time>2017-03-22T08:41:27Z</time>
      </trkpt>
      <trkpt lat="43.72151" lon="3.44198">
        <ele>374.8</ele>
        <time>2017-03-22T08:41:30Z</time>
      </trkpt>
      <trkpt lat="43.72159" lon="3.44192">
        <ele>375.4</ele>
        <time>2017-03-22T08:41:33Z</time>
      </trkpt>
      <trkpt lat="43.72167" lon="3.44188">
        <ele>375.7</ele>
        <time>2017-03-22T08:41:35Z</time>
      </trkpt>
      <trkpt lat="43.72173" lon="3.44185">
        <ele>376.1</ele>
        <time>2017-03-22T08:41:37Z</time>
      </trkpt>
      <trkpt lat="43.72182" lon="3.44182">
        <ele>376.6</ele>
        <time>2017-03-22T08:41:40Z</time>
      </trkpt>
      <trkpt lat="43.72189" lon="3.44179">
        <ele>377.2</ele>
        <time>2017-03-22T08:41:43Z</time>
      </trkpt>
      <trkpt lat="43.72197" lon="3.44174">
        <ele>378</ele>
        <time>2017-03-22T08:41:47Z</time>
      </trkpt>
      <trkpt lat="43.72206" lon="3.4417">
        <ele>378.8</ele>
        <time>2017-03-22T08:41:51Z</time>
      </trkpt>
      <trkpt lat="43.72214" lon="3.44171">
        <ele>379.4</ele>
        <time>2017-03-22T08:41:54Z</time>
      </trkpt>
      <trkpt lat="43.72215" lon="3.44181">
        <ele>380.2</ele>
        <time>2017-03-22T08:41:58Z</time>
      </trkpt>
      <trkpt lat="43.7221" lon="3.44189">
        <ele>380.7</ele>
        <time>2017-03-22T08:42:01Z</time>
      </trkpt>
      <trkpt lat="43.72206" lon="3.44197">
        <ele>381.3</ele>
        <time>2017-03-22T08:42:04Z</time>
      </trkpt>
      <trkpt lat="43.72201" lon="3.44207">
        <ele>381.8</ele>
        <time>2017-03-22T08:42:07Z</time>
      </trkpt>
      <trkpt lat="43.72196" lon="3.44217">
        <ele>382.3</ele>
        <time>2017-03-22T08:42:11Z</time>
      </trkpt>
      <trkpt lat="43.72191" lon="3.44227">
        <ele>382.7</ele>
        <time>2017-03-22T08:42:14Z</time>
      </trkpt>
      <trkpt lat="43.72185" lon="3.44232">
        <ele>383.3</ele>
        <time>2017-03-22T08:42:17Z</time>
      </trkpt>
      <trkpt lat="43.72177" lon="3.44238">
        <ele>384.3</ele>
        <time>2017-03-22T08:42:21Z</time>
      </trkpt>
      <trkpt lat="43.72172" lon="3.44245">
        <ele>385.1</ele>
        <time>2017-03-22T08:42:24Z</time>
      </trkpt>
      <trkpt lat="43.72167" lon="3.44255">
        <ele>385.8</ele>
        <time>2017-03-22T08:42:27Z</time>
      </trkpt>
      <trkpt lat="43.72163" lon="3.44265">
        <ele>386.2</ele>
        <time>2017-03-22T08:42:30Z</time>
      </trkpt>
      <trkpt lat="43.72158" lon="3.44276">
        <ele>386.9</ele>
        <time>2017-03-22T08:42:34Z</time>
      </trkpt>
      <trkpt lat="43.72153" lon="3.44288">
        <ele>387.8</ele>
        <time>2017-03-22T08:42:38Z</time>
      </trkpt>
      <trkpt lat="43.72147" lon="3.44298">
        <ele>388.6</ele>
        <time>2017-03-22T08:42:42Z</time>
      </trkpt>
      <trkpt lat="43.72143" lon="3.44307">
        <ele>389.2</ele>
        <time>2017-03-22T08:42:45Z</time>
      </trkpt>
      <trkpt lat="43.72139" lon="3.44316">
        <ele>389.9</ele>
        <time>2017-03-22T08:42:48Z</time>
      </trkpt>
      <trkpt lat="43.72135" lon="3.44326">
        <ele>390.4</ele>
        <time>2017-03-22T08:42:51Z</time>
      </trkpt>
      <trkpt lat="43.72131" lon="3.44335">
        <ele>391</ele>
        <time>2017-03-22T08:42:54Z</time>
      </trkpt>
      <trkpt lat="43.72128" lon="3.44345">
        <ele>391.8</ele>
        <time>2017-03-22T08:42:57Z</time>
      </trkpt>
      <trkpt lat="43.72124" lon="3.44355">
        <ele>392.5</ele>
        <time>2017-03-22T08:43:00Z</time>
      </trkpt>
      <trkpt lat="43.7212" lon="3.44365">
        <ele>393</ele>
        <time>2017-03-22T08:43:03Z</time>
      </trkpt>
      <trkpt lat="43.72115" lon="3.44375">
        <ele>393.8</ele>
        <time>2017-03-22T08:43:06Z</time>
      </trkpt>
      <trkpt lat="43.72111" lon="3.44385">
        <ele>394.5</ele>
        <time>2017-03-22T08:43:09Z</time>
      </trkpt>
      <trkpt lat="43.72105" lon="3.44395">
        <ele>395.4</ele>
        <time>2017-03-22T08:43:13Z</time>
      </trkpt>
      <trkpt lat="43.721" lon="3.44403">
        <ele>396</ele>
        <time>2017-03-22T08:43:16Z</time>
      </trkpt>
      <trkpt lat="43.72095" lon="3.4441">
        <ele>396.5</ele>
        <time>2017-03-22T08:43:19Z</time>
      </trkpt>
      <trkpt lat="43.72088" lon="3.44419">
        <ele>397</ele>
        <time>2017-03-22T08:43:22Z</time>
      </trkpt>
      <trkpt lat="43.72082" lon="3.44428">
        <ele>397.6</ele>
        <time>2017-03-22T08:43:25Z</time>
      </trkpt>
      <trkpt lat="43.72076" lon="3.44437">
        <ele>398.2</ele>
        <time>2017-03-22T08:43:28Z</time>
      </trkpt>
      <trkpt lat="43.72069" lon="3.44446">
        <ele>398.7</ele>
        <time>2017-03-22T08:43:31Z</time>
      </trkpt>
      <trkpt lat="43.72063" lon="3.44454">
        <ele>399.1</ele>
        <time>2017-03-22T08:43:34Z</time>
      </trkpt>
      <trkpt lat="43.72057" lon="3.44462">
        <ele>399.5</ele>
        <time>2017-03-22T08:43:37Z</time>
      </trkpt>
      <trkpt lat="43.72049" lon="3.44469">
        <ele>400.1</ele>
        <time>2017-03-22T08:43:40Z</time>
      </trkpt>
      <trkpt lat="43.72041" lon="3.44474">
        <ele>400.6</ele>
        <time>2017-03-22T08:43:43Z</time>
      </trkpt>
      <trkpt lat="43.72034" lon="3.44477">
        <ele>401</ele>
        <time>2017-03-22T08:43:46Z</time>
      </trkpt>
      <trkpt lat="43.72027" lon="3.44482">
        <ele>401.3</ele>
        <time>2017-03-22T08:43:49Z</time>
      </trkpt>
      <trkpt lat="43.72018" lon="3.44486">
        <ele>401.7</ele>
        <time>2017-03-22T08:43:53Z</time>
      </trkpt>
      <trkpt lat="43.7201" lon="3.44487">
        <ele>402</ele>
        <time>2017-03-22T08:43:56Z</time>
      </trkpt>
      <trkpt lat="43.72002" lon="3.44485">
        <ele>402.4</ele>
        <time>2017-03-22T08:43:59Z</time>
      </trkpt>
      <trkpt lat="43.71994" lon="3.44483">
        <ele>402.9</ele>
        <time>2017-03-22T08:44:02Z</time>
      </trkpt>
      <trkpt lat="43.71987" lon="3.44479">
        <ele>403.7</ele>
        <time>2017-03-22T08:44:05Z</time>
      </trkpt>
      <trkpt lat="43.71978" lon="3.44475">
        <ele>404.3</ele>
        <time>2017-03-22T08:44:08Z</time>
      </trkpt>
      <trkpt lat="43.71971" lon="3.44471">
        <ele>404.9</ele>
        <time>2017-03-22T08:44:11Z</time>
      </trkpt>
      <trkpt lat="43.71963" lon="3.44467">
        <ele>405.6</ele>
        <time>2017-03-22T08:44:14Z</time>
      </trkpt>
      <trkpt lat="43.71955" lon="3.44465">
        <ele>406.2</ele>
        <time>2017-03-22T08:44:17Z</time>
      </trkpt>
      <trkpt lat="43.71945" lon="3.44464">
        <ele>406.8</ele>
        <time>2017-03-22T08:44:20Z</time>
      </trkpt>
      <trkpt lat="43.71938" lon="3.44467">
        <ele>407.5</ele>
        <time>2017-03-22T08:44:23Z</time>
      </trkpt>
      <trkpt lat="43.71929" lon="3.44476">
        <ele>408</ele>
        <time>2017-03-22T08:44:26Z</time>
      </trkpt>
      <trkpt lat="43.71922" lon="3.44485">
        <ele>408.5</ele>
        <time>2017-03-22T08:44:29Z</time>
      </trkpt>
      <trkpt lat="43.71916" lon="3.44492">
        <ele>409.1</ele>
        <time>2017-03-22T08:44:32Z</time>
      </trkpt>
      <trkpt lat="43.71908" lon="3.44498">
        <ele>409.6</ele>
        <time>2017-03-22T08:44:35Z</time>
      </trkpt>
      <trkpt lat="43.71899" lon="3.44501">
        <ele>410.2</ele>
        <time>2017-03-22T08:44:38Z</time>
      </trkpt>
      <trkpt lat="43.7189" lon="3.44503">
        <ele>410.7</ele>
        <time>2017-03-22T08:44:41Z</time>
      </trkpt>
      <trkpt lat="43.71882" lon="3.44507">
        <ele>410.9</ele>
        <time>2017-03-22T08:44:43Z</time>
      </trkpt>
      <trkpt lat="43.71875" lon="3.4451">
        <ele>412.2</ele>
        <time>2017-03-22T08:44:45Z</time>
      </trkpt>
      <trkpt lat="43.71868" lon="3.44515">
        <ele>412.4</ele>
        <time>2017-03-22T08:44:47Z</time>
      </trkpt>
      <trkpt lat="43.71862" lon="3.4452">
        <ele>412.7</ele>
        <time>2017-03-22T08:44:49Z</time>
      </trkpt>
      <trkpt lat="43.71855" lon="3.4453">
        <ele>413.2</ele>
        <time>2017-03-22T08:44:52Z</time>
      </trkpt>
      <trkpt lat="43.71849" lon="3.4454">
        <ele>413.8</ele>
        <time>2017-03-22T08:44:55Z</time>
      </trkpt>
      <trkpt lat="43.71844" lon="3.44551">
        <ele>414.3</ele>
        <time>2017-03-22T08:44:58Z</time>
      </trkpt>
      <trkpt lat="43.7184" lon="3.44559">
        <ele>414.6</ele>
        <time>2017-03-22T08:45:00Z</time>
      </trkpt>
      <trkpt lat="43.71836" lon="3.44568">
        <ele>414.9</ele>
        <time>2017-03-22T08:45:02Z</time>
      </trkpt>
      <trkpt lat="43.71831" lon="3.4458">
        <ele>415.4</ele>
        <time>2017-03-22T08:45:05Z</time>
      </trkpt>
      <trkpt lat="43.71827" lon="3.44592">
        <ele>415.7</ele>
        <time>2017-03-22T08:45:08Z</time>
      </trkpt>
      <trkpt lat="43.71832" lon="3.446">
        <ele>416.1</ele>
        <time>2017-03-22T08:45:11Z</time>
      </trkpt>
      <trkpt lat="43.71839" lon="3.4459">
        <ele>416.6</ele>
        <time>2017-03-22T08:45:15Z</time>
      </trkpt>
      <trkpt lat="43.71843" lon="3.44582">
        <ele>417.1</ele>
        <time>2017-03-22T08:45:18Z</time>
      </trkpt>
      <trkpt lat="43.71849" lon="3.44572">
        <ele>417.6</ele>
        <time>2017-03-22T08:45:21Z</time>
      </trkpt>
      <trkpt lat="43.71856" lon="3.44563">
        <ele>418.1</ele>
        <time>2017-03-22T08:45:24Z</time>
      </trkpt>
      <trkpt lat="43.71864" lon="3.44557">
        <ele>418.5</ele>
        <time>2017-03-22T08:45:27Z</time>
      </trkpt>
      <trkpt lat="43.71872" lon="3.44552">
        <ele>418.9</ele>
        <time>2017-03-22T08:45:30Z</time>
      </trkpt>
      <trkpt lat="43.71878" lon="3.44548">
        <ele>419.3</ele>
        <time>2017-03-22T08:45:33Z</time>
      </trkpt>
      <trkpt lat="43.71887" lon="3.44543">
        <ele>419.6</ele>
        <time>2017-03-22T08:45:36Z</time>
      </trkpt>
      <trkpt lat="43.71896" lon="3.44539">
        <ele>420.1</ele>
        <time>2017-03-22T08:45:39Z</time>
      </trkpt>
      <trkpt lat="43.71904" lon="3.44536">
        <ele>420.5</ele>
        <time>2017-03-22T08:45:42Z</time>
      </trkpt>
      <trkpt lat="43.71915" lon="3.44534">
        <ele>421.2</ele>
        <time>2017-03-22T08:45:46Z</time>
      </trkpt>
      <trkpt lat="43.71924" lon="3.44533">
        <ele>421.8</ele>
        <time>2017-03-22T08:45:49Z</time>
      </trkpt>
      <trkpt lat="43.71934" lon="3.44533">
        <ele>422.4</ele>
        <time>2017-03-22T08:45:52Z</time>
      </trkpt>
      <trkpt lat="43.71943" lon="3.44534">
        <ele>423</ele>
        <time>2017-03-22T08:45:55Z</time>
      </trkpt>
      <trkpt lat="43.71953" lon="3.44538">
        <ele>423.6</ele>
        <time>2017-03-22T08:45:58Z</time>
      </trkpt>
      <trkpt lat="43.71961" lon="3.44542">
        <ele>424</ele>
        <time>2017-03-22T08:46:00Z</time>
      </trkpt>
      <trkpt lat="43.71968" lon="3.44547">
        <ele>424.6</ele>
        <time>2017-03-22T08:46:03Z</time>
      </trkpt>
      <trkpt lat="43.71977" lon="3.44551">
        <ele>425.3</ele>
        <time>2017-03-22T08:46:06Z</time>
      </trkpt>
      <trkpt lat="43.71985" lon="3.44556">
        <ele>425.9</ele>
        <time>2017-03-22T08:46:09Z</time>
      </trkpt>
      <trkpt lat="43.71993" lon="3.4456">
        <ele>426.4</ele>
        <time>2017-03-22T08:46:12Z</time>
      </trkpt>
      <trkpt lat="43.72" lon="3.44563">
        <ele>426.7</ele>
        <time>2017-03-22T08:46:14Z</time>
      </trkpt>
      <trkpt lat="43.72007" lon="3.44566">
        <ele>427.3</ele>
        <time>2017-03-22T08:46:17Z</time>
      </trkpt>
      <trkpt lat="43.72016" lon="3.44567">
        <ele>427.8</ele>
        <time>2017-03-22T08:46:20Z</time>
      </trkpt>
      <trkpt lat="43.72025" lon="3.44569">
        <ele>428.4</ele>
        <time>2017-03-22T08:46:23Z</time>
      </trkpt>
      <trkpt lat="43.72032" lon="3.4457">
        <ele>428.8</ele>
        <time>2017-03-22T08:46:25Z</time>
      </trkpt>
      <trkpt lat="43.7204" lon="3.4457">
        <ele>429.3</ele>
        <time>2017-03-22T08:46:27Z</time>
      </trkpt>
      <trkpt lat="43.72048" lon="3.44568">
        <ele>429.9</ele>
        <time>2017-03-22T08:46:30Z</time>
      </trkpt>
      <trkpt lat="43.72056" lon="3.44567">
        <ele>430.6</ele>
        <time>2017-03-22T08:46:33Z</time>
      </trkpt>
      <trkpt lat="43.72064" lon="3.44565">
        <ele>431.3</ele>
        <time>2017-03-22T08:46:36Z</time>
      </trkpt>
      <trkpt lat="43.72072" lon="3.44562">
        <ele>432</ele>
        <time>2017-03-22T08:46:39Z</time>
      </trkpt>
      <trkpt lat="43.7208" lon="3.44557">
        <ele>432.6</ele>
        <time>2017-03-22T08:46:42Z</time>
      </trkpt>
      <trkpt lat="43.72088" lon="3.44552">
        <ele>433.3</ele>
        <time>2017-03-22T08:46:46Z</time>
      </trkpt>
      <trkpt lat="43.72094" lon="3.44547">
        <ele>434.2</ele>
        <time>2017-03-22T08:46:49Z</time>
      </trkpt>
      <trkpt lat="43.72102" lon="3.44541">
        <ele>435.1</ele>
        <time>2017-03-22T08:46:52Z</time>
      </trkpt>
      <trkpt lat="43.72109" lon="3.44535">
        <ele>435.8</ele>
        <time>2017-03-22T08:46:55Z</time>
      </trkpt>
      <trkpt lat="43.72116" lon="3.44528">
        <ele>436.5</ele>
        <time>2017-03-22T08:46:58Z</time>
      </trkpt>
      <trkpt lat="43.72125" lon="3.44518">
        <ele>437</ele>
        <time>2017-03-22T08:47:01Z</time>
      </trkpt>
      <trkpt lat="43.7213" lon="3.44511">
        <ele>437.4</ele>
        <time>2017-03-22T08:47:03Z</time>
      </trkpt>
      <trkpt lat="43.72137" lon="3.44502">
        <ele>438</ele>
        <time>2017-03-22T08:47:06Z</time>
      </trkpt>
      <trkpt lat="43.72142" lon="3.44494">
        <ele>438.4</ele>
        <time>2017-03-22T08:47:08Z</time>
      </trkpt>
      <trkpt lat="43.72148" lon="3.44481">
        <ele>438.9</ele>
        <time>2017-03-22T08:47:11Z</time>
      </trkpt>
      <trkpt lat="43.72154" lon="3.44468">
        <ele>440.4</ele>
        <time>2017-03-22T08:47:14Z</time>
      </trkpt>
      <trkpt lat="43.72159" lon="3.44456">
        <ele>441.5</ele>
        <time>2017-03-22T08:47:16Z</time>
      </trkpt>
      <trkpt lat="43.72163" lon="3.44442">
        <ele>443.3</ele>
        <time>2017-03-22T08:47:18Z</time>
      </trkpt>
      <trkpt lat="43.72165" lon="3.44426">
        <ele>444.8</ele>
        <time>2017-03-22T08:47:20Z</time>
      </trkpt>
      <trkpt lat="43.72168" lon="3.44417">
        <ele>445.2</ele>
        <time>2017-03-22T08:47:21Z</time>
      </trkpt>
      <trkpt lat="43.72172" lon="3.44407">
        <ele>445.1</ele>
        <time>2017-03-22T08:47:22Z</time>
      </trkpt>
      <trkpt lat="43.72176" lon="3.44396">
        <ele>444.9</ele>
        <time>2017-03-22T08:47:24Z</time>
      </trkpt>
      <trkpt lat="43.72181" lon="3.44386">
        <ele>444.7</ele>
        <time>2017-03-22T08:47:29Z</time>
      </trkpt>
      <trkpt lat="43.72186" lon="3.44379">
        <ele>444.3</ele>
        <time>2017-03-22T08:47:32Z</time>
      </trkpt>
      <trkpt lat="43.72195" lon="3.44373">
        <ele>443.7</ele>
        <time>2017-03-22T08:47:36Z</time>
      </trkpt>
      <trkpt lat="43.72203" lon="3.44369">
        <ele>443.4</ele>
        <time>2017-03-22T08:47:39Z</time>
      </trkpt>
      <trkpt lat="43.72211" lon="3.44368">
        <ele>443.4</ele>
        <time>2017-03-22T08:47:41Z</time>
      </trkpt>
      <trkpt lat="43.72218" lon="3.44367">
        <ele>443.3</ele>
        <time>2017-03-22T08:47:43Z</time>
      </trkpt>
      <trkpt lat="43.72229" lon="3.44365">
        <ele>442.3</ele>
        <time>2017-03-22T08:47:46Z</time>
      </trkpt>
      <trkpt lat="43.72239" lon="3.44362">
        <ele>441.1</ele>
        <time>2017-03-22T08:47:48Z</time>
      </trkpt>
      <trkpt lat="43.72249" lon="3.44358">
        <ele>441.7</ele>
        <time>2017-03-22T08:47:50Z</time>
      </trkpt>
      <trkpt lat="43.72256" lon="3.44353">
        <ele>442.4</ele>
        <time>2017-03-22T08:47:52Z</time>
      </trkpt>
      <trkpt lat="43.72262" lon="3.44348">
        <ele>442.4</ele>
        <time>2017-03-22T08:47:57Z</time>
      </trkpt>
      <trkpt lat="43.72269" lon="3.44341">
        <ele>442.4</ele>
        <time>2017-03-22T08:48:01Z</time>
      </trkpt>
      <trkpt lat="43.72278" lon="3.44335">
        <ele>442.2</ele>
        <time>2017-03-22T08:48:04Z</time>
      </trkpt>
      <trkpt lat="43.72285" lon="3.44327">
        <ele>441.9</ele>
        <time>2017-03-22T08:48:07Z</time>
      </trkpt>
      <trkpt lat="43.72292" lon="3.44321">
        <ele>441.6</ele>
        <time>2017-03-22T08:48:10Z</time>
      </trkpt>
      <trkpt lat="43.72298" lon="3.44312">
        <ele>441.3</ele>
        <time>2017-03-22T08:48:14Z</time>
      </trkpt>
      <trkpt lat="43.72305" lon="3.44302">
        <ele>441</ele>
        <time>2017-03-22T08:48:19Z</time>
      </trkpt>
      <trkpt lat="43.72309" lon="3.44294">
        <ele>440.7</ele>
        <time>2017-03-22T08:48:22Z</time>
      </trkpt>
      <trkpt lat="43.72314" lon="3.44286">
        <ele>440.6</ele>
        <time>2017-03-22T08:48:25Z</time>
      </trkpt>
      <trkpt lat="43.72319" lon="3.44276">
        <ele>440.3</ele>
        <time>2017-03-22T08:48:30Z</time>
      </trkpt>
      <trkpt lat="43.7232" lon="3.44272">
        <ele>440.2</ele>
        <time>2017-03-22T08:48:44Z</time>
      </trkpt>
      <trkpt lat="43.72327" lon="3.44266">
        <ele>440.5</ele>
        <time>2017-03-22T08:48:51Z</time>
      </trkpt>
      <trkpt lat="43.72334" lon="3.44261">
        <ele>440.2</ele>
        <time>2017-03-22T08:48:55Z</time>
      </trkpt>
      <trkpt lat="43.72341" lon="3.44258">
        <ele>440.1</ele>
        <time>2017-03-22T08:48:58Z</time>
      </trkpt>
      <trkpt lat="43.72351" lon="3.44259">
        <ele>440</ele>
        <time>2017-03-22T08:49:02Z</time>
      </trkpt>
      <trkpt lat="43.72358" lon="3.44262">
        <ele>440</ele>
        <time>2017-03-22T08:49:05Z</time>
      </trkpt>
      <trkpt lat="43.72367" lon="3.44267">
        <ele>440</ele>
        <time>2017-03-22T08:49:08Z</time>
      </trkpt>
      <trkpt lat="43.72374" lon="3.44263">
        <ele>439.9</ele>
        <time>2017-03-22T08:49:14Z</time>
      </trkpt>
      <trkpt lat="43.72374" lon="3.44266">
        <ele>440.3</ele>
        <time>2017-03-22T08:49:21Z</time>
      </trkpt>
      <trkpt lat="43.7237" lon="3.44264">
        <ele>440.8</ele>
        <time>2017-03-22T08:49:28Z</time>
      </trkpt>
      <trkpt lat="43.72369" lon="3.44269">
        <ele>441.4</ele>
        <time>2017-03-22T08:49:35Z</time>
      </trkpt>
      <trkpt lat="43.72369" lon="3.44273">
        <ele>441.5</ele>
        <time>2017-03-22T08:49:42Z</time>
      </trkpt>
      <trkpt lat="43.72364" lon="3.44281">
        <ele>442.1</ele>
        <time>2017-03-22T08:49:49Z</time>
      </trkpt>
      <trkpt lat="43.72363" lon="3.44291">
        <ele>442.9</ele>
        <time>2017-03-22T08:49:56Z</time>
      </trkpt>
      <trkpt lat="43.72362" lon="3.44297">
        <ele>444.3</ele>
        <time>2017-03-22T08:50:11Z</time>
      </trkpt>
      <trkpt lat="43.72358" lon="3.44306">
        <ele>445</ele>
        <time>2017-03-22T08:50:16Z</time>
      </trkpt>
      <trkpt lat="43.72359" lon="3.44314">
        <ele>445.7</ele>
        <time>2017-03-22T08:50:23Z</time>
      </trkpt>
      <trkpt lat="43.72359" lon="3.44318">
        <ele>447.2</ele>
        <time>2017-03-22T08:50:36Z</time>
      </trkpt>
      <trkpt lat="43.7236" lon="3.44325">
        <ele>447.1</ele>
        <time>2017-03-22T08:50:43Z</time>
      </trkpt>
      <trkpt lat="43.7236" lon="3.44332">
        <ele>447.1</ele>
        <time>2017-03-22T08:50:50Z</time>
      </trkpt>
      <trkpt lat="43.7236" lon="3.44337">
        <ele>446.8</ele>
        <time>2017-03-22T08:50:57Z</time>
      </trkpt>
      <trkpt lat="43.72362" lon="3.44341">
        <ele>446.4</ele>
        <time>2017-03-22T08:51:04Z</time>
      </trkpt>
      <trkpt lat="43.72366" lon="3.44341">
        <ele>446.4</ele>
        <time>2017-03-22T08:51:11Z</time>
      </trkpt>
      <trkpt lat="43.72366" lon="3.44336">
        <ele>446.3</ele>
        <time>2017-03-22T08:51:18Z</time>
      </trkpt>
      <trkpt lat="43.72366" lon="3.44329">
        <ele>446.5</ele>
        <time>2017-03-22T08:51:25Z</time>
      </trkpt>
      <trkpt lat="43.72367" lon="3.4432">
        <ele>447</ele>
        <time>2017-03-22T08:51:32Z</time>
      </trkpt>
      <trkpt lat="43.72369" lon="3.44309">
        <ele>447</ele>
        <time>2017-03-22T08:51:38Z</time>
      </trkpt>
      <trkpt lat="43.7237" lon="3.44297">
        <ele>447.2</ele>
        <time>2017-03-22T08:51:45Z</time>
      </trkpt>
      <trkpt lat="43.72372" lon="3.44289">
        <ele>447.2</ele>
        <time>2017-03-22T08:51:52Z</time>
      </trkpt>
      <trkpt lat="43.72369" lon="3.44281">
        <ele>447</ele>
        <time>2017-03-22T08:51:59Z</time>
      </trkpt>
      <trkpt lat="43.72369" lon="3.44277">
        <ele>446.9</ele>
        <time>2017-03-22T08:52:06Z</time>
      </trkpt>
      <trkpt lat="43.72369" lon="3.44274">
        <ele>446.4</ele>
        <time>2017-03-22T08:52:13Z</time>
      </trkpt>
      <trkpt lat="43.7237" lon="3.44271">
        <ele>446.2</ele>
        <time>2017-03-22T08:52:22Z</time>
      </trkpt>
      <trkpt lat="43.7237" lon="3.44274">
        <ele>445</ele>
        <time>2017-03-22T08:52:53Z</time>
      </trkpt>
      <trkpt lat="43.72372" lon="3.44271">
        <ele>444.7</ele>
        <time>2017-03-22T08:53:00Z</time>
      </trkpt>
      <trkpt lat="43.72373" lon="3.44276">
        <ele>443.6</ele>
        <time>2017-03-22T08:53:17Z</time>
      </trkpt>
      <trkpt lat="43.72368" lon="3.44276">
        <ele>443.6</ele>
        <time>2017-03-22T08:53:24Z</time>
      </trkpt>
      <trkpt lat="43.7237" lon="3.44274">
        <ele>443</ele>
        <time>2017-03-22T08:53:45Z</time>
      </trkpt>
      <trkpt lat="43.72371" lon="3.44274">
        <ele>442.1</ele>
        <time>2017-03-22T08:55:01Z</time>
      </trkpt>
      <trkpt lat="43.72367" lon="3.4427">
        <ele>442.5</ele>
        <time>2017-03-22T08:56:10Z</time>
      </trkpt>
      <trkpt lat="43.72373" lon="3.44264">
        <ele>442.4</ele>
        <time>2017-03-22T08:57:27Z</time>
      </trkpt>
      <trkpt lat="43.72377" lon="3.44253">
        <ele>442.1</ele>
        <time>2017-03-22T08:57:33Z</time>
      </trkpt>
      <trkpt lat="43.72384" lon="3.44248">
        <ele>442</ele>
        <time>2017-03-22T08:57:36Z</time>
      </trkpt>
      <trkpt lat="43.72391" lon="3.44246">
        <ele>441.8</ele>
        <time>2017-03-22T08:57:41Z</time>
      </trkpt>
      <trkpt lat="43.72396" lon="3.4424">
        <ele>441.6</ele>
        <time>2017-03-22T08:57:48Z</time>
      </trkpt>
      <trkpt lat="43.72398" lon="3.44228">
        <ele>441.6</ele>
        <time>2017-03-22T08:57:52Z</time>
      </trkpt>
      <trkpt lat="43.724" lon="3.44214">
        <ele>441.4</ele>
        <time>2017-03-22T08:57:56Z</time>
      </trkpt>
      <trkpt lat="43.72406" lon="3.44207">
        <ele>441.2</ele>
        <time>2017-03-22T08:57:59Z</time>
      </trkpt>
      <trkpt lat="43.72412" lon="3.44201">
        <ele>440.6</ele>
        <time>2017-03-22T08:58:02Z</time>
      </trkpt>
      <trkpt lat="43.72413" lon="3.44191">
        <ele>440.1</ele>
        <time>2017-03-22T08:58:05Z</time>
      </trkpt>
      <trkpt lat="43.7241" lon="3.44178">
        <ele>438.4</ele>
        <time>2017-03-22T08:58:07Z</time>
      </trkpt>
      <trkpt lat="43.72406" lon="3.44167">
        <ele>437.8</ele>
        <time>2017-03-22T08:58:10Z</time>
      </trkpt>
      <trkpt lat="43.72409" lon="3.44156">
        <ele>437</ele>
        <time>2017-03-22T08:58:14Z</time>
      </trkpt>
      <trkpt lat="43.72408" lon="3.44144">
        <ele>436.2</ele>
        <time>2017-03-22T08:58:17Z</time>
      </trkpt>
      <trkpt lat="43.72404" lon="3.44132">
        <ele>435.1</ele>
        <time>2017-03-22T08:58:20Z</time>
      </trkpt>
      <trkpt lat="43.72398" lon="3.44125">
        <ele>433.9</ele>
        <time>2017-03-22T08:58:23Z</time>
      </trkpt>
      <trkpt lat="43.72402" lon="3.44116">
        <ele>431.5</ele>
        <time>2017-03-22T08:58:29Z</time>
      </trkpt>
      <trkpt lat="43.72408" lon="3.44107">
        <ele>429.8</ele>
        <time>2017-03-22T08:58:33Z</time>
      </trkpt>
      <trkpt lat="43.72415" lon="3.44103">
        <ele>428.5</ele>
        <time>2017-03-22T08:58:36Z</time>
      </trkpt>
      <trkpt lat="43.72422" lon="3.44098">
        <ele>425.8</ele>
        <time>2017-03-22T08:58:42Z</time>
      </trkpt>
      <trkpt lat="43.72431" lon="3.44101">
        <ele>424.3</ele>
        <time>2017-03-22T08:58:45Z</time>
      </trkpt>
      <trkpt lat="43.72439" lon="3.44105">
        <ele>422.8</ele>
        <time>2017-03-22T08:58:48Z</time>
      </trkpt>
      <trkpt lat="43.72449" lon="3.44107">
        <ele>421.2</ele>
        <time>2017-03-22T08:58:51Z</time>
      </trkpt>
      <trkpt lat="43.72457" lon="3.44106">
        <ele>419.2</ele>
        <time>2017-03-22T08:58:55Z</time>
      </trkpt>
      <trkpt lat="43.72462" lon="3.44097">
        <ele>417.5</ele>
        <time>2017-03-22T08:58:58Z</time>
      </trkpt>
      <trkpt lat="43.72467" lon="3.44089">
        <ele>415.6</ele>
        <time>2017-03-22T08:59:01Z</time>
      </trkpt>
      <trkpt lat="43.72475" lon="3.44085">
        <ele>407.3</ele>
        <time>2017-03-22T08:59:05Z</time>
      </trkpt>
      <trkpt lat="43.72483" lon="3.44083">
        <ele>405.4</ele>
        <time>2017-03-22T08:59:08Z</time>
      </trkpt>
      <trkpt lat="43.72493" lon="3.44078">
        <ele>402.4</ele>
        <time>2017-03-22T08:59:13Z</time>
      </trkpt>
      <trkpt lat="43.725" lon="3.44073">
        <ele>400.8</ele>
        <time>2017-03-22T08:59:16Z</time>
      </trkpt>
      <trkpt lat="43.72506" lon="3.44066">
        <ele>399.1</ele>
        <time>2017-03-22T08:59:19Z</time>
      </trkpt>
      <trkpt lat="43.72514" lon="3.4406">
        <ele>395.7</ele>
        <time>2017-03-22T08:59:25Z</time>
      </trkpt>
      <trkpt lat="43.7252" lon="3.44051">
        <ele>393.6</ele>
        <time>2017-03-22T08:59:28Z</time>
      </trkpt>
      <trkpt lat="43.72524" lon="3.44043">
        <ele>391.3</ele>
        <time>2017-03-22T08:59:31Z</time>
      </trkpt>
      <trkpt lat="43.72527" lon="3.44034">
        <ele>387.2</ele>
        <time>2017-03-22T08:59:36Z</time>
      </trkpt>
      <trkpt lat="43.72529" lon="3.44021">
        <ele>383.1</ele>
        <time>2017-03-22T08:59:42Z</time>
      </trkpt>
      <trkpt lat="43.72532" lon="3.44012">
        <ele>380</ele>
        <time>2017-03-22T08:59:47Z</time>
      </trkpt>
      <trkpt lat="43.72529" lon="3.44014">
        <ele>374</ele>
        <time>2017-03-22T09:00:08Z</time>
      </trkpt>
      <trkpt lat="43.72529" lon="3.44014">
        <ele>373</ele>
        <time>2017-03-22T09:00:15Z</time>
      </trkpt>
      <trkpt lat="43.72527" lon="3.4402">
        <ele>371.6</ele>
        <time>2017-03-22T09:00:22Z</time>
      </trkpt>
      <trkpt lat="43.72526" lon="3.44014">
        <ele>371.2</ele>
        <time>2017-03-22T09:00:29Z</time>
      </trkpt>
      <trkpt lat="43.72526" lon="3.44012">
        <ele>369.4</ele>
        <time>2017-03-22T09:00:49Z</time>
      </trkpt>
      <trkpt lat="43.72528" lon="3.44009">
        <ele>368.5</ele>
        <time>2017-03-22T09:00:56Z</time>
      </trkpt>
      <trkpt lat="43.72529" lon="3.44012">
        <ele>366.9</ele>
        <time>2017-03-22T09:01:03Z</time>
      </trkpt>
      <trkpt lat="43.72531" lon="3.44014">
        <ele>363.6</ele>
        <time>2017-03-22T09:01:24Z</time>
      </trkpt>
      <trkpt lat="43.72531" lon="3.44009">
        <ele>362.4</ele>
        <time>2017-03-22T09:01:36Z</time>
      </trkpt>
      <trkpt lat="43.72529" lon="3.44013">
        <ele>358.4</ele>
        <time>2017-03-22T09:01:58Z</time>
      </trkpt>
      <trkpt lat="43.72535" lon="3.4402">
        <ele>357.8</ele>
        <time>2017-03-22T09:02:02Z</time>
      </trkpt>
      <trkpt lat="43.72539" lon="3.44029">
        <ele>356.8</ele>
        <time>2017-03-22T09:02:07Z</time>
      </trkpt>
      <trkpt lat="43.72543" lon="3.44038">
        <ele>356</ele>
        <time>2017-03-22T09:02:11Z</time>
      </trkpt>
      <trkpt lat="43.72549" lon="3.44045">
        <ele>355.3</ele>
        <time>2017-03-22T09:02:16Z</time>
      </trkpt>
      <trkpt lat="43.72553" lon="3.44049">
        <ele>354.5</ele>
        <time>2017-03-22T09:02:23Z</time>
      </trkpt>
      <trkpt lat="43.72553" lon="3.44052">
        <ele>352.8</ele>
        <time>2017-03-22T09:02:30Z</time>
      </trkpt>
      <trkpt lat="43.72548" lon="3.44042">
        <ele>352.1</ele>
        <time>2017-03-22T09:02:37Z</time>
      </trkpt>
      <trkpt lat="43.72545" lon="3.44033">
        <ele>352</ele>
        <time>2017-03-22T09:02:40Z</time>
      </trkpt>
      <trkpt lat="43.72541" lon="3.44024">
        <ele>351.9</ele>
        <time>2017-03-22T09:02:44Z</time>
      </trkpt>
      <trkpt lat="43.72536" lon="3.44015">
        <ele>351.9</ele>
        <time>2017-03-22T09:02:49Z</time>
      </trkpt>
      <trkpt lat="43.72533" lon="3.44005">
        <ele>352.1</ele>
        <time>2017-03-22T09:02:53Z</time>
      </trkpt>
      <trkpt lat="43.72529" lon="3.43995">
        <ele>352.2</ele>
        <time>2017-03-22T09:02:57Z</time>
      </trkpt>
      <trkpt lat="43.72525" lon="3.43985">
        <ele>352.2</ele>
        <time>2017-03-22T09:03:00Z</time>
      </trkpt>
      <trkpt lat="43.72521" lon="3.43976">
        <ele>352.3</ele>
        <time>2017-03-22T09:03:04Z</time>
      </trkpt>
      <trkpt lat="43.72519" lon="3.43964">
        <ele>352.3</ele>
        <time>2017-03-22T09:03:11Z</time>
      </trkpt>
      <trkpt lat="43.7252" lon="3.43953">
        <ele>351.5</ele>
        <time>2017-03-22T09:03:15Z</time>
      </trkpt>
      <trkpt lat="43.72521" lon="3.43941">
        <ele>351.1</ele>
        <time>2017-03-22T09:03:17Z</time>
      </trkpt>
      <trkpt lat="43.72519" lon="3.43928">
        <ele>350.7</ele>
        <time>2017-03-22T09:03:19Z</time>
      </trkpt>
      <trkpt lat="43.72515" lon="3.43925">
        <ele>349.1</ele>
        <time>2017-03-22T09:03:26Z</time>
      </trkpt>
      <trkpt lat="43.72512" lon="3.43927">
        <ele>347.5</ele>
        <time>2017-03-22T09:03:33Z</time>
      </trkpt>
      <trkpt lat="43.72514" lon="3.4393">
        <ele>345.4</ele>
        <time>2017-03-22T09:03:44Z</time>
      </trkpt>
      <trkpt lat="43.72517" lon="3.4393">
        <ele>344.6</ele>
        <time>2017-03-22T09:03:51Z</time>
      </trkpt>
      <trkpt lat="43.7252" lon="3.43919">
        <ele>343.2</ele>
        <time>2017-03-22T09:04:03Z</time>
      </trkpt>
      <trkpt lat="43.72519" lon="3.43904">
        <ele>342.2</ele>
        <time>2017-03-22T09:04:09Z</time>
      </trkpt>
      <trkpt lat="43.72521" lon="3.43891">
        <ele>341.2</ele>
        <time>2017-03-22T09:04:13Z</time>
      </trkpt>
      <trkpt lat="43.72522" lon="3.43879">
        <ele>340.5</ele>
        <time>2017-03-22T09:04:15Z</time>
      </trkpt>
      <trkpt lat="43.72519" lon="3.43867">
        <ele>339.5</ele>
        <time>2017-03-22T09:04:18Z</time>
      </trkpt>
      <trkpt lat="43.72519" lon="3.43856">
        <ele>338.7</ele>
        <time>2017-03-22T09:04:21Z</time>
      </trkpt>
      <trkpt lat="43.7252" lon="3.43844">
        <ele>338.2</ele>
        <time>2017-03-22T09:04:23Z</time>
      </trkpt>
      <trkpt lat="43.72518" lon="3.43833">
        <ele>335.2</ele>
        <time>2017-03-22T09:04:25Z</time>
      </trkpt>
      <trkpt lat="43.72519" lon="3.43822">
        <ele>334.1</ele>
        <time>2017-03-22T09:04:29Z</time>
      </trkpt>
      <trkpt lat="43.72526" lon="3.43813">
        <ele>332.5</ele>
        <time>2017-03-22T09:04:33Z</time>
      </trkpt>
      <trkpt lat="43.7253" lon="3.43804">
        <ele>331.1</ele>
        <time>2017-03-22T09:04:36Z</time>
      </trkpt>
      <trkpt lat="43.72537" lon="3.43797">
        <ele>328.3</ele>
        <time>2017-03-22T09:04:41Z</time>
      </trkpt>
      <trkpt lat="43.72541" lon="3.43785">
        <ele>325.8</ele>
        <time>2017-03-22T09:04:45Z</time>
      </trkpt>
      <trkpt lat="43.72542" lon="3.43783">
        <ele>323</ele>
        <time>2017-03-22T09:04:52Z</time>
      </trkpt>
      <trkpt lat="43.72537" lon="3.4377">
        <ele>314</ele>
        <time>2017-03-22T09:05:31Z</time>
      </trkpt>
      <trkpt lat="43.72535" lon="3.43759">
        <ele>312.9</ele>
        <time>2017-03-22T09:05:35Z</time>
      </trkpt>
      <trkpt lat="43.72534" lon="3.43748">
        <ele>312.3</ele>
        <time>2017-03-22T09:05:37Z</time>
      </trkpt>
      <trkpt lat="43.72534" lon="3.43737">
        <ele>311.6</ele>
        <time>2017-03-22T09:05:39Z</time>
      </trkpt>
      <trkpt lat="43.72534" lon="3.43725">
        <ele>310.7</ele>
        <time>2017-03-22T09:05:42Z</time>
      </trkpt>
      <trkpt lat="43.72534" lon="3.43713">
        <ele>307.2</ele>
        <time>2017-03-22T09:05:44Z</time>
      </trkpt>
      <trkpt lat="43.72532" lon="3.43701">
        <ele>304.1</ele>
        <time>2017-03-22T09:05:46Z</time>
      </trkpt>
      <trkpt lat="43.72531" lon="3.43691">
        <ele>303.3</ele>
        <time>2017-03-22T09:05:50Z</time>
      </trkpt>
      <trkpt lat="43.72532" lon="3.43679">
        <ele>302.7</ele>
        <time>2017-03-22T09:05:54Z</time>
      </trkpt>
      <trkpt lat="43.72533" lon="3.43669">
        <ele>302.2</ele>
        <time>2017-03-22T09:05:58Z</time>
      </trkpt>
      <trkpt lat="43.72536" lon="3.43658">
        <ele>301.8</ele>
        <time>2017-03-22T09:06:00Z</time>
      </trkpt>
      <trkpt lat="43.72538" lon="3.43649">
        <ele>301</ele>
        <time>2017-03-22T09:06:03Z</time>
      </trkpt>
      <trkpt lat="43.72544" lon="3.4364">
        <ele>300</ele>
        <time>2017-03-22T09:06:07Z</time>
      </trkpt>
      <trkpt lat="43.7255" lon="3.4363">
        <ele>299.3</ele>
        <time>2017-03-22T09:06:09Z</time>
      </trkpt>
      <trkpt lat="43.72551" lon="3.43618">
        <ele>298.7</ele>
        <time>2017-03-22T09:06:11Z</time>
      </trkpt>
      <trkpt lat="43.72552" lon="3.43605">
        <ele>297.7</ele>
        <time>2017-03-22T09:06:14Z</time>
      </trkpt>
      <trkpt lat="43.72551" lon="3.43595">
        <ele>296.9</ele>
        <time>2017-03-22T09:06:17Z</time>
      </trkpt>
      <trkpt lat="43.72557" lon="3.43584">
        <ele>291.7</ele>
        <time>2017-03-22T09:06:20Z</time>
      </trkpt>
      <trkpt lat="43.72562" lon="3.43576">
        <ele>285.1</ele>
        <time>2017-03-22T09:06:22Z</time>
      </trkpt>
      <trkpt lat="43.72567" lon="3.43567">
        <ele>284.4</ele>
        <time>2017-03-22T09:06:24Z</time>
      </trkpt>
      <trkpt lat="43.72573" lon="3.4356">
        <ele>283.3</ele>
        <time>2017-03-22T09:06:27Z</time>
      </trkpt>
      <trkpt lat="43.72573" lon="3.43547">
        <ele>281.9</ele>
        <time>2017-03-22T09:06:31Z</time>
      </trkpt>
      <trkpt lat="43.72573" lon="3.43536">
        <ele>280</ele>
        <time>2017-03-22T09:06:37Z</time>
      </trkpt>
      <trkpt lat="43.72573" lon="3.4353">
        <ele>277.4</ele>
        <time>2017-03-22T09:06:44Z</time>
      </trkpt>
      <trkpt lat="43.72573" lon="3.43524">
        <ele>275.5</ele>
        <time>2017-03-22T09:06:51Z</time>
      </trkpt>
      <trkpt lat="43.7257" lon="3.43518">
        <ele>271.2</ele>
        <time>2017-03-22T09:07:05Z</time>
      </trkpt>
      <trkpt lat="43.72572" lon="3.43514">
        <ele>268.3</ele>
        <time>2017-03-22T09:07:23Z</time>
      </trkpt>
      <trkpt lat="43.72575" lon="3.4351">
        <ele>265.7</ele>
        <time>2017-03-22T09:07:39Z</time>
      </trkpt>
      <trkpt lat="43.72576" lon="3.43508">
        <ele>265.5</ele>
        <time>2017-03-22T09:07:46Z</time>
      </trkpt>
      <trkpt lat="43.72577" lon="3.43502">
        <ele>265.1</ele>
        <time>2017-03-22T09:08:07Z</time>
      </trkpt>
      <trkpt lat="43.72578" lon="3.43498">
        <ele>265</ele>
        <time>2017-03-22T09:08:14Z</time>
      </trkpt>
      <trkpt lat="43.72579" lon="3.43495">
        <ele>264.7</ele>
        <time>2017-03-22T09:08:21Z</time>
      </trkpt>
      <trkpt lat="43.72583" lon="3.43497">
        <ele>264.7</ele>
        <time>2017-03-22T09:08:28Z</time>
      </trkpt>
      <trkpt lat="43.72586" lon="3.435">
        <ele>265</ele>
        <time>2017-03-22T09:08:35Z</time>
      </trkpt>
      <trkpt lat="43.72587" lon="3.43506">
        <ele>266</ele>
        <time>2017-03-22T09:08:42Z</time>
      </trkpt>
      <trkpt lat="43.72588" lon="3.43514">
        <ele>267.2</ele>
        <time>2017-03-22T09:08:49Z</time>
      </trkpt>
      <trkpt lat="43.72589" lon="3.43519">
        <ele>268.6</ele>
        <time>2017-03-22T09:08:56Z</time>
      </trkpt>
      <trkpt lat="43.72592" lon="3.43528">
        <ele>269.5</ele>
        <time>2017-03-22T09:09:02Z</time>
      </trkpt>
      <trkpt lat="43.72596" lon="3.43537">
        <ele>269.8</ele>
        <time>2017-03-22T09:09:08Z</time>
      </trkpt>
      <trkpt lat="43.72602" lon="3.43542">
        <ele>270.5</ele>
        <time>2017-03-22T09:09:15Z</time>
      </trkpt>
      <trkpt lat="43.72605" lon="3.43544">
        <ele>270.8</ele>
        <time>2017-03-22T09:09:22Z</time>
      </trkpt>
      <trkpt lat="43.72608" lon="3.43549">
        <ele>271.7</ele>
        <time>2017-03-22T09:09:29Z</time>
      </trkpt>
      <trkpt lat="43.72609" lon="3.43549">
        <ele>272.3</ele>
        <time>2017-03-22T09:09:36Z</time>
      </trkpt>
      <trkpt lat="43.72614" lon="3.43552">
        <ele>273.7</ele>
        <time>2017-03-22T09:09:50Z</time>
      </trkpt>
      <trkpt lat="43.72618" lon="3.43555">
        <ele>274.4</ele>
        <time>2017-03-22T09:09:57Z</time>
      </trkpt>
      <trkpt lat="43.72622" lon="3.4356">
        <ele>275.4</ele>
        <time>2017-03-22T09:10:04Z</time>
      </trkpt>
      <trkpt lat="43.72625" lon="3.43563">
        <ele>276.2</ele>
        <time>2017-03-22T09:10:11Z</time>
      </trkpt>
      <trkpt lat="43.7263" lon="3.43565">
        <ele>276.7</ele>
        <time>2017-03-22T09:10:18Z</time>
      </trkpt>
      <trkpt lat="43.72634" lon="3.43556">
        <ele>278.2</ele>
        <time>2017-03-22T09:10:35Z</time>
      </trkpt>
      <trkpt lat="43.72642" lon="3.43548">
        <ele>278.4</ele>
        <time>2017-03-22T09:10:38Z</time>
      </trkpt>
      <trkpt lat="43.72652" lon="3.43542">
        <ele>278.5</ele>
        <time>2017-03-22T09:10:41Z</time>
      </trkpt>
      <trkpt lat="43.72661" lon="3.43537">
        <ele>278.5</ele>
        <time>2017-03-22T09:10:44Z</time>
      </trkpt>
      <trkpt lat="43.72668" lon="3.43534">
        <ele>279.3</ele>
        <time>2017-03-22T09:10:46Z</time>
      </trkpt>
      <trkpt lat="43.72677" lon="3.43531">
        <ele>279.8</ele>
        <time>2017-03-22T09:10:48Z</time>
      </trkpt>
      <trkpt lat="43.72683" lon="3.43527">
        <ele>280.6</ele>
        <time>2017-03-22T09:10:50Z</time>
      </trkpt>
      <trkpt lat="43.72694" lon="3.43521">
        <ele>280.9</ele>
        <time>2017-03-22T09:10:53Z</time>
      </trkpt>
      <trkpt lat="43.72704" lon="3.43515">
        <ele>279.9</ele>
        <time>2017-03-22T09:10:55Z</time>
      </trkpt>
      <trkpt lat="43.72715" lon="3.43509">
        <ele>278.6</ele>
        <time>2017-03-22T09:10:57Z</time>
      </trkpt>
      <trkpt lat="43.72724" lon="3.43505">
        <ele>278</ele>
        <time>2017-03-22T09:10:59Z</time>
      </trkpt>
      <trkpt lat="43.72733" lon="3.43499">
        <ele>278.2</ele>
        <time>2017-03-22T09:11:01Z</time>
      </trkpt>
      <trkpt lat="43.72743" lon="3.43496">
        <ele>278.6</ele>
        <time>2017-03-22T09:11:03Z</time>
      </trkpt>
      <trkpt lat="43.72754" lon="3.43493">
        <ele>278.3</ele>
        <time>2017-03-22T09:11:05Z</time>
      </trkpt>
      <trkpt lat="43.72766" lon="3.43492">
        <ele>277</ele>
        <time>2017-03-22T09:11:07Z</time>
      </trkpt>
      <trkpt lat="43.7278" lon="3.4349">
        <ele>275.1</ele>
        <time>2017-03-22T09:11:09Z</time>
      </trkpt>
      <trkpt lat="43.7279" lon="3.43485">
        <ele>273.7</ele>
        <time>2017-03-22T09:11:11Z</time>
      </trkpt>
      <trkpt lat="43.72799" lon="3.4348">
        <ele>272.5</ele>
        <time>2017-03-22T09:11:13Z</time>
      </trkpt>
      <trkpt lat="43.72809" lon="3.43476">
        <ele>272.3</ele>
        <time>2017-03-22T09:11:15Z</time>
      </trkpt>
      <trkpt lat="43.72818" lon="3.43474">
        <ele>272.3</ele>
        <time>2017-03-22T09:11:17Z</time>
      </trkpt>
      <trkpt lat="43.72826" lon="3.43473">
        <ele>272.4</ele>
        <time>2017-03-22T09:11:20Z</time>
      </trkpt>
      <trkpt lat="43.72834" lon="3.43474">
        <ele>272.4</ele>
        <time>2017-03-22T09:11:24Z</time>
      </trkpt>
      <trkpt lat="43.72842" lon="3.43473">
        <ele>272.4</ele>
        <time>2017-03-22T09:11:28Z</time>
      </trkpt>
      <trkpt lat="43.72849" lon="3.43471">
        <ele>272.4</ele>
        <time>2017-03-22T09:11:31Z</time>
      </trkpt>
      <trkpt lat="43.72859" lon="3.43469">
        <ele>272.4</ele>
        <time>2017-03-22T09:11:35Z</time>
      </trkpt>
      <trkpt lat="43.72868" lon="3.4347">
        <ele>272.5</ele>
        <time>2017-03-22T09:11:38Z</time>
      </trkpt>
      <trkpt lat="43.72876" lon="3.43472">
        <ele>272.7</ele>
        <time>2017-03-22T09:11:42Z</time>
      </trkpt>
      <trkpt lat="43.72885" lon="3.43474">
        <ele>273</ele>
        <time>2017-03-22T09:11:46Z</time>
      </trkpt>
      <trkpt lat="43.72894" lon="3.43473">
        <ele>273.1</ele>
        <time>2017-03-22T09:11:50Z</time>
      </trkpt>
      <trkpt lat="43.72902" lon="3.43473">
        <ele>273.3</ele>
        <time>2017-03-22T09:11:53Z</time>
      </trkpt>
      <trkpt lat="43.7291" lon="3.43474">
        <ele>273.4</ele>
        <time>2017-03-22T09:11:56Z</time>
      </trkpt>
      <trkpt lat="43.72917" lon="3.43474">
        <ele>273.6</ele>
        <time>2017-03-22T09:11:59Z</time>
      </trkpt>
      <trkpt lat="43.72925" lon="3.43477">
        <ele>273.8</ele>
        <time>2017-03-22T09:12:03Z</time>
      </trkpt>
      <trkpt lat="43.72932" lon="3.43481">
        <ele>273.9</ele>
        <time>2017-03-22T09:12:06Z</time>
      </trkpt>
      <trkpt lat="43.7294" lon="3.43485">
        <ele>274.1</ele>
        <time>2017-03-22T09:12:10Z</time>
      </trkpt>
      <trkpt lat="43.72947" lon="3.43487">
        <ele>274.4</ele>
        <time>2017-03-22T09:12:13Z</time>
      </trkpt>
      <trkpt lat="43.72956" lon="3.43489">
        <ele>274.8</ele>
        <time>2017-03-22T09:12:17Z</time>
      </trkpt>
      <trkpt lat="43.72964" lon="3.4349">
        <ele>275.1</ele>
        <time>2017-03-22T09:12:21Z</time>
      </trkpt>
      <trkpt lat="43.72973" lon="3.43492">
        <ele>275.4</ele>
        <time>2017-03-22T09:12:25Z</time>
      </trkpt>
      <trkpt lat="43.72981" lon="3.43494">
        <ele>275.7</ele>
        <time>2017-03-22T09:12:29Z</time>
      </trkpt>
      <trkpt lat="43.72989" lon="3.43495">
        <ele>276.1</ele>
        <time>2017-03-22T09:12:33Z</time>
      </trkpt>
      <trkpt lat="43.72998" lon="3.43497">
        <ele>276.7</ele>
        <time>2017-03-22T09:12:38Z</time>
      </trkpt>
      <trkpt lat="43.73003" lon="3.43505">
        <ele>277</ele>
        <time>2017-03-22T09:12:42Z</time>
      </trkpt>
      <trkpt lat="43.72996" lon="3.43511">
        <ele>277.5</ele>
        <time>2017-03-22T09:12:46Z</time>
      </trkpt>
      <trkpt lat="43.72988" lon="3.4351">
        <ele>278.2</ele>
        <time>2017-03-22T09:12:49Z</time>
      </trkpt>
      <trkpt lat="43.72979" lon="3.43509">
        <ele>279.1</ele>
        <time>2017-03-22T09:12:53Z</time>
      </trkpt>
      <trkpt lat="43.72971" lon="3.43509">
        <ele>279.8</ele>
        <time>2017-03-22T09:12:56Z</time>
      </trkpt>
      <trkpt lat="43.72963" lon="3.43509">
        <ele>280.4</ele>
        <time>2017-03-22T09:12:59Z</time>
      </trkpt>
      <trkpt lat="43.72954" lon="3.43511">
        <ele>281.5</ele>
        <time>2017-03-22T09:13:04Z</time>
      </trkpt>
      <trkpt lat="43.72946" lon="3.43515">
        <ele>282.3</ele>
        <time>2017-03-22T09:13:08Z</time>
      </trkpt>
      <trkpt lat="43.72942" lon="3.4352">
        <ele>283.4</ele>
        <time>2017-03-22T09:13:15Z</time>
      </trkpt>
      <trkpt lat="43.72942" lon="3.43525">
        <ele>284.3</ele>
        <time>2017-03-22T09:13:29Z</time>
      </trkpt>
      <trkpt lat="43.72943" lon="3.43528">
        <ele>284.4</ele>
        <time>2017-03-22T09:13:41Z</time>
      </trkpt>
      <trkpt lat="43.72946" lon="3.43532">
        <ele>283.6</ele>
        <time>2017-03-22T09:13:48Z</time>
      </trkpt>
      <trkpt lat="43.72946" lon="3.43529">
        <ele>282.5</ele>
        <time>2017-03-22T09:13:55Z</time>
      </trkpt>
      <trkpt lat="43.72946" lon="3.43523">
        <ele>282.3</ele>
        <time>2017-03-22T09:14:02Z</time>
      </trkpt>
      <trkpt lat="43.72943" lon="3.43523">
        <ele>283</ele>
        <time>2017-03-22T09:14:09Z</time>
      </trkpt>
      <trkpt lat="43.72939" lon="3.4352">
        <ele>284.1</ele>
        <time>2017-03-22T09:14:48Z</time>
      </trkpt>
      <trkpt lat="43.72931" lon="3.43522">
        <ele>284.9</ele>
        <time>2017-03-22T09:14:55Z</time>
      </trkpt>
      <trkpt lat="43.72923" lon="3.43524">
        <ele>285.4</ele>
        <time>2017-03-22T09:14:58Z</time>
      </trkpt>
      <trkpt lat="43.72917" lon="3.4353">
        <ele>286</ele>
        <time>2017-03-22T09:15:02Z</time>
      </trkpt>
      <trkpt lat="43.7291" lon="3.43535">
        <ele>286.4</ele>
        <time>2017-03-22T09:15:06Z</time>
      </trkpt>
      <trkpt lat="43.72901" lon="3.4354">
        <ele>286.7</ele>
        <time>2017-03-22T09:15:10Z</time>
      </trkpt>
      <trkpt lat="43.72894" lon="3.43544">
        <ele>287.1</ele>
        <time>2017-03-22T09:15:14Z</time>
      </trkpt>
      <trkpt lat="43.72885" lon="3.43549">
        <ele>287.9</ele>
        <time>2017-03-22T09:15:19Z</time>
      </trkpt>
      <trkpt lat="43.72878" lon="3.43553">
        <ele>288.5</ele>
        <time>2017-03-22T09:15:23Z</time>
      </trkpt>
      <trkpt lat="43.72871" lon="3.43557">
        <ele>289</ele>
        <time>2017-03-22T09:15:27Z</time>
      </trkpt>
      <trkpt lat="43.72863" lon="3.43561">
        <ele>289.7</ele>
        <time>2017-03-22T09:15:31Z</time>
      </trkpt>
      <trkpt lat="43.72854" lon="3.43565">
        <ele>290.4</ele>
        <time>2017-03-22T09:15:36Z</time>
      </trkpt>
      <trkpt lat="43.72847" lon="3.43569">
        <ele>290.8</ele>
        <time>2017-03-22T09:15:39Z</time>
      </trkpt>
      <trkpt lat="43.72839" lon="3.4357">
        <ele>291.4</ele>
        <time>2017-03-22T09:15:43Z</time>
      </trkpt>
      <trkpt lat="43.72832" lon="3.43571">
        <ele>292.1</ele>
        <time>2017-03-22T09:15:47Z</time>
      </trkpt>
      <trkpt lat="43.72824" lon="3.43571">
        <ele>293</ele>
        <time>2017-03-22T09:15:51Z</time>
      </trkpt>
      <trkpt lat="43.72816" lon="3.43575">
        <ele>293.7</ele>
        <time>2017-03-22T09:15:55Z</time>
      </trkpt>
      <trkpt lat="43.72808" lon="3.4358">
        <ele>294.3</ele>
        <time>2017-03-22T09:15:59Z</time>
      </trkpt>
      <trkpt lat="43.72802" lon="3.43587">
        <ele>294.7</ele>
        <time>2017-03-22T09:16:03Z</time>
      </trkpt>
      <trkpt lat="43.72795" lon="3.43595">
        <ele>295.2</ele>
        <time>2017-03-22T09:16:07Z</time>
      </trkpt>
      <trkpt lat="43.7279" lon="3.43603">
        <ele>295.8</ele>
        <time>2017-03-22T09:16:11Z</time>
      </trkpt>
      <trkpt lat="43.72783" lon="3.4361">
        <ele>296.6</ele>
        <time>2017-03-22T09:16:15Z</time>
      </trkpt>
      <trkpt lat="43.72778" lon="3.43618">
        <ele>297.2</ele>
        <time>2017-03-22T09:16:19Z</time>
      </trkpt>
      <trkpt lat="43.72773" lon="3.43628">
        <ele>297.9</ele>
        <time>2017-03-22T09:16:24Z</time>
      </trkpt>
      <trkpt lat="43.72767" lon="3.43637">
        <ele>298.1</ele>
        <time>2017-03-22T09:16:28Z</time>
      </trkpt>
      <trkpt lat="43.72761" lon="3.43643">
        <ele>298.4</ele>
        <time>2017-03-22T09:16:32Z</time>
      </trkpt>
      <trkpt lat="43.72755" lon="3.43651">
        <ele>298.8</ele>
        <time>2017-03-22T09:16:36Z</time>
      </trkpt>
      <trkpt lat="43.72749" lon="3.43659">
        <ele>299.4</ele>
        <time>2017-03-22T09:16:41Z</time>
      </trkpt>
      <trkpt lat="43.72743" lon="3.43667">
        <ele>299.8</ele>
        <time>2017-03-22T09:16:44Z</time>
      </trkpt>
      <trkpt lat="43.7274" lon="3.43676">
        <ele>300.4</ele>
        <time>2017-03-22T09:16:48Z</time>
      </trkpt>
      <trkpt lat="43.72736" lon="3.43686">
        <ele>300.8</ele>
        <time>2017-03-22T09:16:51Z</time>
      </trkpt>
      <trkpt lat="43.72734" lon="3.43696">
        <ele>301.3</ele>
        <time>2017-03-22T09:16:55Z</time>
      </trkpt>
      <trkpt lat="43.72734" lon="3.43708">
        <ele>301.7</ele>
        <time>2017-03-22T09:16:59Z</time>
      </trkpt>
      <trkpt lat="43.72733" lon="3.43721">
        <ele>301.9</ele>
        <time>2017-03-22T09:17:03Z</time>
      </trkpt>
      <trkpt lat="43.72732" lon="3.43731">
        <ele>302.3</ele>
        <time>2017-03-22T09:17:07Z</time>
      </trkpt>
      <trkpt lat="43.72729" lon="3.43745">
        <ele>303.1</ele>
        <time>2017-03-22T09:17:11Z</time>
      </trkpt>
      <trkpt lat="43.72725" lon="3.43756">
        <ele>304</ele>
        <time>2017-03-22T09:17:16Z</time>
      </trkpt>
      <trkpt lat="43.72721" lon="3.43767">
        <ele>304.7</ele>
        <time>2017-03-22T09:17:21Z</time>
      </trkpt>
      <trkpt lat="43.72718" lon="3.43778">
        <ele>305.5</ele>
        <time>2017-03-22T09:17:26Z</time>
      </trkpt>
      <trkpt lat="43.72717" lon="3.4379">
        <ele>306.1</ele>
        <time>2017-03-22T09:17:30Z</time>
      </trkpt>
      <trkpt lat="43.72715" lon="3.438">
        <ele>306.7</ele>
        <time>2017-03-22T09:17:34Z</time>
      </trkpt>
      <trkpt lat="43.72714" lon="3.4381">
        <ele>307.2</ele>
        <time>2017-03-22T09:17:37Z</time>
      </trkpt>
      <trkpt lat="43.72713" lon="3.43822">
        <ele>307.7</ele>
        <time>2017-03-22T09:17:41Z</time>
      </trkpt>
      <trkpt lat="43.72711" lon="3.43834">
        <ele>308.3</ele>
        <time>2017-03-22T09:17:46Z</time>
      </trkpt>
      <trkpt lat="43.72711" lon="3.43846">
        <ele>309</ele>
        <time>2017-03-22T09:17:50Z</time>
      </trkpt>
      <trkpt lat="43.72711" lon="3.43859">
        <ele>309.8</ele>
        <time>2017-03-22T09:17:55Z</time>
      </trkpt>
      <trkpt lat="43.72712" lon="3.4387">
        <ele>310.4</ele>
        <time>2017-03-22T09:17:59Z</time>
      </trkpt>
      <trkpt lat="43.72713" lon="3.4388">
        <ele>311</ele>
        <time>2017-03-22T09:18:02Z</time>
      </trkpt>
      <trkpt lat="43.72715" lon="3.4389">
        <ele>311.7</ele>
        <time>2017-03-22T09:18:06Z</time>
      </trkpt>
      <trkpt lat="43.72713" lon="3.43902">
        <ele>312.6</ele>
        <time>2017-03-22T09:18:10Z</time>
      </trkpt>
      <trkpt lat="43.72713" lon="3.43913">
        <ele>313.2</ele>
        <time>2017-03-22T09:18:13Z</time>
      </trkpt>
      <trkpt lat="43.72711" lon="3.43923">
        <ele>313.6</ele>
        <time>2017-03-22T09:18:16Z</time>
      </trkpt>
      <trkpt lat="43.7272" lon="3.43923">
        <ele>314.6</ele>
        <time>2017-03-22T09:18:22Z</time>
      </trkpt>
      <trkpt lat="43.72724" lon="3.43912">
        <ele>315.4</ele>
        <time>2017-03-22T09:18:26Z</time>
      </trkpt>
      <trkpt lat="43.72728" lon="3.43902">
        <ele>315.9</ele>
        <time>2017-03-22T09:18:30Z</time>
      </trkpt>
      <trkpt lat="43.72731" lon="3.43891">
        <ele>316.7</ele>
        <time>2017-03-22T09:18:34Z</time>
      </trkpt>
      <trkpt lat="43.72735" lon="3.43882">
        <ele>317.6</ele>
        <time>2017-03-22T09:18:38Z</time>
      </trkpt>
      <trkpt lat="43.72741" lon="3.43874">
        <ele>318.5</ele>
        <time>2017-03-22T09:18:43Z</time>
      </trkpt>
      <trkpt lat="43.72746" lon="3.43866">
        <ele>319.2</ele>
        <time>2017-03-22T09:18:47Z</time>
      </trkpt>
      <trkpt lat="43.72753" lon="3.43859">
        <ele>320</ele>
        <time>2017-03-22T09:18:51Z</time>
      </trkpt>
      <trkpt lat="43.7276" lon="3.43854">
        <ele>320.8</ele>
        <time>2017-03-22T09:18:55Z</time>
      </trkpt>
      <trkpt lat="43.72768" lon="3.43849">
        <ele>321.7</ele>
        <time>2017-03-22T09:18:59Z</time>
      </trkpt>
      <trkpt lat="43.72777" lon="3.43844">
        <ele>322.9</ele>
        <time>2017-03-22T09:19:03Z</time>
      </trkpt>
      <trkpt lat="43.72784" lon="3.43838">
        <ele>323.4</ele>
        <time>2017-03-22T09:19:06Z</time>
      </trkpt>
      <trkpt lat="43.72792" lon="3.43831">
        <ele>323.9</ele>
        <time>2017-03-22T09:19:10Z</time>
      </trkpt>
      <trkpt lat="43.728" lon="3.43825">
        <ele>324.4</ele>
        <time>2017-03-22T09:19:14Z</time>
      </trkpt>
      <trkpt lat="43.72805" lon="3.43819">
        <ele>324.7</ele>
        <time>2017-03-22T09:19:17Z</time>
      </trkpt>
      <trkpt lat="43.72813" lon="3.43813">
        <ele>325</ele>
        <time>2017-03-22T09:19:21Z</time>
      </trkpt>
      <trkpt lat="43.72821" lon="3.43807">
        <ele>325.4</ele>
        <time>2017-03-22T09:19:25Z</time>
      </trkpt>
      <trkpt lat="43.72828" lon="3.43803">
        <ele>325.7</ele>
        <time>2017-03-22T09:19:28Z</time>
      </trkpt>
      <trkpt lat="43.72836" lon="3.43798">
        <ele>326.2</ele>
        <time>2017-03-22T09:19:32Z</time>
      </trkpt>
      <trkpt lat="43.72845" lon="3.43792">
        <ele>326.6</ele>
        <time>2017-03-22T09:19:36Z</time>
      </trkpt>
      <trkpt lat="43.72854" lon="3.43787">
        <ele>326.8</ele>
        <time>2017-03-22T09:19:40Z</time>
      </trkpt>
      <trkpt lat="43.72862" lon="3.43783">
        <ele>327</ele>
        <time>2017-03-22T09:19:43Z</time>
      </trkpt>
      <trkpt lat="43.7287" lon="3.4378">
        <ele>327.1</ele>
        <time>2017-03-22T09:19:47Z</time>
      </trkpt>
      <trkpt lat="43.7288" lon="3.43776">
        <ele>327.4</ele>
        <time>2017-03-22T09:19:51Z</time>
      </trkpt>
      <trkpt lat="43.72889" lon="3.43774">
        <ele>327.7</ele>
        <time>2017-03-22T09:19:55Z</time>
      </trkpt>
      <trkpt lat="43.72896" lon="3.43771">
        <ele>327.8</ele>
        <time>2017-03-22T09:19:58Z</time>
      </trkpt>
      <trkpt lat="43.72904" lon="3.43768">
        <ele>328</ele>
        <time>2017-03-22T09:20:02Z</time>
      </trkpt>
      <trkpt lat="43.72911" lon="3.43766">
        <ele>328.2</ele>
        <time>2017-03-22T09:20:05Z</time>
      </trkpt>
      <trkpt lat="43.7292" lon="3.43764">
        <ele>328.6</ele>
        <time>2017-03-22T09:20:09Z</time>
      </trkpt>
      <trkpt lat="43.72929" lon="3.43761">
        <ele>329</ele>
        <time>2017-03-22T09:20:13Z</time>
      </trkpt>
      <trkpt lat="43.72937" lon="3.43759">
        <ele>329.3</ele>
        <time>2017-03-22T09:20:16Z</time>
      </trkpt>
      <trkpt lat="43.72945" lon="3.43757">
        <ele>329.7</ele>
        <time>2017-03-22T09:20:19Z</time>
      </trkpt>
      <trkpt lat="43.72952" lon="3.43755">
        <ele>330</ele>
        <time>2017-03-22T09:20:22Z</time>
      </trkpt>
      <trkpt lat="43.72959" lon="3.43753">
        <ele>330.3</ele>
        <time>2017-03-22T09:20:25Z</time>
      </trkpt>
      <trkpt lat="43.72967" lon="3.43753">
        <ele>330.5</ele>
        <time>2017-03-22T09:20:28Z</time>
      </trkpt>
      <trkpt lat="43.72975" lon="3.43753">
        <ele>330.8</ele>
        <time>2017-03-22T09:20:32Z</time>
      </trkpt>
      <trkpt lat="43.72984" lon="3.43755">
        <ele>331.3</ele>
        <time>2017-03-22T09:20:36Z</time>
      </trkpt>
      <trkpt lat="43.72994" lon="3.43756">
        <ele>331.7</ele>
        <time>2017-03-22T09:20:40Z</time>
      </trkpt>
      <trkpt lat="43.73002" lon="3.43757">
        <ele>332.1</ele>
        <time>2017-03-22T09:20:44Z</time>
      </trkpt>
      <trkpt lat="43.73011" lon="3.43758">
        <ele>332.7</ele>
        <time>2017-03-22T09:20:48Z</time>
      </trkpt>
      <trkpt lat="43.73019" lon="3.43761">
        <ele>333.2</ele>
        <time>2017-03-22T09:20:51Z</time>
      </trkpt>
      <trkpt lat="43.73026" lon="3.43762">
        <ele>334</ele>
        <time>2017-03-22T09:20:54Z</time>
      </trkpt>
      <trkpt lat="43.73035" lon="3.43766">
        <ele>335.1</ele>
        <time>2017-03-22T09:20:58Z</time>
      </trkpt>
      <trkpt lat="43.73043" lon="3.43767">
        <ele>336.4</ele>
        <time>2017-03-22T09:21:02Z</time>
      </trkpt>
      <trkpt lat="43.73051" lon="3.43768">
        <ele>337.2</ele>
        <time>2017-03-22T09:21:05Z</time>
      </trkpt>
      <trkpt lat="43.7306" lon="3.43769">
        <ele>338.4</ele>
        <time>2017-03-22T09:21:09Z</time>
      </trkpt>
      <trkpt lat="43.73069" lon="3.43771">
        <ele>339.7</ele>
        <time>2017-03-22T09:21:13Z</time>
      </trkpt>
      <trkpt lat="43.73077" lon="3.43774">
        <ele>340.6</ele>
        <time>2017-03-22T09:21:17Z</time>
      </trkpt>
      <trkpt lat="43.73084" lon="3.43776">
        <ele>341.4</ele>
        <time>2017-03-22T09:21:20Z</time>
      </trkpt>
      <trkpt lat="43.73093" lon="3.43777">
        <ele>342.6</ele>
        <time>2017-03-22T09:21:24Z</time>
      </trkpt>
      <trkpt lat="43.73101" lon="3.43779">
        <ele>343.2</ele>
        <time>2017-03-22T09:21:27Z</time>
      </trkpt>
      <trkpt lat="43.73109" lon="3.43781">
        <ele>344.1</ele>
        <time>2017-03-22T09:21:30Z</time>
      </trkpt>
      <trkpt lat="43.73117" lon="3.43782">
        <ele>345</ele>
        <time>2017-03-22T09:21:33Z</time>
      </trkpt>
      <trkpt lat="43.73124" lon="3.43784">
        <ele>346.5</ele>
        <time>2017-03-22T09:21:37Z</time>
      </trkpt>
      <trkpt lat="43.73133" lon="3.43787">
        <ele>347.9</ele>
        <time>2017-03-22T09:21:41Z</time>
      </trkpt>
      <trkpt lat="43.7314" lon="3.4379">
        <ele>348.9</ele>
        <time>2017-03-22T09:21:44Z</time>
      </trkpt>
      <trkpt lat="43.73148" lon="3.43796">
        <ele>350.1</ele>
        <time>2017-03-22T09:21:47Z</time>
      </trkpt>
      <trkpt lat="43.73155" lon="3.43804">
        <ele>351.6</ele>
        <time>2017-03-22T09:21:51Z</time>
      </trkpt>
      <trkpt lat="43.73163" lon="3.4381">
        <ele>352.6</ele>
        <time>2017-03-22T09:21:54Z</time>
      </trkpt>
      <trkpt lat="43.7317" lon="3.43815">
        <ele>353.5</ele>
        <time>2017-03-22T09:21:57Z</time>
      </trkpt>
      <trkpt lat="43.73177" lon="3.43821">
        <ele>354.7</ele>
        <time>2017-03-22T09:22:01Z</time>
      </trkpt>
      <trkpt lat="43.73184" lon="3.43826">
        <ele>355.7</ele>
        <time>2017-03-22T09:22:04Z</time>
      </trkpt>
      <trkpt lat="43.73193" lon="3.43831">
        <ele>357</ele>
        <time>2017-03-22T09:22:07Z</time>
      </trkpt>
      <trkpt lat="43.73201" lon="3.43838">
        <ele>358</ele>
        <time>2017-03-22T09:22:10Z</time>
      </trkpt>
      <trkpt lat="43.73207" lon="3.43846">
        <ele>358.8</ele>
        <time>2017-03-22T09:22:13Z</time>
      </trkpt>
      <trkpt lat="43.73213" lon="3.43854">
        <ele>359.7</ele>
        <time>2017-03-22T09:22:17Z</time>
      </trkpt>
      <trkpt lat="43.73219" lon="3.43862">
        <ele>360.5</ele>
        <time>2017-03-22T09:22:21Z</time>
      </trkpt>
      <trkpt lat="43.73225" lon="3.43871">
        <ele>361</ele>
        <time>2017-03-22T09:22:25Z</time>
      </trkpt>
      <trkpt lat="43.7323" lon="3.43879">
        <ele>361.5</ele>
        <time>2017-03-22T09:22:28Z</time>
      </trkpt>
      <trkpt lat="43.73234" lon="3.43887">
        <ele>362.1</ele>
        <time>2017-03-22T09:22:31Z</time>
      </trkpt>
      <trkpt lat="43.7324" lon="3.43895">
        <ele>362.8</ele>
        <time>2017-03-22T09:22:34Z</time>
      </trkpt>
      <trkpt lat="43.73245" lon="3.43903">
        <ele>363.6</ele>
        <time>2017-03-22T09:22:37Z</time>
      </trkpt>
      <trkpt lat="43.7325" lon="3.43912">
        <ele>364.6</ele>
        <time>2017-03-22T09:22:41Z</time>
      </trkpt>
      <trkpt lat="43.73256" lon="3.43921">
        <ele>365.7</ele>
        <time>2017-03-22T09:22:45Z</time>
      </trkpt>
      <trkpt lat="43.73263" lon="3.43929">
        <ele>366.5</ele>
        <time>2017-03-22T09:22:49Z</time>
      </trkpt>
      <trkpt lat="43.73265" lon="3.43932">
        <ele>368.5</ele>
        <time>2017-03-22T09:22:56Z</time>
      </trkpt>
      <trkpt lat="43.73258" lon="3.43925">
        <ele>369.5</ele>
        <time>2017-03-22T09:23:00Z</time>
      </trkpt>
      <trkpt lat="43.73251" lon="3.43916">
        <ele>370.3</ele>
        <time>2017-03-22T09:23:03Z</time>
      </trkpt>
      <trkpt lat="43.73245" lon="3.43908">
        <ele>374</ele>
        <time>2017-03-22T09:23:05Z</time>
      </trkpt>
      <trkpt lat="43.73238" lon="3.43901">
        <ele>378.2</ele>
        <time>2017-03-22T09:23:07Z</time>
      </trkpt>
      <trkpt lat="43.7323" lon="3.43892">
        <ele>378.7</ele>
        <time>2017-03-22T09:23:10Z</time>
      </trkpt>
      <trkpt lat="43.73222" lon="3.43883">
        <ele>379.2</ele>
        <time>2017-03-22T09:23:13Z</time>
      </trkpt>
      <trkpt lat="43.73213" lon="3.43876">
        <ele>379.6</ele>
        <time>2017-03-22T09:23:16Z</time>
      </trkpt>
      <trkpt lat="43.73206" lon="3.43873">
        <ele>379.9</ele>
        <time>2017-03-22T09:23:18Z</time>
      </trkpt>
      <trkpt lat="43.73195" lon="3.43869">
        <ele>380.2</ele>
        <time>2017-03-22T09:23:21Z</time>
      </trkpt>
      <trkpt lat="43.73188" lon="3.43866">
        <ele>380.5</ele>
        <time>2017-03-22T09:23:23Z</time>
      </trkpt>
      <trkpt lat="43.73179" lon="3.43863">
        <ele>381.2</ele>
        <time>2017-03-22T09:23:26Z</time>
      </trkpt>
      <trkpt lat="43.7317" lon="3.4386">
        <ele>381.8</ele>
        <time>2017-03-22T09:23:29Z</time>
      </trkpt>
      <trkpt lat="43.73163" lon="3.43857">
        <ele>382.5</ele>
        <time>2017-03-22T09:23:32Z</time>
      </trkpt>
      <trkpt lat="43.73153" lon="3.43853">
        <ele>383.2</ele>
        <time>2017-03-22T09:23:35Z</time>
      </trkpt>
      <trkpt lat="43.73143" lon="3.43853">
        <ele>383.8</ele>
        <time>2017-03-22T09:23:38Z</time>
      </trkpt>
      <trkpt lat="43.73135" lon="3.43853">
        <ele>384.3</ele>
        <time>2017-03-22T09:23:41Z</time>
      </trkpt>
      <trkpt lat="43.73126" lon="3.43853">
        <ele>384.8</ele>
        <time>2017-03-22T09:23:44Z</time>
      </trkpt>
      <trkpt lat="43.73117" lon="3.43854">
        <ele>385.2</ele>
        <time>2017-03-22T09:23:47Z</time>
      </trkpt>
      <trkpt lat="43.73109" lon="3.43855">
        <ele>385.7</ele>
        <time>2017-03-22T09:23:50Z</time>
      </trkpt>
      <trkpt lat="43.731" lon="3.43856">
        <ele>386.4</ele>
        <time>2017-03-22T09:23:53Z</time>
      </trkpt>
      <trkpt lat="43.73091" lon="3.43856">
        <ele>387</ele>
        <time>2017-03-22T09:23:56Z</time>
      </trkpt>
      <trkpt lat="43.73082" lon="3.43858">
        <ele>387.4</ele>
        <time>2017-03-22T09:23:59Z</time>
      </trkpt>
      <trkpt lat="43.73073" lon="3.4386">
        <ele>387.8</ele>
        <time>2017-03-22T09:24:02Z</time>
      </trkpt>
      <trkpt lat="43.73065" lon="3.43864">
        <ele>388.3</ele>
        <time>2017-03-22T09:24:05Z</time>
      </trkpt>
      <trkpt lat="43.73056" lon="3.43868">
        <ele>388.8</ele>
        <time>2017-03-22T09:24:08Z</time>
      </trkpt>
      <trkpt lat="43.73046" lon="3.43872">
        <ele>389.2</ele>
        <time>2017-03-22T09:24:11Z</time>
      </trkpt>
      <trkpt lat="43.73039" lon="3.43873">
        <ele>389.7</ele>
        <time>2017-03-22T09:24:14Z</time>
      </trkpt>
      <trkpt lat="43.73029" lon="3.43877">
        <ele>390.1</ele>
        <time>2017-03-22T09:24:17Z</time>
      </trkpt>
      <trkpt lat="43.73021" lon="3.43882">
        <ele>390.5</ele>
        <time>2017-03-22T09:24:20Z</time>
      </trkpt>
      <trkpt lat="43.73011" lon="3.43888">
        <ele>390.9</ele>
        <time>2017-03-22T09:24:23Z</time>
      </trkpt>
      <trkpt lat="43.73001" lon="3.43896">
        <ele>391.4</ele>
        <time>2017-03-22T09:24:26Z</time>
      </trkpt>
      <trkpt lat="43.72994" lon="3.43904">
        <ele>391.8</ele>
        <time>2017-03-22T09:24:29Z</time>
      </trkpt>
      <trkpt lat="43.72987" lon="3.43909">
        <ele>392.1</ele>
        <time>2017-03-22T09:24:32Z</time>
      </trkpt>
      <trkpt lat="43.7298" lon="3.43916">
        <ele>392.3</ele>
        <time>2017-03-22T09:24:35Z</time>
      </trkpt>
      <trkpt lat="43.72973" lon="3.43924">
        <ele>392.6</ele>
        <time>2017-03-22T09:24:38Z</time>
      </trkpt>
      <trkpt lat="43.72967" lon="3.43934">
        <ele>392.9</ele>
        <time>2017-03-22T09:24:41Z</time>
      </trkpt>
      <trkpt lat="43.72961" lon="3.43945">
        <ele>393.2</ele>
        <time>2017-03-22T09:24:44Z</time>
      </trkpt>
      <trkpt lat="43.72957" lon="3.43954">
        <ele>393.4</ele>
        <time>2017-03-22T09:24:47Z</time>
      </trkpt>
      <trkpt lat="43.72953" lon="3.43965">
        <ele>393.7</ele>
        <time>2017-03-22T09:24:50Z</time>
      </trkpt>
      <trkpt lat="43.72948" lon="3.43977">
        <ele>394</ele>
        <time>2017-03-22T09:24:53Z</time>
      </trkpt>
      <trkpt lat="43.72946" lon="3.43987">
        <ele>394.4</ele>
        <time>2017-03-22T09:24:56Z</time>
      </trkpt>
      <trkpt lat="43.72942" lon="3.44">
        <ele>394.8</ele>
        <time>2017-03-22T09:24:59Z</time>
      </trkpt>
      <trkpt lat="43.72941" lon="3.4401">
        <ele>395</ele>
        <time>2017-03-22T09:25:02Z</time>
      </trkpt>
      <trkpt lat="43.72941" lon="3.44024">
        <ele>395.4</ele>
        <time>2017-03-22T09:25:05Z</time>
      </trkpt>
      <trkpt lat="43.72945" lon="3.44039">
        <ele>396</ele>
        <time>2017-03-22T09:25:08Z</time>
      </trkpt>
      <trkpt lat="43.72948" lon="3.44051">
        <ele>396.9</ele>
        <time>2017-03-22T09:25:12Z</time>
      </trkpt>
      <trkpt lat="43.72949" lon="3.44062">
        <ele>397.8</ele>
        <time>2017-03-22T09:25:17Z</time>
      </trkpt>
      <trkpt lat="43.7295" lon="3.44074">
        <ele>398.6</ele>
        <time>2017-03-22T09:25:21Z</time>
      </trkpt>
      <trkpt lat="43.72951" lon="3.44085">
        <ele>399.6</ele>
        <time>2017-03-22T09:25:25Z</time>
      </trkpt>
      <trkpt lat="43.72952" lon="3.44098">
        <ele>400.5</ele>
        <time>2017-03-22T09:25:29Z</time>
      </trkpt>
      <trkpt lat="43.72952" lon="3.44108">
        <ele>401.3</ele>
        <time>2017-03-22T09:25:32Z</time>
      </trkpt>
      <trkpt lat="43.72952" lon="3.4412">
        <ele>402.6</ele>
        <time>2017-03-22T09:25:36Z</time>
      </trkpt>
      <trkpt lat="43.72952" lon="3.44132">
        <ele>404.4</ele>
        <time>2017-03-22T09:25:41Z</time>
      </trkpt>
      <trkpt lat="43.72952" lon="3.44146">
        <ele>405.9</ele>
        <time>2017-03-22T09:25:45Z</time>
      </trkpt>
      <trkpt lat="43.7295" lon="3.44156">
        <ele>407.4</ele>
        <time>2017-03-22T09:25:50Z</time>
      </trkpt>
      <trkpt lat="43.72948" lon="3.44168">
        <ele>408.3</ele>
        <time>2017-03-22T09:25:54Z</time>
      </trkpt>
      <trkpt lat="43.72945" lon="3.4418">
        <ele>408.9</ele>
        <time>2017-03-22T09:25:58Z</time>
      </trkpt>
      <trkpt lat="43.72941" lon="3.44188">
        <ele>409.5</ele>
        <time>2017-03-22T09:26:01Z</time>
      </trkpt>
      <trkpt lat="43.72936" lon="3.44196">
        <ele>410.6</ele>
        <time>2017-03-22T09:26:05Z</time>
      </trkpt>
      <trkpt lat="43.72929" lon="3.44208">
        <ele>411.8</ele>
        <time>2017-03-22T09:26:09Z</time>
      </trkpt>
      <trkpt lat="43.72924" lon="3.44216">
        <ele>412.4</ele>
        <time>2017-03-22T09:26:12Z</time>
      </trkpt>
      <trkpt lat="43.72918" lon="3.44225">
        <ele>412.8</ele>
        <time>2017-03-22T09:26:15Z</time>
      </trkpt>
      <trkpt lat="43.72913" lon="3.44236">
        <ele>413.1</ele>
        <time>2017-03-22T09:26:18Z</time>
      </trkpt>
      <trkpt lat="43.72907" lon="3.44246">
        <ele>413.3</ele>
        <time>2017-03-22T09:26:21Z</time>
      </trkpt>
      <trkpt lat="43.72902" lon="3.44255">
        <ele>413.5</ele>
        <time>2017-03-22T09:26:24Z</time>
      </trkpt>
      <trkpt lat="43.72898" lon="3.44265">
        <ele>413.8</ele>
        <time>2017-03-22T09:26:27Z</time>
      </trkpt>
      <trkpt lat="43.72893" lon="3.44276">
        <ele>414.1</ele>
        <time>2017-03-22T09:26:30Z</time>
      </trkpt>
      <trkpt lat="43.72888" lon="3.44285">
        <ele>414.4</ele>
        <time>2017-03-22T09:26:33Z</time>
      </trkpt>
      <trkpt lat="43.72882" lon="3.44296">
        <ele>414.7</ele>
        <time>2017-03-22T09:26:36Z</time>
      </trkpt>
      <trkpt lat="43.72876" lon="3.44305">
        <ele>414.9</ele>
        <time>2017-03-22T09:26:39Z</time>
      </trkpt>
      <trkpt lat="43.7287" lon="3.44312">
        <ele>415.3</ele>
        <time>2017-03-22T09:26:42Z</time>
      </trkpt>
      <trkpt lat="43.72865" lon="3.4432">
        <ele>415.7</ele>
        <time>2017-03-22T09:26:45Z</time>
      </trkpt>
      <trkpt lat="43.72859" lon="3.44329">
        <ele>416.1</ele>
        <time>2017-03-22T09:26:48Z</time>
      </trkpt>
      <trkpt lat="43.72854" lon="3.44336">
        <ele>416.5</ele>
        <time>2017-03-22T09:26:51Z</time>
      </trkpt>
      <trkpt lat="43.72848" lon="3.44345">
        <ele>417</ele>
        <time>2017-03-22T09:26:55Z</time>
      </trkpt>
      <trkpt lat="43.72842" lon="3.44355">
        <ele>417.3</ele>
        <time>2017-03-22T09:26:58Z</time>
      </trkpt>
      <trkpt lat="43.72836" lon="3.44363">
        <ele>417.6</ele>
        <time>2017-03-22T09:27:01Z</time>
      </trkpt>
      <trkpt lat="43.72831" lon="3.44374">
        <ele>417.8</ele>
        <time>2017-03-22T09:27:05Z</time>
      </trkpt>
      <trkpt lat="43.72825" lon="3.44382">
        <ele>418.2</ele>
        <time>2017-03-22T09:27:08Z</time>
      </trkpt>
      <trkpt lat="43.72821" lon="3.4439">
        <ele>418.5</ele>
        <time>2017-03-22T09:27:10Z</time>
      </trkpt>
      <trkpt lat="43.72816" lon="3.44398">
        <ele>418.9</ele>
        <time>2017-03-22T09:27:13Z</time>
      </trkpt>
      <trkpt lat="43.7281" lon="3.44409">
        <ele>419.6</ele>
        <time>2017-03-22T09:27:17Z</time>
      </trkpt>
      <trkpt lat="43.72803" lon="3.44416">
        <ele>419.9</ele>
        <time>2017-03-22T09:27:20Z</time>
      </trkpt>
      <trkpt lat="43.72797" lon="3.44421">
        <ele>420.4</ele>
        <time>2017-03-22T09:27:23Z</time>
      </trkpt>
      <trkpt lat="43.7279" lon="3.44427">
        <ele>421</ele>
        <time>2017-03-22T09:27:26Z</time>
      </trkpt>
      <trkpt lat="43.72784" lon="3.44433">
        <ele>421.6</ele>
        <time>2017-03-22T09:27:29Z</time>
      </trkpt>
      <trkpt lat="43.72778" lon="3.4444">
        <ele>422.5</ele>
        <time>2017-03-22T09:27:33Z</time>
      </trkpt>
      <trkpt lat="43.72772" lon="3.44447">
        <ele>423.5</ele>
        <time>2017-03-22T09:27:38Z</time>
      </trkpt>
      <trkpt lat="43.72774" lon="3.44456">
        <ele>424.5</ele>
        <time>2017-03-22T09:27:45Z</time>
      </trkpt>
      <trkpt lat="43.72781" lon="3.44451">
        <ele>424.8</ele>
        <time>2017-03-22T09:27:50Z</time>
      </trkpt>
      <trkpt lat="43.72789" lon="3.44446">
        <ele>425.1</ele>
        <time>2017-03-22T09:27:54Z</time>
      </trkpt>
      <trkpt lat="43.72796" lon="3.44442">
        <ele>425.3</ele>
        <time>2017-03-22T09:27:57Z</time>
      </trkpt>
      <trkpt lat="43.72806" lon="3.44438">
        <ele>425.5</ele>
        <time>2017-03-22T09:28:01Z</time>
      </trkpt>
      <trkpt lat="43.72815" lon="3.44432">
        <ele>425.5</ele>
        <time>2017-03-22T09:28:04Z</time>
      </trkpt>
      <trkpt lat="43.72823" lon="3.44427">
        <ele>425.4</ele>
        <time>2017-03-22T09:28:07Z</time>
      </trkpt>
      <trkpt lat="43.72831" lon="3.44421">
        <ele>425.3</ele>
        <time>2017-03-22T09:28:10Z</time>
      </trkpt>
      <trkpt lat="43.72838" lon="3.44417">
        <ele>425.3</ele>
        <time>2017-03-22T09:28:13Z</time>
      </trkpt>
      <trkpt lat="43.72845" lon="3.4441">
        <ele>425.7</ele>
        <time>2017-03-22T09:28:16Z</time>
      </trkpt>
      <trkpt lat="43.72852" lon="3.44403">
        <ele>426.1</ele>
        <time>2017-03-22T09:28:19Z</time>
      </trkpt>
      <trkpt lat="43.72859" lon="3.44395">
        <ele>426.2</ele>
        <time>2017-03-22T09:28:22Z</time>
      </trkpt>
      <trkpt lat="43.72866" lon="3.44388">
        <ele>425.9</ele>
        <time>2017-03-22T09:28:25Z</time>
      </trkpt>
      <trkpt lat="43.72873" lon="3.44381">
        <ele>425.5</ele>
        <time>2017-03-22T09:28:28Z</time>
      </trkpt>
      <trkpt lat="43.7288" lon="3.44375">
        <ele>425.1</ele>
        <time>2017-03-22T09:28:31Z</time>
      </trkpt>
      <trkpt lat="43.72887" lon="3.44368">
        <ele>424.6</ele>
        <time>2017-03-22T09:28:34Z</time>
      </trkpt>
      <trkpt lat="43.72895" lon="3.44363">
        <ele>424.2</ele>
        <time>2017-03-22T09:28:37Z</time>
      </trkpt>
      <trkpt lat="43.72896" lon="3.44365">
        <ele>424.1</ele>
        <time>2017-03-22T09:28:44Z</time>
      </trkpt>
      <trkpt lat="43.72889" lon="3.44371">
        <ele>424.9</ele>
        <time>2017-03-22T09:28:48Z</time>
      </trkpt>
      <trkpt lat="43.72881" lon="3.44377">
        <ele>425.5</ele>
        <time>2017-03-22T09:28:51Z</time>
      </trkpt>
      <trkpt lat="43.72872" lon="3.44384">
        <ele>426.2</ele>
        <time>2017-03-22T09:28:54Z</time>
      </trkpt>
      <trkpt lat="43.72863" lon="3.44391">
        <ele>426.9</ele>
        <time>2017-03-22T09:28:57Z</time>
      </trkpt>
      <trkpt lat="43.72856" lon="3.44397">
        <ele>427.6</ele>
        <time>2017-03-22T09:29:00Z</time>
      </trkpt>
      <trkpt lat="43.7285" lon="3.44403">
        <ele>430.6</ele>
        <time>2017-03-22T09:29:02Z</time>
      </trkpt>
      <trkpt lat="43.72843" lon="3.44409">
        <ele>434.3</ele>
        <time>2017-03-22T09:29:04Z</time>
      </trkpt>
      <trkpt lat="43.72834" lon="3.44416">
        <ele>435.5</ele>
        <time>2017-03-22T09:29:06Z</time>
      </trkpt>
      <trkpt lat="43.72823" lon="3.44423">
        <ele>434.8</ele>
        <time>2017-03-22T09:29:08Z</time>
      </trkpt>
      <trkpt lat="43.72812" lon="3.44429">
        <ele>434.1</ele>
        <time>2017-03-22T09:29:10Z</time>
      </trkpt>
      <trkpt lat="43.72801" lon="3.44435">
        <ele>433.3</ele>
        <time>2017-03-22T09:29:12Z</time>
      </trkpt>
      <trkpt lat="43.72791" lon="3.4444">
        <ele>432.9</ele>
        <time>2017-03-22T09:29:14Z</time>
      </trkpt>
      <trkpt lat="43.7278" lon="3.44447">
        <ele>432.1</ele>
        <time>2017-03-22T09:29:16Z</time>
      </trkpt>
      <trkpt lat="43.72773" lon="3.44452">
        <ele>431.5</ele>
        <time>2017-03-22T09:29:17Z</time>
      </trkpt>
      <trkpt lat="43.72761" lon="3.44459">
        <ele>430.9</ele>
        <time>2017-03-22T09:29:19Z</time>
      </trkpt>
      <trkpt lat="43.72751" lon="3.44465">
        <ele>431.2</ele>
        <time>2017-03-22T09:29:21Z</time>
      </trkpt>
      <trkpt lat="43.72742" lon="3.44467">
        <ele>431.4</ele>
        <time>2017-03-22T09:29:23Z</time>
      </trkpt>
      <trkpt lat="43.72732" lon="3.44468">
        <ele>431.1</ele>
        <time>2017-03-22T09:29:25Z</time>
      </trkpt>
      <trkpt lat="43.72722" lon="3.44465">
        <ele>431.4</ele>
        <time>2017-03-22T09:29:27Z</time>
      </trkpt>
      <trkpt lat="43.72711" lon="3.44461">
        <ele>430.9</ele>
        <time>2017-03-22T09:29:29Z</time>
      </trkpt>
      <trkpt lat="43.72701" lon="3.44454">
        <ele>431.5</ele>
        <time>2017-03-22T09:29:31Z</time>
      </trkpt>
      <trkpt lat="43.72692" lon="3.44445">
        <ele>431.7</ele>
        <time>2017-03-22T09:29:33Z</time>
      </trkpt>
      <trkpt lat="43.72683" lon="3.44437">
        <ele>431.6</ele>
        <time>2017-03-22T09:29:35Z</time>
      </trkpt>
      <trkpt lat="43.72673" lon="3.4443">
        <ele>431.5</ele>
        <time>2017-03-22T09:29:37Z</time>
      </trkpt>
      <trkpt lat="43.72663" lon="3.44424">
        <ele>431.3</ele>
        <time>2017-03-22T09:29:39Z</time>
      </trkpt>
      <trkpt lat="43.72655" lon="3.4442">
        <ele>431.2</ele>
        <time>2017-03-22T09:29:41Z</time>
      </trkpt>
      <trkpt lat="43.72646" lon="3.44416">
        <ele>432</ele>
        <time>2017-03-22T09:29:43Z</time>
      </trkpt>
      <trkpt lat="43.72637" lon="3.44414">
        <ele>432.1</ele>
        <time>2017-03-22T09:29:45Z</time>
      </trkpt>
      <trkpt lat="43.72628" lon="3.44414">
        <ele>432.2</ele>
        <time>2017-03-22T09:29:48Z</time>
      </trkpt>
      <trkpt lat="43.72617" lon="3.44413">
        <ele>432.4</ele>
        <time>2017-03-22T09:29:51Z</time>
      </trkpt>
      <trkpt lat="43.72608" lon="3.4441">
        <ele>432.6</ele>
        <time>2017-03-22T09:29:54Z</time>
      </trkpt>
      <trkpt lat="43.72601" lon="3.44407">
        <ele>433</ele>
        <time>2017-03-22T09:29:57Z</time>
      </trkpt>
      <trkpt lat="43.72593" lon="3.44402">
        <ele>433.3</ele>
        <time>2017-03-22T09:30:00Z</time>
      </trkpt>
      <trkpt lat="43.72585" lon="3.44397">
        <ele>433.7</ele>
        <time>2017-03-22T09:30:03Z</time>
      </trkpt>
      <trkpt lat="43.72576" lon="3.4439">
        <ele>434.1</ele>
        <time>2017-03-22T09:30:06Z</time>
      </trkpt>
      <trkpt lat="43.72569" lon="3.44385">
        <ele>434.2</ele>
        <time>2017-03-22T09:30:08Z</time>
      </trkpt>
      <trkpt lat="43.7256" lon="3.44382">
        <ele>434.5</ele>
        <time>2017-03-22T09:30:11Z</time>
      </trkpt>
      <trkpt lat="43.72552" lon="3.44382">
        <ele>434.9</ele>
        <time>2017-03-22T09:30:14Z</time>
      </trkpt>
      <trkpt lat="43.72543" lon="3.44382">
        <ele>435.3</ele>
        <time>2017-03-22T09:30:17Z</time>
      </trkpt>
      <trkpt lat="43.72535" lon="3.44386">
        <ele>435.5</ele>
        <time>2017-03-22T09:30:20Z</time>
      </trkpt>
      <trkpt lat="43.72526" lon="3.44387">
        <ele>435.8</ele>
        <time>2017-03-22T09:30:23Z</time>
      </trkpt>
      <trkpt lat="43.72516" lon="3.44391">
        <ele>436.1</ele>
        <time>2017-03-22T09:30:26Z</time>
      </trkpt>
      <trkpt lat="43.72508" lon="3.44392">
        <ele>436.4</ele>
        <time>2017-03-22T09:30:29Z</time>
      </trkpt>
      <trkpt lat="43.72503" lon="3.444">
        <ele>436.8</ele>
        <time>2017-03-22T09:30:33Z</time>
      </trkpt>
      <trkpt lat="43.72512" lon="3.44405">
        <ele>437.4</ele>
        <time>2017-03-22T09:30:38Z</time>
      </trkpt>
      <trkpt lat="43.72519" lon="3.44406">
        <ele>437.7</ele>
        <time>2017-03-22T09:30:41Z</time>
      </trkpt>
      <trkpt lat="43.72527" lon="3.44408">
        <ele>438</ele>
        <time>2017-03-22T09:30:44Z</time>
      </trkpt>
      <trkpt lat="43.72535" lon="3.44414">
        <ele>438.2</ele>
        <time>2017-03-22T09:30:48Z</time>
      </trkpt>
      <trkpt lat="43.72544" lon="3.4442">
        <ele>438.4</ele>
        <time>2017-03-22T09:30:52Z</time>
      </trkpt>
      <trkpt lat="43.72552" lon="3.44426">
        <ele>438.9</ele>
        <time>2017-03-22T09:30:56Z</time>
      </trkpt>
      <trkpt lat="43.72559" lon="3.44432">
        <ele>439.3</ele>
        <time>2017-03-22T09:30:59Z</time>
      </trkpt>
      <trkpt lat="43.72566" lon="3.4444">
        <ele>439.7</ele>
        <time>2017-03-22T09:31:03Z</time>
      </trkpt>
      <trkpt lat="43.72572" lon="3.44448">
        <ele>440.1</ele>
        <time>2017-03-22T09:31:06Z</time>
      </trkpt>
      <trkpt lat="43.72578" lon="3.44454">
        <ele>440.5</ele>
        <time>2017-03-22T09:31:09Z</time>
      </trkpt>
      <trkpt lat="43.72584" lon="3.4446">
        <ele>440.8</ele>
        <time>2017-03-22T09:31:12Z</time>
      </trkpt>
      <trkpt lat="43.7259" lon="3.44466">
        <ele>441.1</ele>
        <time>2017-03-22T09:31:15Z</time>
      </trkpt>
      <trkpt lat="43.72599" lon="3.44474">
        <ele>441.5</ele>
        <time>2017-03-22T09:31:19Z</time>
      </trkpt>
      <trkpt lat="43.72603" lon="3.44482">
        <ele>441.9</ele>
        <time>2017-03-22T09:31:22Z</time>
      </trkpt>
      <trkpt lat="43.72607" lon="3.44491">
        <ele>442.2</ele>
        <time>2017-03-22T09:31:25Z</time>
      </trkpt>
      <trkpt lat="43.72609" lon="3.44501">
        <ele>443.1</ele>
        <time>2017-03-22T09:31:29Z</time>
      </trkpt>
      <trkpt lat="43.72607" lon="3.44513">
        <ele>443.8</ele>
        <time>2017-03-22T09:31:32Z</time>
      </trkpt>
      <trkpt lat="43.72605" lon="3.44524">
        <ele>444.4</ele>
        <time>2017-03-22T09:31:35Z</time>
      </trkpt>
      <trkpt lat="43.72603" lon="3.44538">
        <ele>445.2</ele>
        <time>2017-03-22T09:31:39Z</time>
      </trkpt>
      <trkpt lat="43.72605" lon="3.4455">
        <ele>445.7</ele>
        <time>2017-03-22T09:31:42Z</time>
      </trkpt>
      <trkpt lat="43.72609" lon="3.44559">
        <ele>446.6</ele>
        <time>2017-03-22T09:31:45Z</time>
      </trkpt>
      <trkpt lat="43.72614" lon="3.44566">
        <ele>447.4</ele>
        <time>2017-03-22T09:31:48Z</time>
      </trkpt>
      <trkpt lat="43.72622" lon="3.44574">
        <ele>448.4</ele>
        <time>2017-03-22T09:31:52Z</time>
      </trkpt>
      <trkpt lat="43.72628" lon="3.44582">
        <ele>449.5</ele>
        <time>2017-03-22T09:31:56Z</time>
      </trkpt>
      <trkpt lat="43.72636" lon="3.44587">
        <ele>450.3</ele>
        <time>2017-03-22T09:31:59Z</time>
      </trkpt>
      <trkpt lat="43.72643" lon="3.44592">
        <ele>450.9</ele>
        <time>2017-03-22T09:32:01Z</time>
      </trkpt>
      <trkpt lat="43.72651" lon="3.446">
        <ele>451.8</ele>
        <time>2017-03-22T09:32:05Z</time>
      </trkpt>
      <trkpt lat="43.72659" lon="3.44608">
        <ele>452.2</ele>
        <time>2017-03-22T09:32:08Z</time>
      </trkpt>
      <trkpt lat="43.72666" lon="3.44617">
        <ele>452.5</ele>
        <time>2017-03-22T09:32:11Z</time>
      </trkpt>
      <trkpt lat="43.72672" lon="3.44623">
        <ele>452.7</ele>
        <time>2017-03-22T09:32:14Z</time>
      </trkpt>
      <trkpt lat="43.72678" lon="3.44632">
        <ele>453.1</ele>
        <time>2017-03-22T09:32:17Z</time>
      </trkpt>
      <trkpt lat="43.72685" lon="3.44642">
        <ele>453.5</ele>
        <time>2017-03-22T09:32:20Z</time>
      </trkpt>
      <trkpt lat="43.7269" lon="3.4465">
        <ele>454.4</ele>
        <time>2017-03-22T09:32:24Z</time>
      </trkpt>
      <trkpt lat="43.72697" lon="3.44655">
        <ele>455.2</ele>
        <time>2017-03-22T09:32:27Z</time>
      </trkpt>
      <trkpt lat="43.72704" lon="3.44661">
        <ele>456.1</ele>
        <time>2017-03-22T09:32:30Z</time>
      </trkpt>
      <trkpt lat="43.72711" lon="3.44665">
        <ele>456.7</ele>
        <time>2017-03-22T09:32:32Z</time>
      </trkpt>
      <trkpt lat="43.72722" lon="3.4467">
        <ele>457.6</ele>
        <time>2017-03-22T09:32:35Z</time>
      </trkpt>
      <trkpt lat="43.72732" lon="3.44673">
        <ele>458.4</ele>
        <time>2017-03-22T09:32:38Z</time>
      </trkpt>
      <trkpt lat="43.72742" lon="3.44672">
        <ele>459</ele>
        <time>2017-03-22T09:32:41Z</time>
      </trkpt>
      <trkpt lat="43.72752" lon="3.44669">
        <ele>459.7</ele>
        <time>2017-03-22T09:32:44Z</time>
      </trkpt>
      <trkpt lat="43.7276" lon="3.44667">
        <ele>460.5</ele>
        <time>2017-03-22T09:32:47Z</time>
      </trkpt>
      <trkpt lat="43.72767" lon="3.44665">
        <ele>461.5</ele>
        <time>2017-03-22T09:32:50Z</time>
      </trkpt>
      <trkpt lat="43.72776" lon="3.44663">
        <ele>462.6</ele>
        <time>2017-03-22T09:32:53Z</time>
      </trkpt>
      <trkpt lat="43.72785" lon="3.44662">
        <ele>463.8</ele>
        <time>2017-03-22T09:32:56Z</time>
      </trkpt>
      <trkpt lat="43.72792" lon="3.44661">
        <ele>464.8</ele>
        <time>2017-03-22T09:32:59Z</time>
      </trkpt>
      <trkpt lat="43.728" lon="3.44659">
        <ele>465.4</ele>
        <time>2017-03-22T09:33:01Z</time>
      </trkpt>
      <trkpt lat="43.72809" lon="3.44658">
        <ele>466.1</ele>
        <time>2017-03-22T09:33:04Z</time>
      </trkpt>
      <trkpt lat="43.72818" lon="3.44656">
        <ele>466.6</ele>
        <time>2017-03-22T09:33:07Z</time>
      </trkpt>
      <trkpt lat="43.72829" lon="3.44652">
        <ele>466.9</ele>
        <time>2017-03-22T09:33:10Z</time>
      </trkpt>
      <trkpt lat="43.72837" lon="3.44646">
        <ele>467.4</ele>
        <time>2017-03-22T09:33:13Z</time>
      </trkpt>
      <trkpt lat="43.72843" lon="3.44641">
        <ele>467.9</ele>
        <time>2017-03-22T09:33:16Z</time>
      </trkpt>
      <trkpt lat="43.72852" lon="3.44634">
        <ele>468.2</ele>
        <time>2017-03-22T09:33:19Z</time>
      </trkpt>
      <trkpt lat="43.72859" lon="3.44629">
        <ele>468.6</ele>
        <time>2017-03-22T09:33:22Z</time>
      </trkpt>
      <trkpt lat="43.72868" lon="3.44623">
        <ele>469.1</ele>
        <time>2017-03-22T09:33:25Z</time>
      </trkpt>
      <trkpt lat="43.72876" lon="3.4462">
        <ele>469.7</ele>
        <time>2017-03-22T09:33:28Z</time>
      </trkpt>
      <trkpt lat="43.72883" lon="3.44618">
        <ele>470.3</ele>
        <time>2017-03-22T09:33:31Z</time>
      </trkpt>
      <trkpt lat="43.72891" lon="3.44617">
        <ele>471</ele>
        <time>2017-03-22T09:33:34Z</time>
      </trkpt>
      <trkpt lat="43.729" lon="3.44611">
        <ele>472.2</ele>
        <time>2017-03-22T09:33:38Z</time>
      </trkpt>
      <trkpt lat="43.72907" lon="3.44607">
        <ele>472.8</ele>
        <time>2017-03-22T09:33:41Z</time>
      </trkpt>
      <trkpt lat="43.72914" lon="3.44603">
        <ele>473.5</ele>
        <time>2017-03-22T09:33:44Z</time>
      </trkpt>
      <trkpt lat="43.72922" lon="3.446">
        <ele>474.7</ele>
        <time>2017-03-22T09:33:48Z</time>
      </trkpt>
      <trkpt lat="43.7293" lon="3.44597">
        <ele>475.5</ele>
        <time>2017-03-22T09:33:51Z</time>
      </trkpt>
      <trkpt lat="43.72939" lon="3.44593">
        <ele>476.3</ele>
        <time>2017-03-22T09:33:55Z</time>
      </trkpt>
      <trkpt lat="43.72946" lon="3.44591">
        <ele>477</ele>
        <time>2017-03-22T09:33:58Z</time>
      </trkpt>
      <trkpt lat="43.72954" lon="3.44586">
        <ele>478</ele>
        <time>2017-03-22T09:34:01Z</time>
      </trkpt>
      <trkpt lat="43.72961" lon="3.44582">
        <ele>478.9</ele>
        <time>2017-03-22T09:34:04Z</time>
      </trkpt>
      <trkpt lat="43.72969" lon="3.44578">
        <ele>479.7</ele>
        <time>2017-03-22T09:34:07Z</time>
      </trkpt>
      <trkpt lat="43.72978" lon="3.44572">
        <ele>480.9</ele>
        <time>2017-03-22T09:34:11Z</time>
      </trkpt>
      <trkpt lat="43.72987" lon="3.44568">
        <ele>482</ele>
        <time>2017-03-22T09:34:14Z</time>
      </trkpt>
      <trkpt lat="43.72996" lon="3.44566">
        <ele>483.2</ele>
        <time>2017-03-22T09:34:17Z</time>
      </trkpt>
      <trkpt lat="43.73004" lon="3.44565">
        <ele>484</ele>
        <time>2017-03-22T09:34:20Z</time>
      </trkpt>
      <trkpt lat="43.73013" lon="3.44567">
        <ele>484.7</ele>
        <time>2017-03-22T09:34:23Z</time>
      </trkpt>
      <trkpt lat="43.73021" lon="3.44572">
        <ele>485.3</ele>
        <time>2017-03-22T09:34:26Z</time>
      </trkpt>
      <trkpt lat="43.73028" lon="3.44581">
        <ele>486</ele>
        <time>2017-03-22T09:34:29Z</time>
      </trkpt>
      <trkpt lat="43.73034" lon="3.44587">
        <ele>486.7</ele>
        <time>2017-03-22T09:34:32Z</time>
      </trkpt>
      <trkpt lat="43.7304" lon="3.44595">
        <ele>487.5</ele>
        <time>2017-03-22T09:34:35Z</time>
      </trkpt>
      <trkpt lat="43.73048" lon="3.44602">
        <ele>488.2</ele>
        <time>2017-03-22T09:34:38Z</time>
      </trkpt>
      <trkpt lat="43.73054" lon="3.4461">
        <ele>488.6</ele>
        <time>2017-03-22T09:34:40Z</time>
      </trkpt>
      <trkpt lat="43.73059" lon="3.44619">
        <ele>488.9</ele>
        <time>2017-03-22T09:34:42Z</time>
      </trkpt>
      <trkpt lat="43.73063" lon="3.44628">
        <ele>489.4</ele>
        <time>2017-03-22T09:34:44Z</time>
      </trkpt>
      <trkpt lat="43.73068" lon="3.44639">
        <ele>489.9</ele>
        <time>2017-03-22T09:34:47Z</time>
      </trkpt>
      <trkpt lat="43.73074" lon="3.44651">
        <ele>490.3</ele>
        <time>2017-03-22T09:34:50Z</time>
      </trkpt>
      <trkpt lat="43.73078" lon="3.44659">
        <ele>490.6</ele>
        <time>2017-03-22T09:34:52Z</time>
      </trkpt>
      <trkpt lat="43.73082" lon="3.44668">
        <ele>491</ele>
        <time>2017-03-22T09:34:55Z</time>
      </trkpt>
      <trkpt lat="43.73086" lon="3.44679">
        <ele>491.2</ele>
        <time>2017-03-22T09:34:58Z</time>
      </trkpt>
      <trkpt lat="43.73088" lon="3.4469">
        <ele>491.5</ele>
        <time>2017-03-22T09:35:01Z</time>
      </trkpt>
      <trkpt lat="43.7309" lon="3.447">
        <ele>491.8</ele>
        <time>2017-03-22T09:35:04Z</time>
      </trkpt>
      <trkpt lat="43.73092" lon="3.44713">
        <ele>492</ele>
        <time>2017-03-22T09:35:07Z</time>
      </trkpt>
      <trkpt lat="43.73095" lon="3.44725">
        <ele>492.4</ele>
        <time>2017-03-22T09:35:10Z</time>
      </trkpt>
      <trkpt lat="43.73097" lon="3.44735">
        <ele>492.7</ele>
        <time>2017-03-22T09:35:12Z</time>
      </trkpt>
      <trkpt lat="43.73098" lon="3.44745">
        <ele>493.3</ele>
        <time>2017-03-22T09:35:15Z</time>
      </trkpt>
      <trkpt lat="43.73098" lon="3.44757">
        <ele>493.9</ele>
        <time>2017-03-22T09:35:18Z</time>
      </trkpt>
      <trkpt lat="43.73098" lon="3.44768">
        <ele>494.7</ele>
        <time>2017-03-22T09:35:21Z</time>
      </trkpt>
      <trkpt lat="43.73099" lon="3.4478">
        <ele>495.4</ele>
        <time>2017-03-22T09:35:24Z</time>
      </trkpt>
      <trkpt lat="43.73102" lon="3.44794">
        <ele>496.2</ele>
        <time>2017-03-22T09:35:28Z</time>
      </trkpt>
      <trkpt lat="43.73105" lon="3.44803">
        <ele>496.7</ele>
        <time>2017-03-22T09:35:31Z</time>
      </trkpt>
      <trkpt lat="43.7311" lon="3.44814">
        <ele>497.3</ele>
        <time>2017-03-22T09:35:36Z</time>
      </trkpt>
      <trkpt lat="43.73116" lon="3.44823">
        <ele>497.8</ele>
        <time>2017-03-22T09:35:40Z</time>
      </trkpt>
      <trkpt lat="43.73121" lon="3.44831">
        <ele>497.9</ele>
        <time>2017-03-22T09:35:43Z</time>
      </trkpt>
      <trkpt lat="43.73129" lon="3.4484">
        <ele>498.3</ele>
        <time>2017-03-22T09:35:47Z</time>
      </trkpt>
      <trkpt lat="43.73136" lon="3.44851">
        <ele>499.4</ele>
        <time>2017-03-22T09:35:50Z</time>
      </trkpt>
      <trkpt lat="43.73141" lon="3.44859">
        <ele>499.3</ele>
        <time>2017-03-22T09:35:52Z</time>
      </trkpt>
      <trkpt lat="43.7314" lon="3.44871">
        <ele>499.2</ele>
        <time>2017-03-22T09:35:55Z</time>
      </trkpt>
      <trkpt lat="43.73133" lon="3.44874">
        <ele>499.2</ele>
        <time>2017-03-22T09:35:59Z</time>
      </trkpt>
      <trkpt lat="43.73125" lon="3.44875">
        <ele>499.4</ele>
        <time>2017-03-22T09:36:03Z</time>
      </trkpt>
      <trkpt lat="43.73118" lon="3.44873">
        <ele>499.8</ele>
        <time>2017-03-22T09:36:07Z</time>
      </trkpt>
      <trkpt lat="43.73108" lon="3.44871">
        <ele>500.2</ele>
        <time>2017-03-22T09:36:12Z</time>
      </trkpt>
      <trkpt lat="43.731" lon="3.4487">
        <ele>500.4</ele>
        <time>2017-03-22T09:36:17Z</time>
      </trkpt>
      <trkpt lat="43.73092" lon="3.44867">
        <ele>501.1</ele>
        <time>2017-03-22T09:36:22Z</time>
      </trkpt>
      <trkpt lat="43.73084" lon="3.44865">
        <ele>501.9</ele>
        <time>2017-03-22T09:36:27Z</time>
      </trkpt>
      <trkpt lat="43.73077" lon="3.44863">
        <ele>502.6</ele>
        <time>2017-03-22T09:36:31Z</time>
      </trkpt>
      <trkpt lat="43.73069" lon="3.44862">
        <ele>503.3</ele>
        <time>2017-03-22T09:36:36Z</time>
      </trkpt>
      <trkpt lat="43.7306" lon="3.44862">
        <ele>503.7</ele>
        <time>2017-03-22T09:36:40Z</time>
      </trkpt>
      <trkpt lat="43.73052" lon="3.44862">
        <ele>504.5</ele>
        <time>2017-03-22T09:36:45Z</time>
      </trkpt>
      <trkpt lat="43.73044" lon="3.44862">
        <ele>505.2</ele>
        <time>2017-03-22T09:36:49Z</time>
      </trkpt>
      <trkpt lat="43.73036" lon="3.44859">
        <ele>506</ele>
        <time>2017-03-22T09:36:53Z</time>
      </trkpt>
      <trkpt lat="43.73027" lon="3.44856">
        <ele>506.7</ele>
        <time>2017-03-22T09:36:57Z</time>
      </trkpt>
      <trkpt lat="43.73019" lon="3.44855">
        <ele>507.3</ele>
        <time>2017-03-22T09:37:00Z</time>
      </trkpt>
      <trkpt lat="43.73011" lon="3.44854">
        <ele>508.1</ele>
        <time>2017-03-22T09:37:03Z</time>
      </trkpt>
      <trkpt lat="43.73003" lon="3.44856">
        <ele>508.9</ele>
        <time>2017-03-22T09:37:07Z</time>
      </trkpt>
      <trkpt lat="43.72995" lon="3.44856">
        <ele>509.5</ele>
        <time>2017-03-22T09:37:10Z</time>
      </trkpt>
      <trkpt lat="43.72987" lon="3.44859">
        <ele>510.3</ele>
        <time>2017-03-22T09:37:14Z</time>
      </trkpt>
      <trkpt lat="43.72978" lon="3.4486">
        <ele>511.1</ele>
        <time>2017-03-22T09:37:18Z</time>
      </trkpt>
      <trkpt lat="43.7297" lon="3.44861">
        <ele>511.7</ele>
        <time>2017-03-22T09:37:21Z</time>
      </trkpt>
      <trkpt lat="43.72962" lon="3.44862">
        <ele>512.1</ele>
        <time>2017-03-22T09:37:24Z</time>
      </trkpt>
      <trkpt lat="43.72954" lon="3.44862">
        <ele>512.8</ele>
        <time>2017-03-22T09:37:28Z</time>
      </trkpt>
      <trkpt lat="43.72946" lon="3.44859">
        <ele>513.3</ele>
        <time>2017-03-22T09:37:32Z</time>
      </trkpt>
      <trkpt lat="43.72939" lon="3.44855">
        <ele>514</ele>
        <time>2017-03-22T09:37:35Z</time>
      </trkpt>
      <trkpt lat="43.72932" lon="3.44852">
        <ele>514.9</ele>
        <time>2017-03-22T09:37:39Z</time>
      </trkpt>
      <trkpt lat="43.72924" lon="3.4485">
        <ele>515.7</ele>
        <time>2017-03-22T09:37:42Z</time>
      </trkpt>
      <trkpt lat="43.72916" lon="3.44845">
        <ele>516.9</ele>
        <time>2017-03-22T09:37:46Z</time>
      </trkpt>
      <trkpt lat="43.72906" lon="3.4484">
        <ele>517.8</ele>
        <time>2017-03-22T09:37:49Z</time>
      </trkpt>
      <trkpt lat="43.72896" lon="3.44837">
        <ele>523.5</ele>
        <time>2017-03-22T09:37:51Z</time>
      </trkpt>
      <trkpt lat="43.72885" lon="3.44837">
        <ele>525.8</ele>
        <time>2017-03-22T09:37:53Z</time>
      </trkpt>
      <trkpt lat="43.72873" lon="3.4484">
        <ele>526.6</ele>
        <time>2017-03-22T09:37:55Z</time>
      </trkpt>
      <trkpt lat="43.72865" lon="3.44843">
        <ele>526.6</ele>
        <time>2017-03-22T09:37:56Z</time>
      </trkpt>
      <trkpt lat="43.72856" lon="3.44844">
        <ele>526.6</ele>
        <time>2017-03-22T09:37:57Z</time>
      </trkpt>
      <trkpt lat="43.72849" lon="3.44846">
        <ele>526.3</ele>
        <time>2017-03-22T09:37:58Z</time>
      </trkpt>
      <trkpt lat="43.72835" lon="3.44847">
        <ele>523.6</ele>
        <time>2017-03-22T09:38:00Z</time>
      </trkpt>
      <trkpt lat="43.7282" lon="3.44846">
        <ele>520.6</ele>
        <time>2017-03-22T09:38:02Z</time>
      </trkpt>
      <trkpt lat="43.72812" lon="3.44845">
        <ele>519.4</ele>
        <time>2017-03-22T09:38:03Z</time>
      </trkpt>
      <trkpt lat="43.72803" lon="3.44844">
        <ele>517.9</ele>
        <time>2017-03-22T09:38:04Z</time>
      </trkpt>
      <trkpt lat="43.72794" lon="3.44842">
        <ele>516.6</ele>
        <time>2017-03-22T09:38:05Z</time>
      </trkpt>
      <trkpt lat="43.72784" lon="3.44841">
        <ele>515.7</ele>
        <time>2017-03-22T09:38:06Z</time>
      </trkpt>
      <trkpt lat="43.72776" lon="3.44839">
        <ele>514.9</ele>
        <time>2017-03-22T09:38:07Z</time>
      </trkpt>
      <trkpt lat="43.72766" lon="3.44836">
        <ele>514</ele>
        <time>2017-03-22T09:38:08Z</time>
      </trkpt>
      <trkpt lat="43.72758" lon="3.44835">
        <ele>513.1</ele>
        <time>2017-03-22T09:38:09Z</time>
      </trkpt>
      <trkpt lat="43.72745" lon="3.44837">
        <ele>512</ele>
        <time>2017-03-22T09:38:11Z</time>
      </trkpt>
      <trkpt lat="43.72736" lon="3.44835">
        <ele>512.2</ele>
        <time>2017-03-22T09:38:13Z</time>
      </trkpt>
      <trkpt lat="43.72727" lon="3.44834">
        <ele>512.8</ele>
        <time>2017-03-22T09:38:15Z</time>
      </trkpt>
      <trkpt lat="43.72715" lon="3.44834">
        <ele>514.2</ele>
        <time>2017-03-22T09:38:17Z</time>
      </trkpt>
      <trkpt lat="43.72703" lon="3.44833">
        <ele>514.4</ele>
        <time>2017-03-22T09:38:19Z</time>
      </trkpt>
      <trkpt lat="43.72693" lon="3.44834">
        <ele>513.7</ele>
        <time>2017-03-22T09:38:21Z</time>
      </trkpt>
      <trkpt lat="43.72684" lon="3.44834">
        <ele>513.6</ele>
        <time>2017-03-22T09:38:23Z</time>
      </trkpt>
      <trkpt lat="43.72674" lon="3.44831">
        <ele>513.7</ele>
        <time>2017-03-22T09:38:25Z</time>
      </trkpt>
      <trkpt lat="43.72666" lon="3.44832">
        <ele>514.4</ele>
        <time>2017-03-22T09:38:27Z</time>
      </trkpt>
      <trkpt lat="43.72657" lon="3.44833">
        <ele>514.7</ele>
        <time>2017-03-22T09:38:29Z</time>
      </trkpt>
      <trkpt lat="43.72647" lon="3.44833">
        <ele>514.6</ele>
        <time>2017-03-22T09:38:31Z</time>
      </trkpt>
      <trkpt lat="43.72635" lon="3.44831">
        <ele>514.3</ele>
        <time>2017-03-22T09:38:33Z</time>
      </trkpt>
      <trkpt lat="43.72622" lon="3.44829">
        <ele>513.8</ele>
        <time>2017-03-22T09:38:35Z</time>
      </trkpt>
      <trkpt lat="43.72611" lon="3.44828">
        <ele>514.6</ele>
        <time>2017-03-22T09:38:37Z</time>
      </trkpt>
      <trkpt lat="43.72602" lon="3.44825">
        <ele>516.5</ele>
        <time>2017-03-22T09:38:39Z</time>
      </trkpt>
      <trkpt lat="43.72592" lon="3.44823">
        <ele>518.2</ele>
        <time>2017-03-22T09:38:41Z</time>
      </trkpt>
      <trkpt lat="43.72583" lon="3.44818">
        <ele>518.9</ele>
        <time>2017-03-22T09:38:43Z</time>
      </trkpt>
      <trkpt lat="43.72572" lon="3.44818">
        <ele>518.7</ele>
        <time>2017-03-22T09:38:45Z</time>
      </trkpt>
      <trkpt lat="43.7256" lon="3.44817">
        <ele>518.7</ele>
        <time>2017-03-22T09:38:47Z</time>
      </trkpt>
      <trkpt lat="43.72552" lon="3.44816">
        <ele>518.7</ele>
        <time>2017-03-22T09:38:49Z</time>
      </trkpt>
      <trkpt lat="43.72544" lon="3.44815">
        <ele>519</ele>
        <time>2017-03-22T09:38:51Z</time>
      </trkpt>
      <trkpt lat="43.72533" lon="3.44816">
        <ele>520.5</ele>
        <time>2017-03-22T09:38:53Z</time>
      </trkpt>
      <trkpt lat="43.72521" lon="3.44816">
        <ele>520.7</ele>
        <time>2017-03-22T09:38:55Z</time>
      </trkpt>
      <trkpt lat="43.72514" lon="3.44816">
        <ele>520.3</ele>
        <time>2017-03-22T09:38:56Z</time>
      </trkpt>
      <trkpt lat="43.72501" lon="3.44818">
        <ele>520.3</ele>
        <time>2017-03-22T09:38:58Z</time>
      </trkpt>
      <trkpt lat="43.72488" lon="3.44818">
        <ele>519.3</ele>
        <time>2017-03-22T09:39:00Z</time>
      </trkpt>
      <trkpt lat="43.72476" lon="3.44817">
        <ele>518.3</ele>
        <time>2017-03-22T09:39:02Z</time>
      </trkpt>
      <trkpt lat="43.72462" lon="3.44815">
        <ele>517.9</ele>
        <time>2017-03-22T09:39:04Z</time>
      </trkpt>
      <trkpt lat="43.72449" lon="3.44812">
        <ele>517.9</ele>
        <time>2017-03-22T09:39:06Z</time>
      </trkpt>
      <trkpt lat="43.72442" lon="3.44811">
        <ele>517.9</ele>
        <time>2017-03-22T09:39:07Z</time>
      </trkpt>
      <trkpt lat="43.72431" lon="3.44813">
        <ele>517.5</ele>
        <time>2017-03-22T09:39:09Z</time>
      </trkpt>
      <trkpt lat="43.7242" lon="3.44821">
        <ele>517.7</ele>
        <time>2017-03-22T09:39:11Z</time>
      </trkpt>
      <trkpt lat="43.72409" lon="3.44825">
        <ele>516.4</ele>
        <time>2017-03-22T09:39:13Z</time>
      </trkpt>
      <trkpt lat="43.72402" lon="3.44829">
        <ele>516.1</ele>
        <time>2017-03-22T09:39:15Z</time>
      </trkpt>
      <trkpt lat="43.72395" lon="3.44834">
        <ele>515.5</ele>
        <time>2017-03-22T09:39:17Z</time>
      </trkpt>
      <trkpt lat="43.72385" lon="3.44836">
        <ele>516.2</ele>
        <time>2017-03-22T09:39:19Z</time>
      </trkpt>
      <trkpt lat="43.72375" lon="3.44836">
        <ele>516.3</ele>
        <time>2017-03-22T09:39:21Z</time>
      </trkpt>
      <trkpt lat="43.72368" lon="3.44837">
        <ele>516.5</ele>
        <time>2017-03-22T09:39:23Z</time>
      </trkpt>
      <trkpt lat="43.72359" lon="3.44839">
        <ele>516.5</ele>
        <time>2017-03-22T09:39:25Z</time>
      </trkpt>
      <trkpt lat="43.72348" lon="3.44838">
        <ele>516.7</ele>
        <time>2017-03-22T09:39:28Z</time>
      </trkpt>
      <trkpt lat="43.72339" lon="3.44835">
        <ele>516.8</ele>
        <time>2017-03-22T09:39:30Z</time>
      </trkpt>
      <trkpt lat="43.72331" lon="3.44834">
        <ele>516.9</ele>
        <time>2017-03-22T09:39:32Z</time>
      </trkpt>
      <trkpt lat="43.72323" lon="3.44832">
        <ele>517.1</ele>
        <time>2017-03-22T09:39:34Z</time>
      </trkpt>
      <trkpt lat="43.72316" lon="3.4483">
        <ele>517.4</ele>
        <time>2017-03-22T09:39:37Z</time>
      </trkpt>
      <trkpt lat="43.72308" lon="3.44825">
        <ele>517.9</ele>
        <time>2017-03-22T09:39:40Z</time>
      </trkpt>
      <trkpt lat="43.72301" lon="3.44819">
        <ele>518.3</ele>
        <time>2017-03-22T09:39:44Z</time>
      </trkpt>
      <trkpt lat="43.72294" lon="3.44813">
        <ele>518.4</ele>
        <time>2017-03-22T09:39:47Z</time>
      </trkpt>
      <trkpt lat="43.72287" lon="3.44808">
        <ele>518.9</ele>
        <time>2017-03-22T09:39:51Z</time>
      </trkpt>
      <trkpt lat="43.7228" lon="3.44809">
        <ele>519.2</ele>
        <time>2017-03-22T09:39:53Z</time>
      </trkpt>
      <trkpt lat="43.72272" lon="3.44812">
        <ele>520.6</ele>
        <time>2017-03-22T09:39:55Z</time>
      </trkpt>
      <trkpt lat="43.72264" lon="3.44817">
        <ele>521.2</ele>
        <time>2017-03-22T09:39:57Z</time>
      </trkpt>
      <trkpt lat="43.72257" lon="3.44822">
        <ele>521.6</ele>
        <time>2017-03-22T09:39:59Z</time>
      </trkpt>
      <trkpt lat="43.7225" lon="3.44827">
        <ele>521.5</ele>
        <time>2017-03-22T09:40:01Z</time>
      </trkpt>
      <trkpt lat="43.72244" lon="3.44833">
        <ele>521.6</ele>
        <time>2017-03-22T09:40:03Z</time>
      </trkpt>
      <trkpt lat="43.72236" lon="3.4484">
        <ele>521.4</ele>
        <time>2017-03-22T09:40:06Z</time>
      </trkpt>
      <trkpt lat="43.72229" lon="3.44846">
        <ele>521.1</ele>
        <time>2017-03-22T09:40:09Z</time>
      </trkpt>
      <trkpt lat="43.72222" lon="3.44857">
        <ele>520.9</ele>
        <time>2017-03-22T09:40:12Z</time>
      </trkpt>
      <trkpt lat="43.72217" lon="3.44865">
        <ele>520.9</ele>
        <time>2017-03-22T09:40:14Z</time>
      </trkpt>
      <trkpt lat="43.7221" lon="3.4487">
        <ele>520.9</ele>
        <time>2017-03-22T09:40:18Z</time>
      </trkpt>
      <trkpt lat="43.72201" lon="3.44872">
        <ele>521</ele>
        <time>2017-03-22T09:40:22Z</time>
      </trkpt>
      <trkpt lat="43.72193" lon="3.44873">
        <ele>521.2</ele>
        <time>2017-03-22T09:40:26Z</time>
      </trkpt>
      <trkpt lat="43.72184" lon="3.44878">
        <ele>521.5</ele>
        <time>2017-03-22T09:40:30Z</time>
      </trkpt>
      <trkpt lat="43.72177" lon="3.44881">
        <ele>521.6</ele>
        <time>2017-03-22T09:40:33Z</time>
      </trkpt>
      <trkpt lat="43.7217" lon="3.44884">
        <ele>521.6</ele>
        <time>2017-03-22T09:40:36Z</time>
      </trkpt>
      <trkpt lat="43.72162" lon="3.44884">
        <ele>521.8</ele>
        <time>2017-03-22T09:40:39Z</time>
      </trkpt>
      <trkpt lat="43.72152" lon="3.44885">
        <ele>522.1</ele>
        <time>2017-03-22T09:40:43Z</time>
      </trkpt>
      <trkpt lat="43.72144" lon="3.44883">
        <ele>522.4</ele>
        <time>2017-03-22T09:40:46Z</time>
      </trkpt>
      <trkpt lat="43.72136" lon="3.44878">
        <ele>522.7</ele>
        <time>2017-03-22T09:40:50Z</time>
      </trkpt>
      <trkpt lat="43.72128" lon="3.44875">
        <ele>523.2</ele>
        <time>2017-03-22T09:40:52Z</time>
      </trkpt>
      <trkpt lat="43.72117" lon="3.4487">
        <ele>523.2</ele>
        <time>2017-03-22T09:40:54Z</time>
      </trkpt>
      <trkpt lat="43.72103" lon="3.44864">
        <ele>522.7</ele>
        <time>2017-03-22T09:40:56Z</time>
      </trkpt>
      <trkpt lat="43.7209" lon="3.4486">
        <ele>522.7</ele>
        <time>2017-03-22T09:40:58Z</time>
      </trkpt>
      <trkpt lat="43.72082" lon="3.44857">
        <ele>522.5</ele>
        <time>2017-03-22T09:40:59Z</time>
      </trkpt>
      <trkpt lat="43.72075" lon="3.44853">
        <ele>522.1</ele>
        <time>2017-03-22T09:41:00Z</time>
      </trkpt>
      <trkpt lat="43.72063" lon="3.44845">
        <ele>521.7</ele>
        <time>2017-03-22T09:41:02Z</time>
      </trkpt>
      <trkpt lat="43.72051" lon="3.44838">
        <ele>521.4</ele>
        <time>2017-03-22T09:41:04Z</time>
      </trkpt>
      <trkpt lat="43.7204" lon="3.44831">
        <ele>520.5</ele>
        <time>2017-03-22T09:41:06Z</time>
      </trkpt>
      <trkpt lat="43.72027" lon="3.44823">
        <ele>519.7</ele>
        <time>2017-03-22T09:41:08Z</time>
      </trkpt>
      <trkpt lat="43.7202" lon="3.4482">
        <ele>519.4</ele>
        <time>2017-03-22T09:41:09Z</time>
      </trkpt>
      <trkpt lat="43.72013" lon="3.44817">
        <ele>518.7</ele>
        <time>2017-03-22T09:41:10Z</time>
      </trkpt>
      <trkpt lat="43.71998" lon="3.44814">
        <ele>517.4</ele>
        <time>2017-03-22T09:41:12Z</time>
      </trkpt>
      <trkpt lat="43.7199" lon="3.44814">
        <ele>517.5</ele>
        <time>2017-03-22T09:41:13Z</time>
      </trkpt>
      <trkpt lat="43.71983" lon="3.44817">
        <ele>517.1</ele>
        <time>2017-03-22T09:41:14Z</time>
      </trkpt>
      <trkpt lat="43.71972" lon="3.44828">
        <ele>515.9</ele>
        <time>2017-03-22T09:41:16Z</time>
      </trkpt>
      <trkpt lat="43.71967" lon="3.44835">
        <ele>515.5</ele>
        <time>2017-03-22T09:41:17Z</time>
      </trkpt>
      <trkpt lat="43.71961" lon="3.4485">
        <ele>514.5</ele>
        <time>2017-03-22T09:41:19Z</time>
      </trkpt>
      <trkpt lat="43.71958" lon="3.44864">
        <ele>513.7</ele>
        <time>2017-03-22T09:41:21Z</time>
      </trkpt>
      <trkpt lat="43.71955" lon="3.44876">
        <ele>514.2</ele>
        <time>2017-03-22T09:41:23Z</time>
      </trkpt>
      <trkpt lat="43.71953" lon="3.44888">
        <ele>515.1</ele>
        <time>2017-03-22T09:41:25Z</time>
      </trkpt>
      <trkpt lat="43.71949" lon="3.44899">
        <ele>515.8</ele>
        <time>2017-03-22T09:41:27Z</time>
      </trkpt>
      <trkpt lat="43.71945" lon="3.44911">
        <ele>516.3</ele>
        <time>2017-03-22T09:41:29Z</time>
      </trkpt>
      <trkpt lat="43.7194" lon="3.44923">
        <ele>516.7</ele>
        <time>2017-03-22T09:41:31Z</time>
      </trkpt>
      <trkpt lat="43.71936" lon="3.44935">
        <ele>517.1</ele>
        <time>2017-03-22T09:41:33Z</time>
      </trkpt>
      <trkpt lat="43.71931" lon="3.44947">
        <ele>516.6</ele>
        <time>2017-03-22T09:41:35Z</time>
      </trkpt>
      <trkpt lat="43.71928" lon="3.44957">
        <ele>516.7</ele>
        <time>2017-03-22T09:41:37Z</time>
      </trkpt>
      <trkpt lat="43.71926" lon="3.44968">
        <ele>516.9</ele>
        <time>2017-03-22T09:41:41Z</time>
      </trkpt>
      <trkpt lat="43.71923" lon="3.44978">
        <ele>517.1</ele>
        <time>2017-03-22T09:41:44Z</time>
      </trkpt>
      <trkpt lat="43.71921" lon="3.44989">
        <ele>517.3</ele>
        <time>2017-03-22T09:41:47Z</time>
      </trkpt>
      <trkpt lat="43.71918" lon="3.45">
        <ele>517.5</ele>
        <time>2017-03-22T09:41:50Z</time>
      </trkpt>
      <trkpt lat="43.71916" lon="3.45011">
        <ele>517.7</ele>
        <time>2017-03-22T09:41:53Z</time>
      </trkpt>
      <trkpt lat="43.71915" lon="3.45021">
        <ele>518</ele>
        <time>2017-03-22T09:41:56Z</time>
      </trkpt>
      <trkpt lat="43.71913" lon="3.45032">
        <ele>518.3</ele>
        <time>2017-03-22T09:41:59Z</time>
      </trkpt>
      <trkpt lat="43.71911" lon="3.45042">
        <ele>518.8</ele>
        <time>2017-03-22T09:42:02Z</time>
      </trkpt>
      <trkpt lat="43.71908" lon="3.45053">
        <ele>519.3</ele>
        <time>2017-03-22T09:42:05Z</time>
      </trkpt>
      <trkpt lat="43.71906" lon="3.45066">
        <ele>519.7</ele>
        <time>2017-03-22T09:42:08Z</time>
      </trkpt>
      <trkpt lat="43.71904" lon="3.45077">
        <ele>520.2</ele>
        <time>2017-03-22T09:42:11Z</time>
      </trkpt>
      <trkpt lat="43.71903" lon="3.45088">
        <ele>520.9</ele>
        <time>2017-03-22T09:42:15Z</time>
      </trkpt>
      <trkpt lat="43.71901" lon="3.45099">
        <ele>521.3</ele>
        <time>2017-03-22T09:42:18Z</time>
      </trkpt>
      <trkpt lat="43.719" lon="3.4511">
        <ele>522.2</ele>
        <time>2017-03-22T09:42:20Z</time>
      </trkpt>
      <trkpt lat="43.71899" lon="3.45121">
        <ele>523.1</ele>
        <time>2017-03-22T09:42:22Z</time>
      </trkpt>
      <trkpt lat="43.71896" lon="3.45132">
        <ele>523.5</ele>
        <time>2017-03-22T09:42:24Z</time>
      </trkpt>
      <trkpt lat="43.71894" lon="3.45145">
        <ele>523.7</ele>
        <time>2017-03-22T09:42:26Z</time>
      </trkpt>
      <trkpt lat="43.71892" lon="3.45159">
        <ele>524</ele>
        <time>2017-03-22T09:42:28Z</time>
      </trkpt>
      <trkpt lat="43.71889" lon="3.45176">
        <ele>523.8</ele>
        <time>2017-03-22T09:42:30Z</time>
      </trkpt>
      <trkpt lat="43.71887" lon="3.45193">
        <ele>523.2</ele>
        <time>2017-03-22T09:42:32Z</time>
      </trkpt>
      <trkpt lat="43.71886" lon="3.45211">
        <ele>522.7</ele>
        <time>2017-03-22T09:42:34Z</time>
      </trkpt>
      <trkpt lat="43.71885" lon="3.45227">
        <ele>522</ele>
        <time>2017-03-22T09:42:36Z</time>
      </trkpt>
      <trkpt lat="43.71885" lon="3.45243">
        <ele>521</ele>
        <time>2017-03-22T09:42:38Z</time>
      </trkpt>
      <trkpt lat="43.71884" lon="3.45259">
        <ele>521.6</ele>
        <time>2017-03-22T09:42:40Z</time>
      </trkpt>
      <trkpt lat="43.71884" lon="3.45273">
        <ele>522.8</ele>
        <time>2017-03-22T09:42:42Z</time>
      </trkpt>
      <trkpt lat="43.71883" lon="3.45286">
        <ele>523.6</ele>
        <time>2017-03-22T09:42:44Z</time>
      </trkpt>
      <trkpt lat="43.71883" lon="3.453">
        <ele>524.3</ele>
        <time>2017-03-22T09:42:46Z</time>
      </trkpt>
      <trkpt lat="43.71882" lon="3.45312">
        <ele>524.1</ele>
        <time>2017-03-22T09:42:48Z</time>
      </trkpt>
      <trkpt lat="43.71881" lon="3.45324">
        <ele>524.5</ele>
        <time>2017-03-22T09:42:50Z</time>
      </trkpt>
      <trkpt lat="43.7188" lon="3.45337">
        <ele>525.2</ele>
        <time>2017-03-22T09:42:52Z</time>
      </trkpt>
      <trkpt lat="43.71879" lon="3.45349">
        <ele>525.3</ele>
        <time>2017-03-22T09:42:55Z</time>
      </trkpt>
      <trkpt lat="43.71879" lon="3.45361">
        <ele>525.4</ele>
        <time>2017-03-22T09:42:58Z</time>
      </trkpt>
      <trkpt lat="43.7188" lon="3.45373">
        <ele>525.5</ele>
        <time>2017-03-22T09:43:01Z</time>
      </trkpt>
      <trkpt lat="43.71881" lon="3.45383">
        <ele>525.7</ele>
        <time>2017-03-22T09:43:04Z</time>
      </trkpt>
      <trkpt lat="43.71881" lon="3.45399">
        <ele>526.6</ele>
        <time>2017-03-22T09:43:08Z</time>
      </trkpt>
      <trkpt lat="43.71878" lon="3.45411">
        <ele>526.8</ele>
        <time>2017-03-22T09:43:10Z</time>
      </trkpt>
      <trkpt lat="43.71876" lon="3.45426">
        <ele>526.1</ele>
        <time>2017-03-22T09:43:12Z</time>
      </trkpt>
      <trkpt lat="43.71877" lon="3.45441">
        <ele>524.9</ele>
        <time>2017-03-22T09:43:14Z</time>
      </trkpt>
      <trkpt lat="43.71877" lon="3.45456">
        <ele>523.8</ele>
        <time>2017-03-22T09:43:16Z</time>
      </trkpt>
      <trkpt lat="43.71875" lon="3.45469">
        <ele>523.9</ele>
        <time>2017-03-22T09:43:18Z</time>
      </trkpt>
      <trkpt lat="43.71872" lon="3.45477">
        <ele>523.6</ele>
        <time>2017-03-22T09:43:19Z</time>
      </trkpt>
      <trkpt lat="43.71861" lon="3.45489">
        <ele>522.7</ele>
        <time>2017-03-22T09:43:21Z</time>
      </trkpt>
      <trkpt lat="43.71855" lon="3.45494">
        <ele>522.7</ele>
        <time>2017-03-22T09:43:22Z</time>
      </trkpt>
      <trkpt lat="43.71849" lon="3.45501">
        <ele>522.6</ele>
        <time>2017-03-22T09:43:23Z</time>
      </trkpt>
      <trkpt lat="43.71842" lon="3.45508">
        <ele>522.4</ele>
        <time>2017-03-22T09:43:24Z</time>
      </trkpt>
      <trkpt lat="43.71833" lon="3.4552">
        <ele>522.5</ele>
        <time>2017-03-22T09:43:26Z</time>
      </trkpt>
      <trkpt lat="43.71824" lon="3.45526">
        <ele>522.6</ele>
        <time>2017-03-22T09:43:29Z</time>
      </trkpt>
      <trkpt lat="43.71818" lon="3.45533">
        <ele>522.7</ele>
        <time>2017-03-22T09:43:33Z</time>
      </trkpt>
      <trkpt lat="43.71812" lon="3.4554">
        <ele>522.9</ele>
        <time>2017-03-22T09:43:36Z</time>
      </trkpt>
      <trkpt lat="43.71808" lon="3.45548">
        <ele>523</ele>
        <time>2017-03-22T09:43:38Z</time>
      </trkpt>
      <trkpt lat="43.71805" lon="3.45557">
        <ele>523</ele>
        <time>2017-03-22T09:43:40Z</time>
      </trkpt>
      <trkpt lat="43.71798" lon="3.45571">
        <ele>523.7</ele>
        <time>2017-03-22T09:43:43Z</time>
      </trkpt>
      <trkpt lat="43.7179" lon="3.45584">
        <ele>523.3</ele>
        <time>2017-03-22T09:43:45Z</time>
      </trkpt>
      <trkpt lat="43.71786" lon="3.45601">
        <ele>522.5</ele>
        <time>2017-03-22T09:43:47Z</time>
      </trkpt>
      <trkpt lat="43.71781" lon="3.45615">
        <ele>522.2</ele>
        <time>2017-03-22T09:43:49Z</time>
      </trkpt>
      <trkpt lat="43.71783" lon="3.45627">
        <ele>522</ele>
        <time>2017-03-22T09:43:51Z</time>
      </trkpt>
      <trkpt lat="43.7179" lon="3.45633">
        <ele>521.7</ele>
        <time>2017-03-22T09:43:57Z</time>
      </trkpt>
      <trkpt lat="43.71784" lon="3.45641">
        <ele>521.5</ele>
        <time>2017-03-22T09:44:02Z</time>
      </trkpt>
      <trkpt lat="43.71783" lon="3.45641">
        <ele>521.5</ele>
        <time>2017-03-22T09:44:09Z</time>
      </trkpt>
      <trkpt lat="43.71782" lon="3.45658">
        <ele>521</ele>
        <time>2017-03-22T09:44:17Z</time>
      </trkpt>
      <trkpt lat="43.71781" lon="3.45673">
        <ele>519.9</ele>
        <time>2017-03-22T09:44:19Z</time>
      </trkpt>
      <trkpt lat="43.71773" lon="3.4568">
        <ele>518.3</ele>
        <time>2017-03-22T09:44:21Z</time>
      </trkpt>
      <trkpt lat="43.71766" lon="3.45693">
        <ele>516.3</ele>
        <time>2017-03-22T09:44:24Z</time>
      </trkpt>
      <trkpt lat="43.7176" lon="3.45705">
        <ele>514.2</ele>
        <time>2017-03-22T09:44:26Z</time>
      </trkpt>
      <trkpt lat="43.71753" lon="3.45712">
        <ele>512.6</ele>
        <time>2017-03-22T09:44:29Z</time>
      </trkpt>
      <trkpt lat="43.71743" lon="3.45715">
        <ele>511.7</ele>
        <time>2017-03-22T09:44:31Z</time>
      </trkpt>
      <trkpt lat="43.71733" lon="3.4572">
        <ele>511.2</ele>
        <time>2017-03-22T09:44:33Z</time>
      </trkpt>
      <trkpt lat="43.71721" lon="3.4572">
        <ele>510.5</ele>
        <time>2017-03-22T09:44:36Z</time>
      </trkpt>
      <trkpt lat="43.71714" lon="3.45728">
        <ele>510.3</ele>
        <time>2017-03-22T09:44:39Z</time>
      </trkpt>
      <trkpt lat="43.71709" lon="3.45738">
        <ele>508.8</ele>
        <time>2017-03-22T09:44:41Z</time>
      </trkpt>
      <trkpt lat="43.71703" lon="3.45745">
        <ele>507.5</ele>
        <time>2017-03-22T09:44:43Z</time>
      </trkpt>
      <trkpt lat="43.71696" lon="3.4575">
        <ele>506.5</ele>
        <time>2017-03-22T09:44:45Z</time>
      </trkpt>
      <trkpt lat="43.71693" lon="3.4576">
        <ele>506.2</ele>
        <time>2017-03-22T09:44:49Z</time>
      </trkpt>
      <trkpt lat="43.71688" lon="3.45765">
        <ele>504.9</ele>
        <time>2017-03-22T09:44:56Z</time>
      </trkpt>
      <trkpt lat="43.71681" lon="3.45767">
        <ele>504.6</ele>
        <time>2017-03-22T09:44:58Z</time>
      </trkpt>
      <trkpt lat="43.71679" lon="3.45766">
        <ele>503.8</ele>
        <time>2017-03-22T09:45:05Z</time>
      </trkpt>
      <trkpt lat="43.71673" lon="3.45782">
        <ele>500.3</ele>
        <time>2017-03-22T09:45:12Z</time>
      </trkpt>
      <trkpt lat="43.71667" lon="3.45797">
        <ele>497.7</ele>
        <time>2017-03-22T09:45:15Z</time>
      </trkpt>
      <trkpt lat="43.71661" lon="3.45806">
        <ele>497.2</ele>
        <time>2017-03-22T09:45:18Z</time>
      </trkpt>
      <trkpt lat="43.71652" lon="3.45804">
        <ele>496.6</ele>
        <time>2017-03-22T09:45:22Z</time>
      </trkpt>
      <trkpt lat="43.71645" lon="3.45799">
        <ele>496.2</ele>
        <time>2017-03-22T09:45:25Z</time>
      </trkpt>
      <trkpt lat="43.71639" lon="3.45806">
        <ele>495.8</ele>
        <time>2017-03-22T09:45:31Z</time>
      </trkpt>
      <trkpt lat="43.71636" lon="3.45807">
        <ele>495.7</ele>
        <time>2017-03-22T09:45:38Z</time>
      </trkpt>
      <trkpt lat="43.71624" lon="3.45812">
        <ele>495.6</ele>
        <time>2017-03-22T09:45:47Z</time>
      </trkpt>
      <trkpt lat="43.71619" lon="3.45819">
        <ele>495.8</ele>
        <time>2017-03-22T09:45:54Z</time>
      </trkpt>
      <trkpt lat="43.71614" lon="3.45822">
        <ele>496.3</ele>
        <time>2017-03-22T09:46:01Z</time>
      </trkpt>
      <trkpt lat="43.71608" lon="3.45829">
        <ele>497.3</ele>
        <time>2017-03-22T09:46:08Z</time>
      </trkpt>
      <trkpt lat="43.71607" lon="3.4583">
        <ele>498.4</ele>
        <time>2017-03-22T09:46:15Z</time>
      </trkpt>
      <trkpt lat="43.71603" lon="3.45843">
        <ele>499.2</ele>
        <time>2017-03-22T09:46:23Z</time>
      </trkpt>
      <trkpt lat="43.716" lon="3.45851">
        <ele>499.7</ele>
        <time>2017-03-22T09:46:30Z</time>
      </trkpt>
      <trkpt lat="43.71595" lon="3.45865">
        <ele>501.5</ele>
        <time>2017-03-22T09:46:43Z</time>
      </trkpt>
      <trkpt lat="43.71592" lon="3.45873">
        <ele>502.1</ele>
        <time>2017-03-22T09:46:50Z</time>
      </trkpt>
      <trkpt lat="43.71598" lon="3.45882">
        <ele>503.8</ele>
        <time>2017-03-22T09:48:24Z</time>
      </trkpt>
      <trkpt lat="43.71603" lon="3.45889">
        <ele>504.2</ele>
        <time>2017-03-22T09:48:28Z</time>
      </trkpt>
      <trkpt lat="43.71605" lon="3.45899">
        <ele>504.7</ele>
        <time>2017-03-22T09:48:31Z</time>
      </trkpt>
      <trkpt lat="43.7161" lon="3.45908">
        <ele>504.9</ele>
        <time>2017-03-22T09:48:33Z</time>
      </trkpt>
      <trkpt lat="43.7161" lon="3.45924">
        <ele>504.8</ele>
        <time>2017-03-22T09:48:36Z</time>
      </trkpt>
      <trkpt lat="43.71611" lon="3.45934">
        <ele>505</ele>
        <time>2017-03-22T09:48:38Z</time>
      </trkpt>
      <trkpt lat="43.71609" lon="3.45947">
        <ele>503.7</ele>
        <time>2017-03-22T09:48:40Z</time>
      </trkpt>
      <trkpt lat="43.71606" lon="3.45962">
        <ele>502.7</ele>
        <time>2017-03-22T09:48:42Z</time>
      </trkpt>
      <trkpt lat="43.71609" lon="3.45974">
        <ele>502.6</ele>
        <time>2017-03-22T09:48:44Z</time>
      </trkpt>
      <trkpt lat="43.71607" lon="3.45988">
        <ele>501.9</ele>
        <time>2017-03-22T09:48:46Z</time>
      </trkpt>
      <trkpt lat="43.71608" lon="3.46005">
        <ele>501.1</ele>
        <time>2017-03-22T09:48:48Z</time>
      </trkpt>
      <trkpt lat="43.71609" lon="3.46022">
        <ele>500.5</ele>
        <time>2017-03-22T09:48:50Z</time>
      </trkpt>
      <trkpt lat="43.71607" lon="3.46041">
        <ele>498.9</ele>
        <time>2017-03-22T09:48:52Z</time>
      </trkpt>
      <trkpt lat="43.71603" lon="3.46058">
        <ele>497.4</ele>
        <time>2017-03-22T09:48:54Z</time>
      </trkpt>
      <trkpt lat="43.71598" lon="3.46076">
        <ele>495.6</ele>
        <time>2017-03-22T09:48:56Z</time>
      </trkpt>
      <trkpt lat="43.71591" lon="3.46093">
        <ele>493.2</ele>
        <time>2017-03-22T09:48:58Z</time>
      </trkpt>
      <trkpt lat="43.7159" lon="3.4611">
        <ele>490.7</ele>
        <time>2017-03-22T09:49:00Z</time>
      </trkpt>
      <trkpt lat="43.71588" lon="3.46122">
        <ele>489.4</ele>
        <time>2017-03-22T09:49:02Z</time>
      </trkpt>
      <trkpt lat="43.71585" lon="3.46138">
        <ele>486.6</ele>
        <time>2017-03-22T09:49:04Z</time>
      </trkpt>
      <trkpt lat="43.71582" lon="3.46146">
        <ele>485.2</ele>
        <time>2017-03-22T09:49:05Z</time>
      </trkpt>
      <trkpt lat="43.71577" lon="3.46159">
        <ele>484.8</ele>
        <time>2017-03-22T09:49:07Z</time>
      </trkpt>
      <trkpt lat="43.71576" lon="3.46172">
        <ele>484.9</ele>
        <time>2017-03-22T09:49:09Z</time>
      </trkpt>
      <trkpt lat="43.71574" lon="3.46186">
        <ele>484.9</ele>
        <time>2017-03-22T09:49:11Z</time>
      </trkpt>
      <trkpt lat="43.7157" lon="3.46197">
        <ele>484.7</ele>
        <time>2017-03-22T09:49:13Z</time>
      </trkpt>
      <trkpt lat="43.71566" lon="3.46208">
        <ele>484.7</ele>
        <time>2017-03-22T09:49:16Z</time>
      </trkpt>
      <trkpt lat="43.71563" lon="3.4622">
        <ele>484.6</ele>
        <time>2017-03-22T09:49:19Z</time>
      </trkpt>
      <trkpt lat="43.7156" lon="3.4623">
        <ele>484.5</ele>
        <time>2017-03-22T09:49:21Z</time>
      </trkpt>
      <trkpt lat="43.71558" lon="3.4624">
        <ele>484.4</ele>
        <time>2017-03-22T09:49:23Z</time>
      </trkpt>
      <trkpt lat="43.71558" lon="3.46254">
        <ele>484.2</ele>
        <time>2017-03-22T09:49:26Z</time>
      </trkpt>
      <trkpt lat="43.71557" lon="3.46266">
        <ele>481.7</ele>
        <time>2017-03-22T09:49:28Z</time>
      </trkpt>
      <trkpt lat="43.71556" lon="3.46277">
        <ele>479.1</ele>
        <time>2017-03-22T09:49:30Z</time>
      </trkpt>
      <trkpt lat="43.71554" lon="3.4629">
        <ele>477.5</ele>
        <time>2017-03-22T09:49:32Z</time>
      </trkpt>
      <trkpt lat="43.71549" lon="3.463">
        <ele>477</ele>
        <time>2017-03-22T09:49:36Z</time>
      </trkpt>
      <trkpt lat="43.71544" lon="3.46307">
        <ele>475.5</ele>
        <time>2017-03-22T09:49:38Z</time>
      </trkpt>
      <trkpt lat="43.71536" lon="3.4631">
        <ele>475.3</ele>
        <time>2017-03-22T09:49:41Z</time>
      </trkpt>
      <trkpt lat="43.71526" lon="3.46313">
        <ele>474.1</ele>
        <time>2017-03-22T09:49:44Z</time>
      </trkpt>
      <trkpt lat="43.71518" lon="3.4632">
        <ele>473.2</ele>
        <time>2017-03-22T09:49:47Z</time>
      </trkpt>
      <trkpt lat="43.71509" lon="3.46327">
        <ele>470.9</ele>
        <time>2017-03-22T09:49:49Z</time>
      </trkpt>
      <trkpt lat="43.71501" lon="3.46335">
        <ele>469.4</ele>
        <time>2017-03-22T09:49:51Z</time>
      </trkpt>
      <trkpt lat="43.71493" lon="3.46344">
        <ele>467.6</ele>
        <time>2017-03-22T09:49:53Z</time>
      </trkpt>
      <trkpt lat="43.71489" lon="3.46354">
        <ele>467.4</ele>
        <time>2017-03-22T09:49:56Z</time>
      </trkpt>
      <trkpt lat="43.71484" lon="3.46362">
        <ele>466.6</ele>
        <time>2017-03-22T09:50:01Z</time>
      </trkpt>
      <trkpt lat="43.71482" lon="3.46363">
        <ele>465</ele>
        <time>2017-03-22T09:50:22Z</time>
      </trkpt>
      <trkpt lat="43.71479" lon="3.46373">
        <ele>463</ele>
        <time>2017-03-22T09:50:44Z</time>
      </trkpt>
      <trkpt lat="43.71472" lon="3.46381">
        <ele>461.6</ele>
        <time>2017-03-22T09:50:46Z</time>
      </trkpt>
      <trkpt lat="43.71463" lon="3.46389">
        <ele>460.6</ele>
        <time>2017-03-22T09:50:48Z</time>
      </trkpt>
      <trkpt lat="43.71456" lon="3.46401">
        <ele>460.3</ele>
        <time>2017-03-22T09:50:51Z</time>
      </trkpt>
      <trkpt lat="43.71454" lon="3.4641">
        <ele>460</ele>
        <time>2017-03-22T09:50:53Z</time>
      </trkpt>
      <trkpt lat="43.7145" lon="3.4642">
        <ele>457</ele>
        <time>2017-03-22T09:50:55Z</time>
      </trkpt>
      <trkpt lat="43.71444" lon="3.46428">
        <ele>453.1</ele>
        <time>2017-03-22T09:50:57Z</time>
      </trkpt>
      <trkpt lat="43.71437" lon="3.46439">
        <ele>449.8</ele>
        <time>2017-03-22T09:50:59Z</time>
      </trkpt>
      <trkpt lat="43.71431" lon="3.46452">
        <ele>447.5</ele>
        <time>2017-03-22T09:51:01Z</time>
      </trkpt>
      <trkpt lat="43.71426" lon="3.46466">
        <ele>444.8</ele>
        <time>2017-03-22T09:51:03Z</time>
      </trkpt>
      <trkpt lat="43.71419" lon="3.4648">
        <ele>442.2</ele>
        <time>2017-03-22T09:51:05Z</time>
      </trkpt>
      <trkpt lat="43.7141" lon="3.46491">
        <ele>440.2</ele>
        <time>2017-03-22T09:51:07Z</time>
      </trkpt>
      <trkpt lat="43.71399" lon="3.46501">
        <ele>438.4</ele>
        <time>2017-03-22T09:51:09Z</time>
      </trkpt>
      <trkpt lat="43.71388" lon="3.4651">
        <ele>437.6</ele>
        <time>2017-03-22T09:51:11Z</time>
      </trkpt>
      <trkpt lat="43.71376" lon="3.46519">
        <ele>436.9</ele>
        <time>2017-03-22T09:51:13Z</time>
      </trkpt>
      <trkpt lat="43.71363" lon="3.46527">
        <ele>435.5</ele>
        <time>2017-03-22T09:51:15Z</time>
      </trkpt>
      <trkpt lat="43.71349" lon="3.46533">
        <ele>434.4</ele>
        <time>2017-03-22T09:51:17Z</time>
      </trkpt>
      <trkpt lat="43.71335" lon="3.46536">
        <ele>433.9</ele>
        <time>2017-03-22T09:51:19Z</time>
      </trkpt>
      <trkpt lat="43.71322" lon="3.46538">
        <ele>434.1</ele>
        <time>2017-03-22T09:51:21Z</time>
      </trkpt>
      <trkpt lat="43.71307" lon="3.46541">
        <ele>432.8</ele>
        <time>2017-03-22T09:51:23Z</time>
      </trkpt>
      <trkpt lat="43.71299" lon="3.46543">
        <ele>431.9</ele>
        <time>2017-03-22T09:51:24Z</time>
      </trkpt>
      <trkpt lat="43.71292" lon="3.46546">
        <ele>431.3</ele>
        <time>2017-03-22T09:51:25Z</time>
      </trkpt>
      <trkpt lat="43.71284" lon="3.46548">
        <ele>431</ele>
        <time>2017-03-22T09:51:26Z</time>
      </trkpt>
      <trkpt lat="43.71277" lon="3.46551">
        <ele>430.9</ele>
        <time>2017-03-22T09:51:27Z</time>
      </trkpt>
      <trkpt lat="43.7127" lon="3.46554">
        <ele>430.8</ele>
        <time>2017-03-22T09:51:28Z</time>
      </trkpt>
      <trkpt lat="43.71259" lon="3.46567">
        <ele>429.2</ele>
        <time>2017-03-22T09:51:30Z</time>
      </trkpt>
      <trkpt lat="43.71254" lon="3.46575">
        <ele>428.3</ele>
        <time>2017-03-22T09:51:31Z</time>
      </trkpt>
      <trkpt lat="43.71247" lon="3.46593">
        <ele>427.3</ele>
        <time>2017-03-22T09:51:33Z</time>
      </trkpt>
      <trkpt lat="43.71245" lon="3.46603">
        <ele>426.4</ele>
        <time>2017-03-22T09:51:34Z</time>
      </trkpt>
      <trkpt lat="43.71242" lon="3.46614">
        <ele>425.8</ele>
        <time>2017-03-22T09:51:35Z</time>
      </trkpt>
      <trkpt lat="43.7124" lon="3.46624">
        <ele>425.3</ele>
        <time>2017-03-22T09:51:36Z</time>
      </trkpt>
      <trkpt lat="43.71235" lon="3.46643">
        <ele>424.5</ele>
        <time>2017-03-22T09:51:38Z</time>
      </trkpt>
      <trkpt lat="43.71233" lon="3.46655">
        <ele>424.2</ele>
        <time>2017-03-22T09:51:40Z</time>
      </trkpt>
      <trkpt lat="43.71225" lon="3.46657">
        <ele>425</ele>
        <time>2017-03-22T09:51:46Z</time>
      </trkpt>
      <trkpt lat="43.7122" lon="3.46664">
        <ele>425.9</ele>
        <time>2017-03-22T09:51:51Z</time>
      </trkpt>
      <trkpt lat="43.71216" lon="3.46673">
        <ele>426.4</ele>
        <time>2017-03-22T09:51:56Z</time>
      </trkpt>
      <trkpt lat="43.7121" lon="3.46681">
        <ele>426.4</ele>
        <time>2017-03-22T09:52:03Z</time>
      </trkpt>
      <trkpt lat="43.71203" lon="3.46684">
        <ele>425.9</ele>
        <time>2017-03-22T09:52:05Z</time>
      </trkpt>
      <trkpt lat="43.71192" lon="3.46688">
        <ele>424.5</ele>
        <time>2017-03-22T09:52:07Z</time>
      </trkpt>
      <trkpt lat="43.71181" lon="3.46691">
        <ele>423.2</ele>
        <time>2017-03-22T09:52:09Z</time>
      </trkpt>
      <trkpt lat="43.71169" lon="3.46698">
        <ele>420.4</ele>
        <time>2017-03-22T09:52:11Z</time>
      </trkpt>
      <trkpt lat="43.71158" lon="3.46708">
        <ele>418.1</ele>
        <time>2017-03-22T09:52:13Z</time>
      </trkpt>
      <trkpt lat="43.71147" lon="3.46717">
        <ele>417.1</ele>
        <time>2017-03-22T09:52:15Z</time>
      </trkpt>
      <trkpt lat="43.71135" lon="3.46727">
        <ele>415</ele>
        <time>2017-03-22T09:52:17Z</time>
      </trkpt>
      <trkpt lat="43.71123" lon="3.46732">
        <ele>412.1</ele>
        <time>2017-03-22T09:52:19Z</time>
      </trkpt>
      <trkpt lat="43.71114" lon="3.46726">
        <ele>409.6</ele>
        <time>2017-03-22T09:52:21Z</time>
      </trkpt>
      <trkpt lat="43.71104" lon="3.46725">
        <ele>408.1</ele>
        <time>2017-03-22T09:52:23Z</time>
      </trkpt>
      <trkpt lat="43.71095" lon="3.46736">
        <ele>405.5</ele>
        <time>2017-03-22T09:52:25Z</time>
      </trkpt>
      <trkpt lat="43.7109" lon="3.46744">
        <ele>404.1</ele>
        <time>2017-03-22T09:52:26Z</time>
      </trkpt>
      <trkpt lat="43.71082" lon="3.46755">
        <ele>401.3</ele>
        <time>2017-03-22T09:52:28Z</time>
      </trkpt>
      <trkpt lat="43.71072" lon="3.46763">
        <ele>399.1</ele>
        <time>2017-03-22T09:52:30Z</time>
      </trkpt>
      <trkpt lat="43.71063" lon="3.46769">
        <ele>397.1</ele>
        <time>2017-03-22T09:52:32Z</time>
      </trkpt>
      <trkpt lat="43.71051" lon="3.46775">
        <ele>395.1</ele>
        <time>2017-03-22T09:52:34Z</time>
      </trkpt>
      <trkpt lat="43.71044" lon="3.46778">
        <ele>394</ele>
        <time>2017-03-22T09:52:35Z</time>
      </trkpt>
      <trkpt lat="43.71035" lon="3.4679">
        <ele>391.2</ele>
        <time>2017-03-22T09:52:37Z</time>
      </trkpt>
      <trkpt lat="43.71029" lon="3.46806">
        <ele>388.8</ele>
        <time>2017-03-22T09:52:39Z</time>
      </trkpt>
      <trkpt lat="43.71021" lon="3.46816">
        <ele>386.6</ele>
        <time>2017-03-22T09:52:41Z</time>
      </trkpt>
      <trkpt lat="43.71014" lon="3.46829">
        <ele>384.3</ele>
        <time>2017-03-22T09:52:43Z</time>
      </trkpt>
      <trkpt lat="43.71009" lon="3.46837">
        <ele>383.8</ele>
        <time>2017-03-22T09:52:44Z</time>
      </trkpt>
      <trkpt lat="43.71003" lon="3.46845">
        <ele>383.3</ele>
        <time>2017-03-22T09:52:45Z</time>
      </trkpt>
      <trkpt lat="43.70998" lon="3.46852">
        <ele>382.8</ele>
        <time>2017-03-22T09:52:46Z</time>
      </trkpt>
      <trkpt lat="43.70992" lon="3.46859">
        <ele>382</ele>
        <time>2017-03-22T09:52:47Z</time>
      </trkpt>
      <trkpt lat="43.70986" lon="3.46867">
        <ele>381.3</ele>
        <time>2017-03-22T09:52:48Z</time>
      </trkpt>
      <trkpt lat="43.70979" lon="3.46872">
        <ele>379.9</ele>
        <time>2017-03-22T09:52:49Z</time>
      </trkpt>
      <trkpt lat="43.70968" lon="3.46883">
        <ele>377.7</ele>
        <time>2017-03-22T09:52:51Z</time>
      </trkpt>
      <trkpt lat="43.70961" lon="3.46889">
        <ele>376.4</ele>
        <time>2017-03-22T09:52:53Z</time>
      </trkpt>
      <trkpt lat="43.70953" lon="3.46886">
        <ele>375.8</ele>
        <time>2017-03-22T09:52:55Z</time>
      </trkpt>
      <trkpt lat="43.70943" lon="3.46879">
        <ele>372.7</ele>
        <time>2017-03-22T09:52:57Z</time>
      </trkpt>
      <trkpt lat="43.70931" lon="3.46874">
        <ele>370.1</ele>
        <time>2017-03-22T09:52:59Z</time>
      </trkpt>
      <trkpt lat="43.70922" lon="3.46866">
        <ele>368</ele>
        <time>2017-03-22T09:53:01Z</time>
      </trkpt>
      <trkpt lat="43.70914" lon="3.46865">
        <ele>365.6</ele>
        <time>2017-03-22T09:53:03Z</time>
      </trkpt>
      <trkpt lat="43.70902" lon="3.46862">
        <ele>364.5</ele>
        <time>2017-03-22T09:53:06Z</time>
      </trkpt>
      <trkpt lat="43.70891" lon="3.4686">
        <ele>363</ele>
        <time>2017-03-22T09:53:08Z</time>
      </trkpt>
      <trkpt lat="43.70882" lon="3.46856">
        <ele>361.4</ele>
        <time>2017-03-22T09:53:10Z</time>
      </trkpt>
      <trkpt lat="43.70875" lon="3.46848">
        <ele>360.2</ele>
        <time>2017-03-22T09:53:12Z</time>
      </trkpt>
      <trkpt lat="43.70862" lon="3.4684">
        <ele>357.9</ele>
        <time>2017-03-22T09:53:14Z</time>
      </trkpt>
      <trkpt lat="43.70851" lon="3.46835">
        <ele>356.3</ele>
        <time>2017-03-22T09:53:16Z</time>
      </trkpt>
      <trkpt lat="43.70837" lon="3.46833">
        <ele>354.1</ele>
        <time>2017-03-22T09:53:18Z</time>
      </trkpt>
      <trkpt lat="43.70825" lon="3.46833">
        <ele>352</ele>
        <time>2017-03-22T09:53:20Z</time>
      </trkpt>
      <trkpt lat="43.70815" lon="3.4683">
        <ele>350.8</ele>
        <time>2017-03-22T09:53:22Z</time>
      </trkpt>
      <trkpt lat="43.70805" lon="3.46825">
        <ele>349.9</ele>
        <time>2017-03-22T09:53:24Z</time>
      </trkpt>
      <trkpt lat="43.70793" lon="3.46827">
        <ele>349</ele>
        <time>2017-03-22T09:53:26Z</time>
      </trkpt>
      <trkpt lat="43.70784" lon="3.46816">
        <ele>348.5</ele>
        <time>2017-03-22T09:53:28Z</time>
      </trkpt>
      <trkpt lat="43.70777" lon="3.46813">
        <ele>347.8</ele>
        <time>2017-03-22T09:53:29Z</time>
      </trkpt>
      <trkpt lat="43.70769" lon="3.46808">
        <ele>346.6</ele>
        <time>2017-03-22T09:53:30Z</time>
      </trkpt>
      <trkpt lat="43.70762" lon="3.46804">
        <ele>345.4</ele>
        <time>2017-03-22T09:53:31Z</time>
      </trkpt>
      <trkpt lat="43.70755" lon="3.46799">
        <ele>344.3</ele>
        <time>2017-03-22T09:53:32Z</time>
      </trkpt>
      <trkpt lat="43.70743" lon="3.46792">
        <ele>343.4</ele>
        <time>2017-03-22T09:53:34Z</time>
      </trkpt>
      <trkpt lat="43.70732" lon="3.46786">
        <ele>342.7</ele>
        <time>2017-03-22T09:53:36Z</time>
      </trkpt>
      <trkpt lat="43.7072" lon="3.46779">
        <ele>342.6</ele>
        <time>2017-03-22T09:53:38Z</time>
      </trkpt>
      <trkpt lat="43.70711" lon="3.46775">
        <ele>343.1</ele>
        <time>2017-03-22T09:53:40Z</time>
      </trkpt>
      <trkpt lat="43.70703" lon="3.46771">
        <ele>343.2</ele>
        <time>2017-03-22T09:53:42Z</time>
      </trkpt>
      <trkpt lat="43.70698" lon="3.46775">
        <ele>343.4</ele>
        <time>2017-03-22T09:53:49Z</time>
      </trkpt>
    </trkseg>
  </trk>
</gpx>